<?xml version='1.0' encoding='UTF-8'?>
<gpx version="1.1" creator="https://www.komoot.de" xmlns="http://www.topografix.com/GPX/1/1" xmlns:xsi="http://www.w3.org/2001/XMLSchema-instance" xsi:schemaLocation="http://www.topografix.com/GPX/1/1 http://www.topografix.com/GPX/1/1/gpx.xsd">
  <metadata>
    <name>76_1050WehrhaldEgg</name>
    <author>
      <link href="https://www.komoot.de">
        <text>komoot</text>
        <type>text/html</type>
      </link>
    </author>
  </metadata>
  <trk>
    <name>76_1050WehrhaldEgg</name>
    <trkseg>
      <trkpt lat="47.541318" lon="7.870867">
        <ele>340.902048</ele>
        <time>2021-11-21T09:32:26.131Z</time>
      </trkpt>
      <trkpt lat="47.541410" lon="7.870791">
        <ele>340.902048</ele>
        <time>2021-11-21T09:32:27.695Z</time>
      </trkpt>
      <trkpt lat="47.541576" lon="7.870664">
        <ele>340.902048</ele>
        <time>2021-11-21T09:32:31.839Z</time>
      </trkpt>
      <trkpt lat="47.541796" lon="7.871042">
        <ele>340.902048</ele>
        <time>2021-11-21T09:32:38.941Z</time>
      </trkpt>
      <trkpt lat="47.541953" lon="7.871286">
        <ele>340.902048</ele>
        <time>2021-11-21T09:32:43.763Z</time>
      </trkpt>
      <trkpt lat="47.542039" lon="7.871556">
        <ele>341.489157</ele>
        <time>2021-11-21T09:32:48.147Z</time>
      </trkpt>
      <trkpt lat="47.542067" lon="7.871664">
        <ele>341.777809</ele>
        <time>2021-11-21T09:32:49.809Z</time>
      </trkpt>
      <trkpt lat="47.542091" lon="7.871721">
        <ele>341.945421</ele>
        <time>2021-11-21T09:32:50.412Z</time>
      </trkpt>
      <trkpt lat="47.542218" lon="7.871866">
        <ele>342.538057</ele>
        <time>2021-11-21T09:32:55.520Z</time>
      </trkpt>
      <trkpt lat="47.542394" lon="7.872341">
        <ele>343.889976</ele>
        <time>2021-11-21T09:33:05.572Z</time>
      </trkpt>
      <trkpt lat="47.542436" lon="7.872494">
        <ele>344.302067</ele>
        <time>2021-11-21T09:33:08.964Z</time>
      </trkpt>
      <trkpt lat="47.542537" lon="7.872430">
        <ele>344.708086</ele>
        <time>2021-11-21T09:33:11.076Z</time>
      </trkpt>
      <trkpt lat="47.542714" lon="7.872334">
        <ele>345.404755</ele>
        <time>2021-11-21T09:33:18.032Z</time>
      </trkpt>
      <trkpt lat="47.542814" lon="7.872280">
        <ele>345.798151</ele>
        <time>2021-11-21T09:33:21.046Z</time>
      </trkpt>
      <trkpt lat="47.542919" lon="7.872226">
        <ele>346.208958</ele>
        <time>2021-11-21T09:33:24.885Z</time>
      </trkpt>
      <trkpt lat="47.543013" lon="7.872182">
        <ele>346.573318</ele>
        <time>2021-11-21T09:33:28.391Z</time>
      </trkpt>
      <trkpt lat="47.543233" lon="7.872082">
        <ele>347.423865</ele>
        <time>2021-11-21T09:33:35.630Z</time>
      </trkpt>
      <trkpt lat="47.543251" lon="7.872152">
        <ele>347.654368</ele>
        <time>2021-11-21T09:33:39.003Z</time>
      </trkpt>
      <trkpt lat="47.543332" lon="7.872237">
        <ele>348.284300</ele>
        <time>2021-11-21T09:33:42.308Z</time>
      </trkpt>
      <trkpt lat="47.544390" lon="7.872423">
        <ele>355.045553</ele>
        <time>2021-11-21T09:34:24.028Z</time>
      </trkpt>
      <trkpt lat="47.544883" lon="7.872555">
        <ele>358.224852</ele>
        <time>2021-11-21T09:34:46.437Z</time>
      </trkpt>
      <trkpt lat="47.545131" lon="7.872664">
        <ele>359.904775</ele>
        <time>2021-11-21T09:34:57.441Z</time>
      </trkpt>
      <trkpt lat="47.545375" lon="7.872836">
        <ele>361.692355</ele>
        <time>2021-11-21T09:35:08.382Z</time>
      </trkpt>
      <trkpt lat="47.545478" lon="7.872968">
        <ele>362.593316</ele>
        <time>2021-11-21T09:35:15.189Z</time>
      </trkpt>
      <trkpt lat="47.545515" lon="7.873015">
        <ele>362.915745</ele>
        <time>2021-11-21T09:35:17.146Z</time>
      </trkpt>
      <trkpt lat="47.545746" lon="7.873302">
        <ele>364.910170</ele>
        <time>2021-11-21T09:35:30.346Z</time>
      </trkpt>
      <trkpt lat="47.545934" lon="7.873549">
        <ele>366.572490</ele>
        <time>2021-11-21T09:35:40.446Z</time>
      </trkpt>
      <trkpt lat="47.546077" lon="7.873763">
        <ele>367.917143</ele>
        <time>2021-11-21T09:35:49.642Z</time>
      </trkpt>
      <trkpt lat="47.546135" lon="7.873859">
        <ele>368.492457</ele>
        <time>2021-11-21T09:35:52.881Z</time>
      </trkpt>
      <trkpt lat="47.546309" lon="7.874154">
        <ele>370.241812</ele>
        <time>2021-11-21T09:36:03.996Z</time>
      </trkpt>
      <trkpt lat="47.547126" lon="7.875801">
        <ele>375.927682</ele>
        <time>2021-11-21T09:36:49.757Z</time>
      </trkpt>
      <trkpt lat="47.547574" lon="7.876801">
        <ele>377.758342</ele>
        <time>2021-11-21T09:37:08.753Z</time>
      </trkpt>
      <trkpt lat="47.547992" lon="7.877974">
        <ele>377.186603</ele>
        <time>2021-11-21T09:37:21.553Z</time>
      </trkpt>
      <trkpt lat="47.548234" lon="7.878638">
        <ele>376.861341</ele>
        <time>2021-11-21T09:37:26.865Z</time>
      </trkpt>
      <trkpt lat="47.548422" lon="7.878959">
        <ele>376.018871</ele>
        <time>2021-11-21T09:37:29.708Z</time>
      </trkpt>
      <trkpt lat="47.548718" lon="7.879258">
        <ele>374.547492</ele>
        <time>2021-11-21T09:37:33.247Z</time>
      </trkpt>
      <trkpt lat="47.549140" lon="7.879391">
        <ele>372.775517</ele>
        <time>2021-11-21T09:37:37.433Z</time>
      </trkpt>
      <trkpt lat="47.549318" lon="7.879398">
        <ele>372.044196</ele>
        <time>2021-11-21T09:37:39.060Z</time>
      </trkpt>
      <trkpt lat="47.549327" lon="7.879547">
        <ele>371.629502</ele>
        <time>2021-11-21T09:37:40.047Z</time>
      </trkpt>
      <trkpt lat="47.549726" lon="7.880786">
        <ele>368.003326</ele>
        <time>2021-11-21T09:37:48.981Z</time>
      </trkpt>
      <trkpt lat="47.549927" lon="7.881490">
        <ele>366.123634</ele>
        <time>2021-11-21T09:37:54.013Z</time>
      </trkpt>
      <trkpt lat="47.550234" lon="7.883221">
        <ele>361.540010</ele>
        <time>2021-11-21T09:38:06.414Z</time>
      </trkpt>
      <trkpt lat="47.550332" lon="7.884727">
        <ele>357.222180</ele>
        <time>2021-11-21T09:38:16.258Z</time>
      </trkpt>
      <trkpt lat="47.550391" lon="7.885109">
        <ele>356.103831</ele>
        <time>2021-11-21T09:38:18.791Z</time>
      </trkpt>
      <trkpt lat="47.550548" lon="7.885799">
        <ele>353.620626</ele>
        <time>2021-11-21T09:38:23.395Z</time>
      </trkpt>
      <trkpt lat="47.550677" lon="7.886476">
        <ele>350.950862</ele>
        <time>2021-11-21T09:38:27.825Z</time>
      </trkpt>
      <trkpt lat="47.550758" lon="7.887295">
        <ele>347.809426</ele>
        <time>2021-11-21T09:38:32.968Z</time>
      </trkpt>
      <trkpt lat="47.550789" lon="7.887816">
        <ele>345.824476</ele>
        <time>2021-11-21T09:38:36.199Z</time>
      </trkpt>
      <trkpt lat="47.550831" lon="7.888611">
        <ele>342.528897</ele>
        <time>2021-11-21T09:38:41.155Z</time>
      </trkpt>
      <trkpt lat="47.550833" lon="7.889069">
        <ele>340.590904</ele>
        <time>2021-11-21T09:38:43.965Z</time>
      </trkpt>
      <trkpt lat="47.550915" lon="7.890600">
        <ele>334.092367</ele>
        <time>2021-11-21T09:38:53.358Z</time>
      </trkpt>
      <trkpt lat="47.550904" lon="7.891725">
        <ele>330.747212</ele>
        <time>2021-11-21T09:39:00.362Z</time>
      </trkpt>
      <trkpt lat="47.550892" lon="7.893176">
        <ele>326.524729</ele>
        <time>2021-11-21T09:39:09.974Z</time>
      </trkpt>
      <trkpt lat="47.550908" lon="7.894308">
        <ele>325.237225</ele>
        <time>2021-11-21T09:39:19.179Z</time>
      </trkpt>
      <trkpt lat="47.550878" lon="7.895158">
        <ele>324.486770</ele>
        <time>2021-11-21T09:39:26.364Z</time>
      </trkpt>
      <trkpt lat="47.550838" lon="7.895509">
        <ele>324.172919</ele>
        <time>2021-11-21T09:39:29.528Z</time>
      </trkpt>
      <trkpt lat="47.550660" lon="7.896255">
        <ele>323.198761</ele>
        <time>2021-11-21T09:39:36.017Z</time>
      </trkpt>
      <trkpt lat="47.550639" lon="7.896345">
        <ele>323.033303</ele>
        <time>2021-11-21T09:39:37.204Z</time>
      </trkpt>
      <trkpt lat="47.550648" lon="7.896481">
        <ele>322.795866</ele>
        <time>2021-11-21T09:39:38.159Z</time>
      </trkpt>
      <trkpt lat="47.550819" lon="7.898109">
        <ele>319.933127</ele>
        <time>2021-11-21T09:39:49.907Z</time>
      </trkpt>
      <trkpt lat="47.550801" lon="7.900244">
        <ele>314.328463</ele>
        <time>2021-11-21T09:40:03.744Z</time>
      </trkpt>
      <trkpt lat="47.550769" lon="7.901362">
        <ele>311.166634</ele>
        <time>2021-11-21T09:40:11.016Z</time>
      </trkpt>
      <trkpt lat="47.550757" lon="7.901591">
        <ele>310.597712</ele>
        <time>2021-11-21T09:40:13.152Z</time>
      </trkpt>
      <trkpt lat="47.550688" lon="7.902451">
        <ele>308.452561</ele>
        <time>2021-11-21T09:40:21.586Z</time>
      </trkpt>
      <trkpt lat="47.550498" lon="7.903445">
        <ele>305.893662</ele>
        <time>2021-11-21T09:40:31.837Z</time>
      </trkpt>
      <trkpt lat="47.550302" lon="7.904164">
        <ele>303.959077</ele>
        <time>2021-11-21T09:40:39.096Z</time>
      </trkpt>
      <trkpt lat="47.550025" lon="7.904774">
        <ele>302.110117</ele>
        <time>2021-11-21T09:40:46.021Z</time>
      </trkpt>
      <trkpt lat="47.549868" lon="7.905010">
        <ele>301.276767</ele>
        <time>2021-11-21T09:40:49.153Z</time>
      </trkpt>
      <trkpt lat="47.549867" lon="7.905155">
        <ele>300.912089</ele>
        <time>2021-11-21T09:40:50.550Z</time>
      </trkpt>
      <trkpt lat="47.550067" lon="7.905245">
        <ele>300.133264</ele>
        <time>2021-11-21T09:40:53.475Z</time>
      </trkpt>
      <trkpt lat="47.550283" lon="7.905413">
        <ele>299.224279</ele>
        <time>2021-11-21T09:40:56.925Z</time>
      </trkpt>
      <trkpt lat="47.550497" lon="7.905558">
        <ele>298.347478</ele>
        <time>2021-11-21T09:41:00.283Z</time>
      </trkpt>
      <trkpt lat="47.549539" lon="7.908625">
        <ele>293.168214</ele>
        <time>2021-11-21T09:41:24.729Z</time>
      </trkpt>
      <trkpt lat="47.549520" lon="7.908678">
        <ele>293.109593</ele>
        <time>2021-11-21T09:41:25.228Z</time>
      </trkpt>
      <trkpt lat="47.549329" lon="7.909312">
        <ele>292.431394</ele>
        <time>2021-11-21T09:41:30.883Z</time>
      </trkpt>
      <trkpt lat="47.549300" lon="7.909408">
        <ele>292.328655</ele>
        <time>2021-11-21T09:41:31.740Z</time>
      </trkpt>
      <trkpt lat="47.549281" lon="7.909470">
        <ele>292.262142</ele>
        <time>2021-11-21T09:41:32.310Z</time>
      </trkpt>
      <trkpt lat="47.549195" lon="7.909756">
        <ele>291.956297</ele>
        <time>2021-11-21T09:41:34.865Z</time>
      </trkpt>
      <trkpt lat="47.549102" lon="7.910058">
        <ele>291.632040</ele>
        <time>2021-11-21T09:41:37.571Z</time>
      </trkpt>
      <trkpt lat="47.549012" lon="7.910340">
        <ele>291.327331</ele>
        <time>2021-11-21T09:41:40.083Z</time>
      </trkpt>
      <trkpt lat="47.548412" lon="7.912168">
        <ele>289.784862</ele>
        <time>2021-11-21T09:41:56.412Z</time>
      </trkpt>
      <trkpt lat="47.548027" lon="7.913334">
        <ele>289.079004</ele>
        <time>2021-11-21T09:42:07.173Z</time>
      </trkpt>
      <trkpt lat="47.547994" lon="7.913433">
        <ele>289.050621</ele>
        <time>2021-11-21T09:42:08.094Z</time>
      </trkpt>
      <trkpt lat="47.547423" lon="7.915080">
        <ele>288.574661</ele>
        <time>2021-11-21T09:42:25.570Z</time>
      </trkpt>
      <trkpt lat="47.547113" lon="7.915971">
        <ele>288.759074</ele>
        <time>2021-11-21T09:42:36.018Z</time>
      </trkpt>
      <trkpt lat="47.547091" lon="7.916039">
        <ele>288.779725</ele>
        <time>2021-11-21T09:42:37.042Z</time>
      </trkpt>
      <trkpt lat="47.547032" lon="7.916218">
        <ele>288.834279</ele>
        <time>2021-11-21T09:42:39.245Z</time>
      </trkpt>
      <trkpt lat="47.546821" lon="7.916867">
        <ele>289.031558</ele>
        <time>2021-11-21T09:42:47.354Z</time>
      </trkpt>
      <trkpt lat="47.546262" lon="7.919081">
        <ele>289.673371</ele>
        <time>2021-11-21T09:43:14.865Z</time>
      </trkpt>
      <trkpt lat="47.546128" lon="7.919617">
        <ele>289.827829</ele>
        <time>2021-11-21T09:43:20.334Z</time>
      </trkpt>
      <trkpt lat="47.545973" lon="7.920313">
        <ele>290.110771</ele>
        <time>2021-11-21T09:43:28.797Z</time>
      </trkpt>
      <trkpt lat="47.545913" lon="7.920765">
        <ele>290.470026</ele>
        <time>2021-11-21T09:43:32.970Z</time>
      </trkpt>
      <trkpt lat="47.545881" lon="7.921096">
        <ele>290.730799</ele>
        <time>2021-11-21T09:43:36.987Z</time>
      </trkpt>
      <trkpt lat="47.545810" lon="7.921755">
        <ele>291.251243</ele>
        <time>2021-11-21T09:43:45.895Z</time>
      </trkpt>
      <trkpt lat="47.545778" lon="7.921947">
        <ele>291.405477</ele>
        <time>2021-11-21T09:43:49.504Z</time>
      </trkpt>
      <trkpt lat="47.545714" lon="7.922249">
        <ele>291.652335</ele>
        <time>2021-11-21T09:43:52.703Z</time>
      </trkpt>
      <trkpt lat="47.545699" lon="7.922325">
        <ele>291.714087</ele>
        <time>2021-11-21T09:43:53.900Z</time>
      </trkpt>
      <trkpt lat="47.545690" lon="7.922369">
        <ele>291.749943</ele>
        <time>2021-11-21T09:43:55.999Z</time>
      </trkpt>
      <trkpt lat="47.545641" lon="7.922610">
        <ele>291.946235</ele>
        <time>2021-11-21T09:43:58.352Z</time>
      </trkpt>
      <trkpt lat="47.545587" lon="7.922895">
        <ele>292.411211</ele>
        <time>2021-11-21T09:44:04.149Z</time>
      </trkpt>
      <trkpt lat="47.545553" lon="7.923142">
        <ele>292.997471</ele>
        <time>2021-11-21T09:44:06.796Z</time>
      </trkpt>
      <trkpt lat="47.545536" lon="7.923407">
        <ele>293.616547</ele>
        <time>2021-11-21T09:44:12.685Z</time>
      </trkpt>
      <trkpt lat="47.545521" lon="7.923709">
        <ele>294.320794</ele>
        <time>2021-11-21T09:44:16.839Z</time>
      </trkpt>
      <trkpt lat="47.545481" lon="7.924396">
        <ele>295.924455</ele>
        <time>2021-11-21T09:44:31.442Z</time>
      </trkpt>
      <trkpt lat="47.545466" lon="7.924880">
        <ele>297.051261</ele>
        <time>2021-11-21T09:44:42.749Z</time>
      </trkpt>
      <trkpt lat="47.545446" lon="7.925350">
        <ele>298.146492</ele>
        <time>2021-11-21T09:44:53.124Z</time>
      </trkpt>
      <trkpt lat="47.545417" lon="7.925848">
        <ele>299.026518</ele>
        <time>2021-11-21T09:45:03.603Z</time>
      </trkpt>
      <trkpt lat="47.545409" lon="7.926773">
        <ele>300.600817</ele>
        <time>2021-11-21T09:45:20.804Z</time>
      </trkpt>
      <trkpt lat="47.545407" lon="7.927001">
        <ele>300.988862</ele>
        <time>2021-11-21T09:45:24.613Z</time>
      </trkpt>
      <trkpt lat="47.545406" lon="7.927306">
        <ele>301.507919</ele>
        <time>2021-11-21T09:45:29.217Z</time>
      </trkpt>
      <trkpt lat="47.545421" lon="7.927686">
        <ele>302.155710</ele>
        <time>2021-11-21T09:45:34.753Z</time>
      </trkpt>
      <trkpt lat="47.545475" lon="7.928419">
        <ele>302.490943</ele>
        <time>2021-11-21T09:45:44.070Z</time>
      </trkpt>
      <trkpt lat="47.545563" lon="7.929641">
        <ele>301.479508</ele>
        <time>2021-11-21T09:45:53.949Z</time>
      </trkpt>
      <trkpt lat="47.545661" lon="7.930955">
        <ele>300.364551</ele>
        <time>2021-11-21T09:46:03.345Z</time>
      </trkpt>
      <trkpt lat="47.545696" lon="7.931497">
        <ele>299.857905</ele>
        <time>2021-11-21T09:46:07.314Z</time>
      </trkpt>
      <trkpt lat="47.545721" lon="7.931992">
        <ele>299.396008</ele>
        <time>2021-11-21T09:46:11.107Z</time>
      </trkpt>
      <trkpt lat="47.545724" lon="7.932758">
        <ele>298.683215</ele>
        <time>2021-11-21T09:46:17.316Z</time>
      </trkpt>
      <trkpt lat="47.545702" lon="7.933290">
        <ele>298.187248</ele>
        <time>2021-11-21T09:46:21.959Z</time>
      </trkpt>
      <trkpt lat="47.545674" lon="7.933625">
        <ele>298.262838</ele>
        <time>2021-11-21T09:46:25.159Z</time>
      </trkpt>
      <trkpt lat="47.545457" lon="7.935110">
        <ele>299.097869</ele>
        <time>2021-11-21T09:46:43.294Z</time>
      </trkpt>
      <trkpt lat="47.545074" lon="7.936484">
        <ele>300.288906</ele>
        <time>2021-11-21T09:47:04.821Z</time>
      </trkpt>
      <trkpt lat="47.544903" lon="7.936917">
        <ele>300.874986</ele>
        <time>2021-11-21T09:47:12.138Z</time>
      </trkpt>
      <trkpt lat="47.544705" lon="7.937395">
        <ele>301.530188</ele>
        <time>2021-11-21T09:47:20.322Z</time>
      </trkpt>
      <trkpt lat="47.544472" lon="7.937932">
        <ele>302.275987</ele>
        <time>2021-11-21T09:47:29.729Z</time>
      </trkpt>
      <trkpt lat="47.543826" lon="7.939433">
        <ele>304.344474</ele>
        <time>2021-11-21T09:47:56.611Z</time>
      </trkpt>
      <trkpt lat="47.543435" lon="7.940670">
        <ele>305.842553</ele>
        <time>2021-11-21T09:48:16.571Z</time>
      </trkpt>
      <trkpt lat="47.543161" lon="7.942213">
        <ele>306.560307</ele>
        <time>2021-11-21T09:48:37.421Z</time>
      </trkpt>
      <trkpt lat="47.543007" lon="7.943867">
        <ele>306.212250</ele>
        <time>2021-11-21T09:48:52.965Z</time>
      </trkpt>
      <trkpt lat="47.542913" lon="7.945267">
        <ele>304.706107</ele>
        <time>2021-11-21T09:49:03.730Z</time>
      </trkpt>
      <trkpt lat="47.542872" lon="7.945781">
        <ele>304.152024</ele>
        <time>2021-11-21T09:49:07.325Z</time>
      </trkpt>
      <trkpt lat="47.542875" lon="7.946089">
        <ele>303.650063</ele>
        <time>2021-11-21T09:49:09.452Z</time>
      </trkpt>
      <trkpt lat="47.542902" lon="7.946514">
        <ele>302.940433</ele>
        <time>2021-11-21T09:49:12.320Z</time>
      </trkpt>
      <trkpt lat="47.542943" lon="7.946806">
        <ele>302.444631</ele>
        <time>2021-11-21T09:49:14.341Z</time>
      </trkpt>
      <trkpt lat="47.542974" lon="7.946965">
        <ele>302.169510</ele>
        <time>2021-11-21T09:49:15.581Z</time>
      </trkpt>
      <trkpt lat="47.542979" lon="7.946989">
        <ele>302.127756</ele>
        <time>2021-11-21T09:49:15.737Z</time>
      </trkpt>
      <trkpt lat="47.543007" lon="7.947104">
        <ele>301.924529</ele>
        <time>2021-11-21T09:49:16.604Z</time>
      </trkpt>
      <trkpt lat="47.543087" lon="7.947317">
        <ele>301.519326</ele>
        <time>2021-11-21T09:49:18.303Z</time>
      </trkpt>
      <trkpt lat="47.543191" lon="7.947615">
        <ele>300.961652</ele>
        <time>2021-11-21T09:49:20.811Z</time>
      </trkpt>
      <trkpt lat="47.543191" lon="7.947615">
        <ele>300.961652</ele>
        <time>2021-11-21T09:49:20.816Z</time>
      </trkpt>
      <trkpt lat="47.543242" lon="7.947745">
        <ele>300.711700</ele>
        <time>2021-11-21T09:49:21.946Z</time>
      </trkpt>
      <trkpt lat="47.543273" lon="7.947816">
        <ele>300.571135</ele>
        <time>2021-11-21T09:49:22.581Z</time>
      </trkpt>
      <trkpt lat="47.543358" lon="7.947967">
        <ele>300.244293</ele>
        <time>2021-11-21T09:49:24.066Z</time>
      </trkpt>
      <trkpt lat="47.543455" lon="7.948127">
        <ele>299.886794</ele>
        <time>2021-11-21T09:49:25.676Z</time>
      </trkpt>
      <trkpt lat="47.543532" lon="7.948214">
        <ele>299.699891</ele>
        <time>2021-11-21T09:49:26.770Z</time>
      </trkpt>
      <trkpt lat="47.543579" lon="7.948287">
        <ele>299.686553</ele>
        <time>2021-11-21T09:49:27.561Z</time>
      </trkpt>
      <trkpt lat="47.543760" lon="7.948548">
        <ele>299.637081</ele>
        <time>2021-11-21T09:49:30.409Z</time>
      </trkpt>
      <trkpt lat="47.543864" lon="7.948694">
        <ele>299.609019</ele>
        <time>2021-11-21T09:49:32.152Z</time>
      </trkpt>
      <trkpt lat="47.544239" lon="7.949202">
        <ele>299.509493</ele>
        <time>2021-11-21T09:49:39.349Z</time>
      </trkpt>
      <trkpt lat="47.544521" lon="7.949558">
        <ele>299.436927</ele>
        <time>2021-11-21T09:49:45.523Z</time>
      </trkpt>
      <trkpt lat="47.544901" lon="7.950044">
        <ele>299.370220</ele>
        <time>2021-11-21T09:49:54.919Z</time>
      </trkpt>
      <trkpt lat="47.545166" lon="7.950366">
        <ele>299.460737</ele>
        <time>2021-11-21T09:50:01.469Z</time>
      </trkpt>
      <trkpt lat="47.545434" lon="7.950668">
        <ele>299.549664</ele>
        <time>2021-11-21T09:50:07.259Z</time>
      </trkpt>
      <trkpt lat="47.545542" lon="7.950842">
        <ele>299.591804</ele>
        <time>2021-11-21T09:50:09.684Z</time>
      </trkpt>
      <trkpt lat="47.545667" lon="7.950979">
        <ele>299.632868</ele>
        <time>2021-11-21T09:50:12.289Z</time>
      </trkpt>
      <trkpt lat="47.545737" lon="7.951055">
        <ele>299.655788</ele>
        <time>2021-11-21T09:50:13.543Z</time>
      </trkpt>
      <trkpt lat="47.545876" lon="7.951233">
        <ele>299.704312</ele>
        <time>2021-11-21T09:50:15.936Z</time>
      </trkpt>
      <trkpt lat="47.546112" lon="7.951485">
        <ele>299.781142</ele>
        <time>2021-11-21T09:50:20.479Z</time>
      </trkpt>
      <trkpt lat="47.546164" lon="7.951520">
        <ele>299.796226</ele>
        <time>2021-11-21T09:50:21.113Z</time>
      </trkpt>
      <trkpt lat="47.546212" lon="7.951535">
        <ele>299.809182</ele>
        <time>2021-11-21T09:50:21.878Z</time>
      </trkpt>
      <trkpt lat="47.546231" lon="7.951558">
        <ele>299.815662</ele>
        <time>2021-11-21T09:50:22.608Z</time>
      </trkpt>
      <trkpt lat="47.546421" lon="7.951793">
        <ele>299.741686</ele>
        <time>2021-11-21T09:50:25.789Z</time>
      </trkpt>
      <trkpt lat="47.546634" lon="7.952024">
        <ele>299.631310</ele>
        <time>2021-11-21T09:50:29.323Z</time>
      </trkpt>
      <trkpt lat="47.546695" lon="7.952091">
        <ele>299.599559</ele>
        <time>2021-11-21T09:50:30.278Z</time>
      </trkpt>
      <trkpt lat="47.546776" lon="7.952185">
        <ele>299.556536</ele>
        <time>2021-11-21T09:50:31.465Z</time>
      </trkpt>
      <trkpt lat="47.546935" lon="7.952372">
        <ele>299.471650</ele>
        <time>2021-11-21T09:50:34.400Z</time>
      </trkpt>
      <trkpt lat="47.547090" lon="7.952543">
        <ele>299.390844</ele>
        <time>2021-11-21T09:50:37.037Z</time>
      </trkpt>
      <trkpt lat="47.547400" lon="7.952910">
        <ele>299.224921</ele>
        <time>2021-11-21T09:50:42.341Z</time>
      </trkpt>
      <trkpt lat="47.547458" lon="7.952975">
        <ele>299.194512</ele>
        <time>2021-11-21T09:50:43.260Z</time>
      </trkpt>
      <trkpt lat="47.547550" lon="7.953078">
        <ele>299.146295</ele>
        <time>2021-11-21T09:50:44.752Z</time>
      </trkpt>
      <trkpt lat="47.547624" lon="7.953160">
        <ele>299.107655</ele>
        <time>2021-11-21T09:50:45.994Z</time>
      </trkpt>
      <trkpt lat="47.547797" lon="7.953355">
        <ele>298.977480</ele>
        <time>2021-11-21T09:50:49.005Z</time>
      </trkpt>
      <trkpt lat="47.547871" lon="7.953437">
        <ele>298.912784</ele>
        <time>2021-11-21T09:50:50.299Z</time>
      </trkpt>
      <trkpt lat="47.547994" lon="7.953584">
        <ele>298.802144</ele>
        <time>2021-11-21T09:50:52.477Z</time>
      </trkpt>
      <trkpt lat="47.548115" lon="7.953729">
        <ele>298.693188</ele>
        <time>2021-11-21T09:50:54.631Z</time>
      </trkpt>
      <trkpt lat="47.548251" lon="7.953895">
        <ele>298.569821</ele>
        <time>2021-11-21T09:50:57.028Z</time>
      </trkpt>
      <trkpt lat="47.548335" lon="7.953779">
        <ele>298.489426</ele>
        <time>2021-11-21T09:50:58.935Z</time>
      </trkpt>
      <trkpt lat="47.549056" lon="7.953396">
        <ele>297.953180</ele>
        <time>2021-11-21T09:51:12.713Z</time>
      </trkpt>
      <trkpt lat="47.549296" lon="7.953268">
        <ele>297.711152</ele>
        <time>2021-11-21T09:51:17.250Z</time>
      </trkpt>
      <trkpt lat="47.549442" lon="7.953195">
        <ele>297.436992</ele>
        <time>2021-11-21T09:51:19.803Z</time>
      </trkpt>
      <trkpt lat="47.549640" lon="7.953086">
        <ele>297.061175</ele>
        <time>2021-11-21T09:51:23.514Z</time>
      </trkpt>
      <trkpt lat="47.549673" lon="7.953076">
        <ele>297.001246</ele>
        <time>2021-11-21T09:51:24.073Z</time>
      </trkpt>
      <trkpt lat="47.549687" lon="7.953071">
        <ele>296.975623</ele>
        <time>2021-11-21T09:51:24.265Z</time>
      </trkpt>
      <trkpt lat="47.550567" lon="7.953069">
        <ele>295.409911</ele>
        <time>2021-11-21T09:51:38.437Z</time>
      </trkpt>
      <trkpt lat="47.550656" lon="7.953072">
        <ele>295.251520</ele>
        <time>2021-11-21T09:51:39.752Z</time>
      </trkpt>
      <trkpt lat="47.550967" lon="7.953063">
        <ele>294.698078</ele>
        <time>2021-11-21T09:51:44.515Z</time>
      </trkpt>
      <trkpt lat="47.551254" lon="7.952986">
        <ele>294.142422</ele>
        <time>2021-11-21T09:51:48.904Z</time>
      </trkpt>
      <trkpt lat="47.551295" lon="7.952900">
        <ele>294.005346</ele>
        <time>2021-11-21T09:51:49.968Z</time>
      </trkpt>
      <trkpt lat="47.551334" lon="7.952777">
        <ele>293.828426</ele>
        <time>2021-11-21T09:51:52.643Z</time>
      </trkpt>
      <trkpt lat="47.551339" lon="7.952761">
        <ele>293.805472</ele>
        <time>2021-11-21T09:51:53.013Z</time>
      </trkpt>
      <trkpt lat="47.551381" lon="7.952341">
        <ele>293.252718</ele>
        <time>2021-11-21T09:52:01.795Z</time>
      </trkpt>
      <trkpt lat="47.551506" lon="7.950255">
        <ele>291.086224</ele>
        <time>2021-11-21T09:52:47.331Z</time>
      </trkpt>
      <trkpt lat="47.551525" lon="7.950027">
        <ele>291.057290</ele>
        <time>2021-11-21T09:52:52.793Z</time>
      </trkpt>
      <trkpt lat="47.551581" lon="7.949830">
        <ele>291.030368</ele>
        <time>2021-11-21T09:52:57.949Z</time>
      </trkpt>
      <trkpt lat="47.551673" lon="7.949634">
        <ele>291.000300</ele>
        <time>2021-11-21T09:53:04.036Z</time>
      </trkpt>
      <trkpt lat="47.551794" lon="7.949387">
        <ele>290.961861</ele>
        <time>2021-11-21T09:53:11.597Z</time>
      </trkpt>
      <trkpt lat="47.552010" lon="7.949039">
        <ele>290.902316</ele>
        <time>2021-11-21T09:53:23.784Z</time>
      </trkpt>
      <trkpt lat="47.552049" lon="7.948982">
        <ele>290.892093</ele>
        <time>2021-11-21T09:53:25.954Z</time>
      </trkpt>
      <trkpt lat="47.552094" lon="7.948926">
        <ele>290.881127</ele>
        <time>2021-11-21T09:53:28.328Z</time>
      </trkpt>
      <trkpt lat="47.552202" lon="7.949003">
        <ele>290.858762</ele>
        <time>2021-11-21T09:53:33.016Z</time>
      </trkpt>
      <trkpt lat="47.552351" lon="7.949099">
        <ele>290.828443</ele>
        <time>2021-11-21T09:53:39.420Z</time>
      </trkpt>
      <trkpt lat="47.552382" lon="7.949119">
        <ele>290.822133</ele>
        <time>2021-11-21T09:53:40.870Z</time>
      </trkpt>
      <trkpt lat="47.552518" lon="7.949236">
        <ele>290.789786</ele>
        <time>2021-11-21T09:53:47.205Z</time>
      </trkpt>
      <trkpt lat="47.552719" lon="7.949023">
        <ele>290.735883</ele>
        <time>2021-11-21T09:53:57.281Z</time>
      </trkpt>
      <trkpt lat="47.552953" lon="7.948775">
        <ele>290.673128</ele>
        <time>2021-11-21T09:54:08.210Z</time>
      </trkpt>
      <trkpt lat="47.553197" lon="7.948543">
        <ele>290.609889</ele>
        <time>2021-11-21T09:54:18.944Z</time>
      </trkpt>
      <trkpt lat="47.553243" lon="7.948595">
        <ele>290.597268</ele>
        <time>2021-11-21T09:54:21.000Z</time>
      </trkpt>
      <trkpt lat="47.553488" lon="7.949175">
        <ele>290.496539</ele>
        <time>2021-11-21T09:54:37.220Z</time>
      </trkpt>
      <trkpt lat="47.553669" lon="7.949729">
        <ele>290.355464</ele>
        <time>2021-11-21T09:54:51.246Z</time>
      </trkpt>
      <trkpt lat="47.553699" lon="7.949840">
        <ele>290.265586</ele>
        <time>2021-11-21T09:54:53.827Z</time>
      </trkpt>
      <trkpt lat="47.553747" lon="7.950009">
        <ele>290.127761</ele>
        <time>2021-11-21T09:54:57.895Z</time>
      </trkpt>
      <trkpt lat="47.553836" lon="7.950173">
        <ele>289.969574</ele>
        <time>2021-11-21T09:55:02.743Z</time>
      </trkpt>
      <trkpt lat="47.553918" lon="7.950361">
        <ele>289.801315</ele>
        <time>2021-11-21T09:55:07.576Z</time>
      </trkpt>
      <trkpt lat="47.554036" lon="7.950322">
        <ele>289.666660</ele>
        <time>2021-11-21T09:55:11.558Z</time>
      </trkpt>
      <trkpt lat="47.554130" lon="7.950301">
        <ele>289.560782</ele>
        <time>2021-11-21T09:55:14.860Z</time>
      </trkpt>
      <trkpt lat="47.554192" lon="7.950296">
        <ele>289.491626</ele>
        <time>2021-11-21T09:55:16.818Z</time>
      </trkpt>
      <trkpt lat="47.554240" lon="7.950300">
        <ele>289.438081</ele>
        <time>2021-11-21T09:55:18.376Z</time>
      </trkpt>
      <trkpt lat="47.554303" lon="7.950312">
        <ele>289.367336</ele>
        <time>2021-11-21T09:55:19.113Z</time>
      </trkpt>
      <trkpt lat="47.554392" lon="7.950331">
        <ele>289.267186</ele>
        <time>2021-11-21T09:55:20.187Z</time>
      </trkpt>
      <trkpt lat="47.554652" lon="7.950448">
        <ele>288.964546</ele>
        <time>2021-11-21T09:55:23.401Z</time>
      </trkpt>
      <trkpt lat="47.554759" lon="7.950515">
        <ele>288.835168</ele>
        <time>2021-11-21T09:55:24.807Z</time>
      </trkpt>
      <trkpt lat="47.554954" lon="7.950665">
        <ele>288.590460</ele>
        <time>2021-11-21T09:55:27.440Z</time>
      </trkpt>
      <trkpt lat="47.555474" lon="7.951144">
        <ele>288.384753</ele>
        <time>2021-11-21T09:55:35.324Z</time>
      </trkpt>
      <trkpt lat="47.555687" lon="7.951449">
        <ele>288.365088</ele>
        <time>2021-11-21T09:55:39.408Z</time>
      </trkpt>
      <trkpt lat="47.556339" lon="7.952382">
        <ele>288.304912</ele>
        <time>2021-11-21T09:55:53.471Z</time>
      </trkpt>
      <trkpt lat="47.556386" lon="7.952449">
        <ele>288.300583</ele>
        <time>2021-11-21T09:55:54.640Z</time>
      </trkpt>
      <trkpt lat="47.556400" lon="7.952468">
        <ele>288.299322</ele>
        <time>2021-11-21T09:55:54.952Z</time>
      </trkpt>
      <trkpt lat="47.557120" lon="7.953536">
        <ele>288.867744</ele>
        <time>2021-11-21T09:56:12.979Z</time>
      </trkpt>
      <trkpt lat="47.557517" lon="7.954117">
        <ele>289.199766</ele>
        <time>2021-11-21T09:56:22.826Z</time>
      </trkpt>
      <trkpt lat="47.557687" lon="7.954371">
        <ele>289.343419</ele>
        <time>2021-11-21T09:56:26.939Z</time>
      </trkpt>
      <trkpt lat="47.557874" lon="7.954579">
        <ele>289.374008</ele>
        <time>2021-11-21T09:56:30.667Z</time>
      </trkpt>
      <trkpt lat="47.557899" lon="7.954581">
        <ele>289.375056</ele>
        <time>2021-11-21T09:56:31.164Z</time>
      </trkpt>
      <trkpt lat="47.557935" lon="7.954571">
        <ele>289.376589</ele>
        <time>2021-11-21T09:56:31.814Z</time>
      </trkpt>
      <trkpt lat="47.558070" lon="7.954468">
        <ele>289.382942</ele>
        <time>2021-11-21T09:56:34.183Z</time>
      </trkpt>
      <trkpt lat="47.558107" lon="7.954410">
        <ele>289.385195</ele>
        <time>2021-11-21T09:56:35.113Z</time>
      </trkpt>
      <trkpt lat="47.558161" lon="7.954466">
        <ele>289.387953</ele>
        <time>2021-11-21T09:56:36.104Z</time>
      </trkpt>
      <trkpt lat="47.558201" lon="7.954539">
        <ele>289.390608</ele>
        <time>2021-11-21T09:56:37.186Z</time>
      </trkpt>
      <trkpt lat="47.558360" lon="7.955074">
        <ele>289.407114</ele>
        <time>2021-11-21T09:56:43.391Z</time>
      </trkpt>
      <trkpt lat="47.558659" lon="7.956055">
        <ele>289.437508</ele>
        <time>2021-11-21T09:56:53.692Z</time>
      </trkpt>
      <trkpt lat="47.558756" lon="7.956469">
        <ele>289.323514</ele>
        <time>2021-11-21T09:56:57.585Z</time>
      </trkpt>
      <trkpt lat="47.559224" lon="7.958738">
        <ele>288.442620</ele>
        <time>2021-11-21T09:57:18.029Z</time>
      </trkpt>
      <trkpt lat="47.559324" lon="7.959601">
        <ele>288.608364</ele>
        <time>2021-11-21T09:57:26.386Z</time>
      </trkpt>
      <trkpt lat="47.559346" lon="7.959868">
        <ele>288.659279</ele>
        <time>2021-11-21T09:57:29.481Z</time>
      </trkpt>
      <trkpt lat="47.559406" lon="7.960730">
        <ele>288.823308</ele>
        <time>2021-11-21T09:57:38.964Z</time>
      </trkpt>
      <trkpt lat="47.559408" lon="7.961845">
        <ele>289.159959</ele>
        <time>2021-11-21T09:57:52.729Z</time>
      </trkpt>
      <trkpt lat="47.559368" lon="7.962709">
        <ele>289.550144</ele>
        <time>2021-11-21T09:58:03.970Z</time>
      </trkpt>
      <trkpt lat="47.559232" lon="7.963800">
        <ele>290.050004</ele>
        <time>2021-11-21T09:58:16.563Z</time>
      </trkpt>
      <trkpt lat="47.559029" lon="7.964894">
        <ele>290.083376</ele>
        <time>2021-11-21T09:58:28.266Z</time>
      </trkpt>
      <trkpt lat="47.558949" lon="7.965326">
        <ele>290.053925</ele>
        <time>2021-11-21T09:58:32.501Z</time>
      </trkpt>
      <trkpt lat="47.558732" lon="7.966356">
        <ele>289.982986</ele>
        <time>2021-11-21T09:58:42.446Z</time>
      </trkpt>
      <trkpt lat="47.558606" lon="7.966985">
        <ele>290.152294</ele>
        <time>2021-11-21T09:58:48.951Z</time>
      </trkpt>
      <trkpt lat="47.558448" lon="7.967701">
        <ele>290.463787</ele>
        <time>2021-11-21T09:58:56.542Z</time>
      </trkpt>
      <trkpt lat="47.558430" lon="7.967788">
        <ele>290.501414</ele>
        <time>2021-11-21T09:58:57.630Z</time>
      </trkpt>
      <trkpt lat="47.558327" lon="7.968108">
        <ele>290.648015</ele>
        <time>2021-11-21T09:59:01.908Z</time>
      </trkpt>
      <trkpt lat="47.558313" lon="7.968259">
        <ele>290.711041</ele>
        <time>2021-11-21T09:59:03.550Z</time>
      </trkpt>
      <trkpt lat="47.558366" lon="7.968291">
        <ele>290.746108</ele>
        <time>2021-11-21T09:59:04.894Z</time>
      </trkpt>
      <trkpt lat="47.558617" lon="7.968374">
        <ele>290.903689</ele>
        <time>2021-11-21T09:59:09.537Z</time>
      </trkpt>
      <trkpt lat="47.558761" lon="7.968396">
        <ele>290.992391</ele>
        <time>2021-11-21T09:59:12.783Z</time>
      </trkpt>
      <trkpt lat="47.559077" lon="7.968444">
        <ele>291.490246</ele>
        <time>2021-11-21T09:59:19.101Z</time>
      </trkpt>
      <trkpt lat="47.559255" lon="7.968471">
        <ele>291.886624</ele>
        <time>2021-11-21T09:59:22.761Z</time>
      </trkpt>
      <trkpt lat="47.559532" lon="7.968492">
        <ele>292.501057</ele>
        <time>2021-11-21T09:59:29.279Z</time>
      </trkpt>
      <trkpt lat="47.559774" lon="7.968514">
        <ele>293.038160</ele>
        <time>2021-11-21T09:59:35.312Z</time>
      </trkpt>
      <trkpt lat="47.559955" lon="7.968562">
        <ele>293.445494</ele>
        <time>2021-11-21T09:59:39.569Z</time>
      </trkpt>
      <trkpt lat="47.560859" lon="7.968941">
        <ele>296.076628</ele>
        <time>2021-11-21T10:00:02.989Z</time>
      </trkpt>
      <trkpt lat="47.561059" lon="7.969025">
        <ele>297.074665</ele>
        <time>2021-11-21T10:00:09.055Z</time>
      </trkpt>
      <trkpt lat="47.561113" lon="7.969048">
        <ele>297.344420</ele>
        <time>2021-11-21T10:00:10.734Z</time>
      </trkpt>
      <trkpt lat="47.561101" lon="7.969103">
        <ele>297.531691</ele>
        <time>2021-11-21T10:00:11.859Z</time>
      </trkpt>
      <trkpt lat="47.561075" lon="7.969222">
        <ele>297.936931</ele>
        <time>2021-11-21T10:00:14.245Z</time>
      </trkpt>
      <trkpt lat="47.561012" lon="7.969521">
        <ele>298.951753</ele>
        <time>2021-11-21T10:00:22.148Z</time>
      </trkpt>
      <trkpt lat="47.561077" lon="7.969584">
        <ele>299.324644</ele>
        <time>2021-11-21T10:00:24.477Z</time>
      </trkpt>
      <trkpt lat="47.561207" lon="7.969794">
        <ele>300.247918</ele>
        <time>2021-11-21T10:00:31.767Z</time>
      </trkpt>
      <trkpt lat="47.561250" lon="7.969992">
        <ele>300.921797</ele>
        <time>2021-11-21T10:00:36.719Z</time>
      </trkpt>
      <trkpt lat="47.561300" lon="7.970209">
        <ele>301.664683</ele>
        <time>2021-11-21T10:00:41.044Z</time>
      </trkpt>
      <trkpt lat="47.561319" lon="7.970293">
        <ele>301.951706</ele>
        <time>2021-11-21T10:00:44.603Z</time>
      </trkpt>
      <trkpt lat="47.561534" lon="7.970899">
        <ele>304.580690</ele>
        <time>2021-11-21T10:01:02.131Z</time>
      </trkpt>
      <trkpt lat="47.561682" lon="7.971192">
        <ele>306.783907</ele>
        <time>2021-11-21T10:01:12.546Z</time>
      </trkpt>
      <trkpt lat="47.561716" lon="7.971255">
        <ele>307.269525</ele>
        <time>2021-11-21T10:01:15.626Z</time>
      </trkpt>
      <trkpt lat="47.561856" lon="7.971566">
        <ele>309.520028</ele>
        <time>2021-11-21T10:01:26.619Z</time>
      </trkpt>
      <trkpt lat="47.561959" lon="7.971806">
        <ele>311.232211</ele>
        <time>2021-11-21T10:01:37.320Z</time>
      </trkpt>
      <trkpt lat="47.561984" lon="7.972078">
        <ele>312.884703</ele>
        <time>2021-11-21T10:01:47.130Z</time>
      </trkpt>
      <trkpt lat="47.562063" lon="7.972426">
        <ele>315.094944</ele>
        <time>2021-11-21T10:02:01.783Z</time>
      </trkpt>
      <trkpt lat="47.562247" lon="7.972843">
        <ele>318.094209</ele>
        <time>2021-11-21T10:02:20.138Z</time>
      </trkpt>
      <trkpt lat="47.562270" lon="7.972880">
        <ele>318.397041</ele>
        <time>2021-11-21T10:02:22.820Z</time>
      </trkpt>
      <trkpt lat="47.562391" lon="7.972987">
        <ele>319.654039</ele>
        <time>2021-11-21T10:02:30.443Z</time>
      </trkpt>
      <trkpt lat="47.562482" lon="7.973084">
        <ele>320.714218</ele>
        <time>2021-11-21T10:02:37.030Z</time>
      </trkpt>
      <trkpt lat="47.562624" lon="7.973211">
        <ele>322.290866</ele>
        <time>2021-11-21T10:02:46.019Z</time>
      </trkpt>
      <trkpt lat="47.562835" lon="7.973351">
        <ele>324.488525</ele>
        <time>2021-11-21T10:02:58.231Z</time>
      </trkpt>
      <trkpt lat="47.563057" lon="7.973484">
        <ele>326.764812</ele>
        <time>2021-11-21T10:03:11.279Z</time>
      </trkpt>
      <trkpt lat="47.563140" lon="7.973536">
        <ele>327.621432</ele>
        <time>2021-11-21T10:03:15.829Z</time>
      </trkpt>
      <trkpt lat="47.563511" lon="7.973794">
        <ele>331.517202</ele>
        <time>2021-11-21T10:03:37.663Z</time>
      </trkpt>
      <trkpt lat="47.564852" lon="7.975095">
        <ele>346.659612</ele>
        <time>2021-11-21T10:04:58.346Z</time>
      </trkpt>
      <trkpt lat="47.565200" lon="7.975372">
        <ele>350.379134</ele>
        <time>2021-11-21T10:05:20.632Z</time>
      </trkpt>
      <trkpt lat="47.565867" lon="7.975381">
        <ele>357.448441</ele>
        <time>2021-11-21T10:05:56.531Z</time>
      </trkpt>
      <trkpt lat="47.565964" lon="7.975378">
        <ele>358.611342</ele>
        <time>2021-11-21T10:06:03.658Z</time>
      </trkpt>
      <trkpt lat="47.566200" lon="7.975405">
        <ele>361.448467</ele>
        <time>2021-11-21T10:06:15.426Z</time>
      </trkpt>
      <trkpt lat="47.566542" lon="7.975527">
        <ele>365.664770</ele>
        <time>2021-11-21T10:06:35.199Z</time>
      </trkpt>
      <trkpt lat="47.566673" lon="7.975768">
        <ele>368.167624</ele>
        <time>2021-11-21T10:06:49.154Z</time>
      </trkpt>
      <trkpt lat="47.566852" lon="7.976458">
        <ele>374.146145</ele>
        <time>2021-11-21T10:07:26.083Z</time>
      </trkpt>
      <trkpt lat="47.566939" lon="7.976573">
        <ele>375.570704</ele>
        <time>2021-11-21T10:07:34.387Z</time>
      </trkpt>
      <trkpt lat="47.567134" lon="7.976669">
        <ele>378.347758</ele>
        <time>2021-11-21T10:07:51.729Z</time>
      </trkpt>
      <trkpt lat="47.567340" lon="7.976629">
        <ele>381.155678</ele>
        <time>2021-11-21T10:08:03.823Z</time>
      </trkpt>
      <trkpt lat="47.567627" lon="7.976382">
        <ele>385.641074</ele>
        <time>2021-11-21T10:08:28.606Z</time>
      </trkpt>
      <trkpt lat="47.567801" lon="7.976285">
        <ele>388.153567</ele>
        <time>2021-11-21T10:08:43.359Z</time>
      </trkpt>
      <trkpt lat="47.567987" lon="7.976370">
        <ele>390.784175</ele>
        <time>2021-11-21T10:08:54.752Z</time>
      </trkpt>
      <trkpt lat="47.568107" lon="7.976469">
        <ele>392.640327</ele>
        <time>2021-11-21T10:09:05.698Z</time>
      </trkpt>
      <trkpt lat="47.568316" lon="7.976569">
        <ele>395.608543</ele>
        <time>2021-11-21T10:09:17.801Z</time>
      </trkpt>
      <trkpt lat="47.568519" lon="7.976515">
        <ele>398.395964</ele>
        <time>2021-11-21T10:09:32.863Z</time>
      </trkpt>
      <trkpt lat="47.568748" lon="7.976336">
        <ele>401.075521</ele>
        <time>2021-11-21T10:09:48.228Z</time>
      </trkpt>
      <trkpt lat="47.568939" lon="7.976270">
        <ele>402.763521</ele>
        <time>2021-11-21T10:10:01.057Z</time>
      </trkpt>
      <trkpt lat="47.569048" lon="7.976403">
        <ele>403.978690</ele>
        <time>2021-11-21T10:10:09.010Z</time>
      </trkpt>
      <trkpt lat="47.568987" lon="7.976683">
        <ele>405.687332</ele>
        <time>2021-11-21T10:10:22.199Z</time>
      </trkpt>
      <trkpt lat="47.568973" lon="7.976701">
        <ele>405.846848</ele>
        <time>2021-11-21T10:10:23.159Z</time>
      </trkpt>
      <trkpt lat="47.568704" lon="7.977054">
        <ele>408.939174</ele>
        <time>2021-11-21T10:10:40.753Z</time>
      </trkpt>
      <trkpt lat="47.568631" lon="7.977178">
        <ele>409.894832</ele>
        <time>2021-11-21T10:10:43.478Z</time>
      </trkpt>
      <trkpt lat="47.568567" lon="7.977498">
        <ele>411.833032</ele>
        <time>2021-11-21T10:10:53.621Z</time>
      </trkpt>
      <trkpt lat="47.568118" lon="7.978684">
        <ele>418.071361</ele>
        <time>2021-11-21T10:11:24.792Z</time>
      </trkpt>
      <trkpt lat="47.568061" lon="7.979013">
        <ele>419.334197</ele>
        <time>2021-11-21T10:11:33.026Z</time>
      </trkpt>
      <trkpt lat="47.567985" lon="7.980685">
        <ele>425.609644</ele>
        <time>2021-11-21T10:12:16.248Z</time>
      </trkpt>
      <trkpt lat="47.567933" lon="7.980942">
        <ele>426.691531</ele>
        <time>2021-11-21T10:12:23.126Z</time>
      </trkpt>
      <trkpt lat="47.567665" lon="7.981438">
        <ele>429.253812</ele>
        <time>2021-11-21T10:12:39.342Z</time>
      </trkpt>
      <trkpt lat="47.567624" lon="7.981800">
        <ele>430.733925</ele>
        <time>2021-11-21T10:12:48.722Z</time>
      </trkpt>
      <trkpt lat="47.567696" lon="7.982527">
        <ele>433.696813</ele>
        <time>2021-11-21T10:13:07.813Z</time>
      </trkpt>
      <trkpt lat="47.567683" lon="7.983121">
        <ele>436.226122</ele>
        <time>2021-11-21T10:13:23.812Z</time>
      </trkpt>
      <trkpt lat="47.567590" lon="7.984165">
        <ele>442.269215</ele>
        <time>2021-11-21T10:13:52.965Z</time>
      </trkpt>
      <trkpt lat="47.567629" lon="7.984321">
        <ele>443.223914</ele>
        <time>2021-11-21T10:13:57.751Z</time>
      </trkpt>
      <trkpt lat="47.568880" lon="7.985270">
        <ele>457.098166</ele>
        <time>2021-11-21T10:15:16.724Z</time>
      </trkpt>
      <trkpt lat="47.569224" lon="7.985557">
        <ele>462.029368</ele>
        <time>2021-11-21T10:15:43.468Z</time>
      </trkpt>
      <trkpt lat="47.569441" lon="7.985823">
        <ele>465.547047</ele>
        <time>2021-11-21T10:16:01.584Z</time>
      </trkpt>
      <trkpt lat="47.569544" lon="7.985948">
        <ele>467.209989</ele>
        <time>2021-11-21T10:16:12.163Z</time>
      </trkpt>
      <trkpt lat="47.569720" lon="7.986239">
        <ele>470.503741</ele>
        <time>2021-11-21T10:16:29.590Z</time>
      </trkpt>
      <trkpt lat="47.569899" lon="7.986324">
        <ele>472.851726</ele>
        <time>2021-11-21T10:16:42.880Z</time>
      </trkpt>
      <trkpt lat="47.570188" lon="7.985852">
        <ele>477.923635</ele>
        <time>2021-11-21T10:17:12.272Z</time>
      </trkpt>
      <trkpt lat="47.570598" lon="7.985658">
        <ele>482.955121</ele>
        <time>2021-11-21T10:17:43.272Z</time>
      </trkpt>
      <trkpt lat="47.571104" lon="7.985841">
        <ele>489.044138</ele>
        <time>2021-11-21T10:18:17.701Z</time>
      </trkpt>
      <trkpt lat="47.571694" lon="7.985779">
        <ele>495.051087</ele>
        <time>2021-11-21T10:18:45.435Z</time>
      </trkpt>
      <trkpt lat="47.571967" lon="7.986077">
        <ele>496.419160</ele>
        <time>2021-11-21T10:18:59.540Z</time>
      </trkpt>
      <trkpt lat="47.572042" lon="7.986160">
        <ele>496.796839</ele>
        <time>2021-11-21T10:19:03.684Z</time>
      </trkpt>
      <trkpt lat="47.571904" lon="7.986414">
        <ele>497.684651</ele>
        <time>2021-11-21T10:19:10.624Z</time>
      </trkpt>
      <trkpt lat="47.571740" lon="7.986534">
        <ele>498.422650</ele>
        <time>2021-11-21T10:19:16.583Z</time>
      </trkpt>
      <trkpt lat="47.571515" lon="7.986697">
        <ele>499.433188</ele>
        <time>2021-11-21T10:19:23.017Z</time>
      </trkpt>
      <trkpt lat="47.571268" lon="7.987105">
        <ele>500.925522</ele>
        <time>2021-11-21T10:19:31.643Z</time>
      </trkpt>
      <trkpt lat="47.571168" lon="7.987874">
        <ele>501.646212</ele>
        <time>2021-11-21T10:19:40.301Z</time>
      </trkpt>
      <trkpt lat="47.571180" lon="7.987989">
        <ele>501.598697</ele>
        <time>2021-11-21T10:19:41.125Z</time>
      </trkpt>
      <trkpt lat="47.571208" lon="7.988246">
        <ele>501.492401</ele>
        <time>2021-11-21T10:19:43.127Z</time>
      </trkpt>
      <trkpt lat="47.571580" lon="7.989167">
        <ele>501.054102</ele>
        <time>2021-11-21T10:19:51.695Z</time>
      </trkpt>
      <trkpt lat="47.571711" lon="7.989669">
        <ele>500.834330</ele>
        <time>2021-11-21T10:19:56.155Z</time>
      </trkpt>
      <trkpt lat="47.571710" lon="7.989958">
        <ele>500.750179</ele>
        <time>2021-11-21T10:19:58.574Z</time>
      </trkpt>
      <trkpt lat="47.571712" lon="7.990384">
        <ele>500.807968</ele>
        <time>2021-11-21T10:20:02.468Z</time>
      </trkpt>
      <trkpt lat="47.571883" lon="7.992565">
        <ele>501.103351</ele>
        <time>2021-11-21T10:20:27.413Z</time>
      </trkpt>
      <trkpt lat="47.571990" lon="7.993258">
        <ele>501.101950</ele>
        <time>2021-11-21T10:20:35.476Z</time>
      </trkpt>
      <trkpt lat="47.572062" lon="7.993506">
        <ele>501.101418</ele>
        <time>2021-11-21T10:20:38.522Z</time>
      </trkpt>
      <trkpt lat="47.572207" lon="7.993915">
        <ele>501.100507</ele>
        <time>2021-11-21T10:20:43.203Z</time>
      </trkpt>
      <trkpt lat="47.572249" lon="7.994022">
        <ele>501.100264</ele>
        <time>2021-11-21T10:20:44.454Z</time>
      </trkpt>
      <trkpt lat="47.572368" lon="7.994372">
        <ele>501.099491</ele>
        <time>2021-11-21T10:20:48.170Z</time>
      </trkpt>
      <trkpt lat="47.572460" lon="7.995058">
        <ele>501.088521</ele>
        <time>2021-11-21T10:20:54.539Z</time>
      </trkpt>
      <trkpt lat="47.572468" lon="7.995163">
        <ele>500.987269</ele>
        <time>2021-11-21T10:20:55.450Z</time>
      </trkpt>
      <trkpt lat="47.572559" lon="7.996184">
        <ele>500.000437</ele>
        <time>2021-11-21T10:21:04.030Z</time>
      </trkpt>
      <trkpt lat="47.572807" lon="7.998270">
        <ele>497.627297</ele>
        <time>2021-11-21T10:21:19.955Z</time>
      </trkpt>
      <trkpt lat="47.572796" lon="7.998352">
        <ele>497.499134</ele>
        <time>2021-11-21T10:21:20.512Z</time>
      </trkpt>
      <trkpt lat="47.572763" lon="7.998535">
        <ele>497.208755</ele>
        <time>2021-11-21T10:21:21.771Z</time>
      </trkpt>
      <trkpt lat="47.572708" lon="7.998779">
        <ele>496.814390</ele>
        <time>2021-11-21T10:21:23.755Z</time>
      </trkpt>
      <trkpt lat="47.572664" lon="7.998959">
        <ele>496.520904</ele>
        <time>2021-11-21T10:21:25.029Z</time>
      </trkpt>
      <trkpt lat="47.572701" lon="7.999118">
        <ele>496.263072</ele>
        <time>2021-11-21T10:21:26.178Z</time>
      </trkpt>
      <trkpt lat="47.572737" lon="7.999234">
        <ele>496.067337</ele>
        <time>2021-11-21T10:21:27.278Z</time>
      </trkpt>
      <trkpt lat="47.572684" lon="7.999259">
        <ele>495.940959</ele>
        <time>2021-11-21T10:21:27.869Z</time>
      </trkpt>
      <trkpt lat="47.572623" lon="7.999326">
        <ele>495.768448</ele>
        <time>2021-11-21T10:21:28.637Z</time>
      </trkpt>
      <trkpt lat="47.572588" lon="7.999397">
        <ele>495.633649</ele>
        <time>2021-11-21T10:21:29.202Z</time>
      </trkpt>
      <trkpt lat="47.572560" lon="7.999471">
        <ele>495.503587</ele>
        <time>2021-11-21T10:21:29.803Z</time>
      </trkpt>
      <trkpt lat="47.572543" lon="7.999708">
        <ele>495.138228</ele>
        <time>2021-11-21T10:21:31.720Z</time>
      </trkpt>
      <trkpt lat="47.572611" lon="8.000059">
        <ele>494.578414</ele>
        <time>2021-11-21T10:21:34.294Z</time>
      </trkpt>
      <trkpt lat="47.572662" lon="8.000300">
        <ele>494.387782</ele>
        <time>2021-11-21T10:21:36.313Z</time>
      </trkpt>
      <trkpt lat="47.572747" lon="8.000534">
        <ele>494.282088</ele>
        <time>2021-11-21T10:21:38.199Z</time>
      </trkpt>
      <trkpt lat="47.572824" lon="8.000753">
        <ele>494.183872</ele>
        <time>2021-11-21T10:21:40.518Z</time>
      </trkpt>
      <trkpt lat="47.572887" lon="8.000996">
        <ele>494.080340</ele>
        <time>2021-11-21T10:21:42.413Z</time>
      </trkpt>
      <trkpt lat="47.572935" lon="8.001208">
        <ele>493.991406</ele>
        <time>2021-11-21T10:21:44.487Z</time>
      </trkpt>
      <trkpt lat="47.572943" lon="8.001367">
        <ele>493.927995</ele>
        <time>2021-11-21T10:21:45.699Z</time>
      </trkpt>
      <trkpt lat="47.572940" lon="8.001742">
        <ele>493.778846</ele>
        <time>2021-11-21T10:21:49.295Z</time>
      </trkpt>
      <trkpt lat="47.572938" lon="8.001919">
        <ele>493.708443</ele>
        <time>2021-11-21T10:21:50.689Z</time>
      </trkpt>
      <trkpt lat="47.573026" lon="8.001932">
        <ele>493.656311</ele>
        <time>2021-11-21T10:21:51.694Z</time>
      </trkpt>
      <trkpt lat="47.573126" lon="8.002031">
        <ele>493.585422</ele>
        <time>2021-11-21T10:21:54.041Z</time>
      </trkpt>
      <trkpt lat="47.573400" lon="8.002344">
        <ele>493.442796</ele>
        <time>2021-11-21T10:21:59.925Z</time>
      </trkpt>
      <trkpt lat="47.573502" lon="8.002634">
        <ele>493.849498</ele>
        <time>2021-11-21T10:22:04.423Z</time>
      </trkpt>
      <trkpt lat="47.573643" lon="8.002920">
        <ele>494.290000</ele>
        <time>2021-11-21T10:22:10.574Z</time>
      </trkpt>
      <trkpt lat="47.573679" lon="8.003065">
        <ele>494.482138</ele>
        <time>2021-11-21T10:22:12.776Z</time>
      </trkpt>
      <trkpt lat="47.573718" lon="8.003157">
        <ele>494.617257</ele>
        <time>2021-11-21T10:22:14.790Z</time>
      </trkpt>
      <trkpt lat="47.573800" lon="8.003256">
        <ele>494.812199</ele>
        <time>2021-11-21T10:22:18.029Z</time>
      </trkpt>
      <trkpt lat="47.574217" lon="8.003704">
        <ele>495.761512</ele>
        <time>2021-11-21T10:22:29.618Z</time>
      </trkpt>
      <trkpt lat="47.574305" lon="8.003732">
        <ele>495.927416</ele>
        <time>2021-11-21T10:22:31.888Z</time>
      </trkpt>
      <trkpt lat="47.574392" lon="8.003728">
        <ele>496.087859</ele>
        <time>2021-11-21T10:22:34.561Z</time>
      </trkpt>
      <trkpt lat="47.574686" lon="8.003684">
        <ele>496.632540</ele>
        <time>2021-11-21T10:22:40.676Z</time>
      </trkpt>
      <trkpt lat="47.574764" lon="8.003762">
        <ele>496.680084</ele>
        <time>2021-11-21T10:22:43.167Z</time>
      </trkpt>
      <trkpt lat="47.575168" lon="8.004892">
        <ele>496.145301</ele>
        <time>2021-11-21T10:22:58.957Z</time>
      </trkpt>
      <trkpt lat="47.575411" lon="8.005256">
        <ele>495.931162</ele>
        <time>2021-11-21T10:23:03.635Z</time>
      </trkpt>
      <trkpt lat="47.575508" lon="8.005404">
        <ele>495.844876</ele>
        <time>2021-11-21T10:23:05.189Z</time>
      </trkpt>
      <trkpt lat="47.575531" lon="8.005431">
        <ele>495.826690</ele>
        <time>2021-11-21T10:23:05.482Z</time>
      </trkpt>
      <trkpt lat="47.575756" lon="8.005585">
        <ele>495.673075</ele>
        <time>2021-11-21T10:23:08.028Z</time>
      </trkpt>
      <trkpt lat="47.575892" lon="8.005591">
        <ele>495.531479</ele>
        <time>2021-11-21T10:23:09.382Z</time>
      </trkpt>
      <trkpt lat="47.576902" lon="8.005070">
        <ele>490.204545</ele>
        <time>2021-11-21T10:23:19.452Z</time>
      </trkpt>
      <trkpt lat="47.577375" lon="8.004938">
        <ele>487.807048</ele>
        <time>2021-11-21T10:23:23.860Z</time>
      </trkpt>
      <trkpt lat="47.577792" lon="8.005044">
        <ele>486.133037</ele>
        <time>2021-11-21T10:23:27.761Z</time>
      </trkpt>
      <trkpt lat="47.578086" lon="8.005441">
        <ele>485.067604</ele>
        <time>2021-11-21T10:23:31.552Z</time>
      </trkpt>
      <trkpt lat="47.578325" lon="8.005530">
        <ele>484.407420</ele>
        <time>2021-11-21T10:23:33.995Z</time>
      </trkpt>
      <trkpt lat="47.578736" lon="8.005500">
        <ele>483.304999</ele>
        <time>2021-11-21T10:23:38.373Z</time>
      </trkpt>
      <trkpt lat="47.579228" lon="8.005324">
        <ele>481.949077</ele>
        <time>2021-11-21T10:23:44.980Z</time>
      </trkpt>
      <trkpt lat="47.579909" lon="8.004868">
        <ele>482.130404</ele>
        <time>2021-11-21T10:23:59.878Z</time>
      </trkpt>
      <trkpt lat="47.580305" lon="8.004384">
        <ele>482.359298</ele>
        <time>2021-11-21T10:24:11.401Z</time>
      </trkpt>
      <trkpt lat="47.580693" lon="8.003731">
        <ele>482.619854</ele>
        <time>2021-11-21T10:24:20.989Z</time>
      </trkpt>
      <trkpt lat="47.581433" lon="8.002768">
        <ele>477.575644</ele>
        <time>2021-11-21T10:24:30.971Z</time>
      </trkpt>
      <trkpt lat="47.581538" lon="8.002492">
        <ele>476.480694</ele>
        <time>2021-11-21T10:24:32.897Z</time>
      </trkpt>
      <trkpt lat="47.581587" lon="8.002199">
        <ele>475.437577</ele>
        <time>2021-11-21T10:24:34.750Z</time>
      </trkpt>
      <trkpt lat="47.581843" lon="8.001622">
        <ele>472.940753</ele>
        <time>2021-11-21T10:24:38.766Z</time>
      </trkpt>
      <trkpt lat="47.582003" lon="8.001392">
        <ele>471.444959</ele>
        <time>2021-11-21T10:24:40.681Z</time>
      </trkpt>
      <trkpt lat="47.582718" lon="8.001131">
        <ele>466.502821</ele>
        <time>2021-11-21T10:24:47.081Z</time>
      </trkpt>
      <trkpt lat="47.582884" lon="8.001201">
        <ele>465.344499</ele>
        <time>2021-11-21T10:24:48.792Z</time>
      </trkpt>
      <trkpt lat="47.583038" lon="8.001422">
        <ele>463.905992</ele>
        <time>2021-11-21T10:24:50.674Z</time>
      </trkpt>
      <trkpt lat="47.583129" lon="8.001600">
        <ele>462.894862</ele>
        <time>2021-11-21T10:24:54.093Z</time>
      </trkpt>
      <trkpt lat="47.583138" lon="8.001749">
        <ele>462.217622</ele>
        <time>2021-11-21T10:24:54.997Z</time>
      </trkpt>
      <trkpt lat="47.582770" lon="8.002301">
        <ele>462.175684</ele>
        <time>2021-11-21T10:25:00.670Z</time>
      </trkpt>
      <trkpt lat="47.582722" lon="8.002476">
        <ele>462.448903</ele>
        <time>2021-11-21T10:25:03.975Z</time>
      </trkpt>
      <trkpt lat="47.582735" lon="8.002783">
        <ele>462.893778</ele>
        <time>2021-11-21T10:25:06.152Z</time>
      </trkpt>
      <trkpt lat="47.582779" lon="8.003036">
        <ele>463.271647</ele>
        <time>2021-11-21T10:25:11.600Z</time>
      </trkpt>
      <trkpt lat="47.582789" lon="8.003167">
        <ele>463.462316</ele>
        <time>2021-11-21T10:25:12.528Z</time>
      </trkpt>
      <trkpt lat="47.582781" lon="8.003305">
        <ele>463.662635</ele>
        <time>2021-11-21T10:25:14.552Z</time>
      </trkpt>
      <trkpt lat="47.582727" lon="8.003464">
        <ele>463.920093</ele>
        <time>2021-11-21T10:25:20.851Z</time>
      </trkpt>
      <trkpt lat="47.582604" lon="8.004164">
        <ele>464.966260</ele>
        <time>2021-11-21T10:25:38.558Z</time>
      </trkpt>
      <trkpt lat="47.582510" lon="8.004377">
        <ele>465.705342</ele>
        <time>2021-11-21T10:25:45.849Z</time>
      </trkpt>
      <trkpt lat="47.582188" lon="8.004718">
        <ele>468.758629</ele>
        <time>2021-11-21T10:26:03.415Z</time>
      </trkpt>
      <trkpt lat="47.581764" lon="8.005054">
        <ele>472.468214</ele>
        <time>2021-11-21T10:26:25.218Z</time>
      </trkpt>
      <trkpt lat="47.581321" lon="8.006142">
        <ele>479.083635</ele>
        <time>2021-11-21T10:27:05.166Z</time>
      </trkpt>
      <trkpt lat="47.581140" lon="8.006991">
        <ele>484.109642</ele>
        <time>2021-11-21T10:27:37.200Z</time>
      </trkpt>
      <trkpt lat="47.580912" lon="8.007336">
        <ele>486.835944</ele>
        <time>2021-11-21T10:27:54.427Z</time>
      </trkpt>
      <trkpt lat="47.579923" lon="8.008040">
        <ele>495.107583</ele>
        <time>2021-11-21T10:28:45.484Z</time>
      </trkpt>
      <trkpt lat="47.579619" lon="8.008172">
        <ele>496.487096</ele>
        <time>2021-11-21T10:28:57.618Z</time>
      </trkpt>
      <trkpt lat="47.578864" lon="8.008842">
        <ele>500.319155</ele>
        <time>2021-11-21T10:29:24.553Z</time>
      </trkpt>
      <trkpt lat="47.578332" lon="8.009223">
        <ele>502.146092</ele>
        <time>2021-11-21T10:29:37.722Z</time>
      </trkpt>
      <trkpt lat="47.578269" lon="8.009376">
        <ele>502.253913</ele>
        <time>2021-11-21T10:29:40.157Z</time>
      </trkpt>
      <trkpt lat="47.578275" lon="8.009410">
        <ele>502.275053</ele>
        <time>2021-11-21T10:29:40.367Z</time>
      </trkpt>
      <trkpt lat="47.578339" lon="8.009582">
        <ele>502.393208</ele>
        <time>2021-11-21T10:29:43.354Z</time>
      </trkpt>
      <trkpt lat="47.578506" lon="8.009815">
        <ele>502.597699</ele>
        <time>2021-11-21T10:29:46.943Z</time>
      </trkpt>
      <trkpt lat="47.578802" lon="8.010247">
        <ele>502.968083</ele>
        <time>2021-11-21T10:29:54.297Z</time>
      </trkpt>
      <trkpt lat="47.578877" lon="8.010552">
        <ele>503.163350</ele>
        <time>2021-11-21T10:29:58.354Z</time>
      </trkpt>
      <trkpt lat="47.578994" lon="8.011565">
        <ele>503.684705</ele>
        <time>2021-11-21T10:30:09.589Z</time>
      </trkpt>
      <trkpt lat="47.579083" lon="8.012800">
        <ele>504.108437</ele>
        <time>2021-11-21T10:30:23.216Z</time>
      </trkpt>
      <trkpt lat="47.579303" lon="8.013994">
        <ele>504.477177</ele>
        <time>2021-11-21T10:30:37.959Z</time>
      </trkpt>
      <trkpt lat="47.579390" lon="8.014221">
        <ele>504.490856</ele>
        <time>2021-11-21T10:30:40.513Z</time>
      </trkpt>
      <trkpt lat="47.579476" lon="8.014445">
        <ele>504.504359</ele>
        <time>2021-11-21T10:30:44.060Z</time>
      </trkpt>
      <trkpt lat="47.579677" lon="8.015285">
        <ele>504.551056</ele>
        <time>2021-11-21T10:30:53.690Z</time>
      </trkpt>
      <trkpt lat="47.579693" lon="8.015395">
        <ele>504.556951</ele>
        <time>2021-11-21T10:30:55.353Z</time>
      </trkpt>
      <trkpt lat="47.579782" lon="8.016013">
        <ele>504.590059</ele>
        <time>2021-11-21T10:31:00.954Z</time>
      </trkpt>
      <trkpt lat="47.579807" lon="8.016479">
        <ele>504.624715</ele>
        <time>2021-11-21T10:31:04.758Z</time>
      </trkpt>
      <trkpt lat="47.579770" lon="8.017313">
        <ele>504.728742</ele>
        <time>2021-11-21T10:31:11.744Z</time>
      </trkpt>
      <trkpt lat="47.579800" lon="8.017631">
        <ele>504.768706</ele>
        <time>2021-11-21T10:31:16.445Z</time>
      </trkpt>
      <trkpt lat="47.579827" lon="8.017916">
        <ele>504.804527</ele>
        <time>2021-11-21T10:31:19.081Z</time>
      </trkpt>
      <trkpt lat="47.579890" lon="8.018812">
        <ele>504.916650</ele>
        <time>2021-11-21T10:31:30.790Z</time>
      </trkpt>
      <trkpt lat="47.579943" lon="8.018927">
        <ele>504.933985</ele>
        <time>2021-11-21T10:31:31.937Z</time>
      </trkpt>
      <trkpt lat="47.580093" lon="8.019071">
        <ele>505.166755</ele>
        <time>2021-11-21T10:31:35.923Z</time>
      </trkpt>
      <trkpt lat="47.580282" lon="8.019086">
        <ele>505.451515</ele>
        <time>2021-11-21T10:31:38.313Z</time>
      </trkpt>
      <trkpt lat="47.580628" lon="8.018939">
        <ele>505.993031</ele>
        <time>2021-11-21T10:31:44.605Z</time>
      </trkpt>
      <trkpt lat="47.580782" lon="8.018916">
        <ele>506.225898</ele>
        <time>2021-11-21T10:31:49.241Z</time>
      </trkpt>
      <trkpt lat="47.580830" lon="8.018918">
        <ele>506.298143</ele>
        <time>2021-11-21T10:31:50.743Z</time>
      </trkpt>
      <trkpt lat="47.580916" lon="8.019035">
        <ele>506.473756</ele>
        <time>2021-11-21T10:31:53.133Z</time>
      </trkpt>
      <trkpt lat="47.580948" lon="8.019213">
        <ele>506.660708</ele>
        <time>2021-11-21T10:31:57.077Z</time>
      </trkpt>
      <trkpt lat="47.580955" lon="8.019317">
        <ele>506.766778</ele>
        <time>2021-11-21T10:31:59.205Z</time>
      </trkpt>
      <trkpt lat="47.581039" lon="8.019934">
        <ele>507.405574</ele>
        <time>2021-11-21T10:32:19.406Z</time>
      </trkpt>
      <trkpt lat="47.581122" lon="8.020572">
        <ele>508.162288</ele>
        <time>2021-11-21T10:32:38.933Z</time>
      </trkpt>
      <trkpt lat="47.581460" lon="8.022287">
        <ele>510.395730</ele>
        <time>2021-11-21T10:33:30.801Z</time>
      </trkpt>
      <trkpt lat="47.581487" lon="8.022614">
        <ele>510.807541</ele>
        <time>2021-11-21T10:33:40.876Z</time>
      </trkpt>
      <trkpt lat="47.581513" lon="8.022860">
        <ele>511.215733</ele>
        <time>2021-11-21T10:33:45.956Z</time>
      </trkpt>
      <trkpt lat="47.581748" lon="8.024404">
        <ele>514.559075</ele>
        <time>2021-11-21T10:34:19.125Z</time>
      </trkpt>
      <trkpt lat="47.581899" lon="8.025089">
        <ele>516.081281</ele>
        <time>2021-11-21T10:34:36.413Z</time>
      </trkpt>
      <trkpt lat="47.582058" lon="8.025575">
        <ele>517.546052</ele>
        <time>2021-11-21T10:34:49.840Z</time>
      </trkpt>
      <trkpt lat="47.582102" lon="8.025700">
        <ele>518.001565</ele>
        <time>2021-11-21T10:34:54.238Z</time>
      </trkpt>
      <trkpt lat="47.582199" lon="8.025829">
        <ele>518.625682</ele>
        <time>2021-11-21T10:34:58.345Z</time>
      </trkpt>
      <trkpt lat="47.582289" lon="8.025933">
        <ele>519.172213</ele>
        <time>2021-11-21T10:35:01.994Z</time>
      </trkpt>
      <trkpt lat="47.582388" lon="8.025991">
        <ele>519.682054</ele>
        <time>2021-11-21T10:35:07.183Z</time>
      </trkpt>
      <trkpt lat="47.582723" lon="8.026030">
        <ele>521.291474</ele>
        <time>2021-11-21T10:35:20.066Z</time>
      </trkpt>
      <trkpt lat="47.582993" lon="8.025956">
        <ele>522.606549</ele>
        <time>2021-11-21T10:35:29.709Z</time>
      </trkpt>
      <trkpt lat="47.583073" lon="8.025933">
        <ele>522.996847</ele>
        <time>2021-11-21T10:35:33.691Z</time>
      </trkpt>
      <trkpt lat="47.583464" lon="8.025921">
        <ele>524.869940</ele>
        <time>2021-11-21T10:35:50.415Z</time>
      </trkpt>
      <trkpt lat="47.583871" lon="8.026235">
        <ele>527.281369</ele>
        <time>2021-11-21T10:36:10.525Z</time>
      </trkpt>
      <trkpt lat="47.583918" lon="8.026237">
        <ele>527.532723</ele>
        <time>2021-11-21T10:36:13.436Z</time>
      </trkpt>
      <trkpt lat="47.583982" lon="8.026498">
        <ele>528.534087</ele>
        <time>2021-11-21T10:36:20.694Z</time>
      </trkpt>
      <trkpt lat="47.584046" lon="8.026676">
        <ele>529.261405</ele>
        <time>2021-11-21T10:36:26.589Z</time>
      </trkpt>
      <trkpt lat="47.584080" lon="8.026751">
        <ele>529.587240</ele>
        <time>2021-11-21T10:36:29.789Z</time>
      </trkpt>
      <trkpt lat="47.584134" lon="8.026675">
        <ele>529.985270</ele>
        <time>2021-11-21T10:36:32.605Z</time>
      </trkpt>
      <trkpt lat="47.584228" lon="8.026533">
        <ele>530.702674</ele>
        <time>2021-11-21T10:36:37.784Z</time>
      </trkpt>
      <trkpt lat="47.584244" lon="8.026509">
        <ele>530.824348</ele>
        <time>2021-11-21T10:36:38.761Z</time>
      </trkpt>
      <trkpt lat="47.584323" lon="8.026391">
        <ele>531.423832</ele>
        <time>2021-11-21T10:36:44.354Z</time>
      </trkpt>
      <trkpt lat="47.585609" lon="8.024292">
        <ele>540.776069</ele>
        <time>2021-11-21T10:37:58.681Z</time>
      </trkpt>
      <trkpt lat="47.586233" lon="8.023109">
        <ele>545.338003</ele>
        <time>2021-11-21T10:38:37.923Z</time>
      </trkpt>
      <trkpt lat="47.586478" lon="8.022754">
        <ele>546.822882</ele>
        <time>2021-11-21T10:38:51.000Z</time>
      </trkpt>
      <trkpt lat="47.586795" lon="8.022396">
        <ele>548.550124</ele>
        <time>2021-11-21T10:39:05.787Z</time>
      </trkpt>
      <trkpt lat="47.587072" lon="8.021950">
        <ele>550.322596</ele>
        <time>2021-11-21T10:39:20.845Z</time>
      </trkpt>
      <trkpt lat="47.587257" lon="8.021642">
        <ele>551.547079</ele>
        <time>2021-11-21T10:39:31.011Z</time>
      </trkpt>
      <trkpt lat="47.587557" lon="8.021107">
        <ele>553.656067</ele>
        <time>2021-11-21T10:39:47.874Z</time>
      </trkpt>
      <trkpt lat="47.587801" lon="8.021555">
        <ele>555.401541</ele>
        <time>2021-11-21T10:40:01.048Z</time>
      </trkpt>
      <trkpt lat="47.587981" lon="8.021848">
        <ele>556.602889</ele>
        <time>2021-11-21T10:40:09.912Z</time>
      </trkpt>
      <trkpt lat="47.588224" lon="8.022086">
        <ele>557.911768</ele>
        <time>2021-11-21T10:40:22.739Z</time>
      </trkpt>
      <trkpt lat="47.588772" lon="8.022285">
        <ele>561.524038</ele>
        <time>2021-11-21T10:40:47.760Z</time>
      </trkpt>
      <trkpt lat="47.588947" lon="8.022297">
        <ele>562.942020</ele>
        <time>2021-11-21T10:40:56.217Z</time>
      </trkpt>
      <trkpt lat="47.589256" lon="8.022150">
        <ele>565.568681</ele>
        <time>2021-11-21T10:41:11.802Z</time>
      </trkpt>
      <trkpt lat="47.589392" lon="8.022010">
        <ele>566.908773</ele>
        <time>2021-11-21T10:41:18.704Z</time>
      </trkpt>
      <trkpt lat="47.589430" lon="8.021956">
        <ele>567.334802</ele>
        <time>2021-11-21T10:41:22.354Z</time>
      </trkpt>
      <trkpt lat="47.589615" lon="8.021880">
        <ele>568.888623</ele>
        <time>2021-11-21T10:41:32.359Z</time>
      </trkpt>
      <trkpt lat="47.589743" lon="8.021890">
        <ele>569.926105</ele>
        <time>2021-11-21T10:41:40.642Z</time>
      </trkpt>
      <trkpt lat="47.589748" lon="8.021891">
        <ele>569.966942</ele>
        <time>2021-11-21T10:41:41.260Z</time>
      </trkpt>
      <trkpt lat="47.590116" lon="8.022103">
        <ele>573.162494</ele>
        <time>2021-11-21T10:42:06.627Z</time>
      </trkpt>
      <trkpt lat="47.590395" lon="8.022117">
        <ele>575.626594</ele>
        <time>2021-11-21T10:42:22.285Z</time>
      </trkpt>
      <trkpt lat="47.590755" lon="8.022031">
        <ele>578.921007</ele>
        <time>2021-11-21T10:42:46.341Z</time>
      </trkpt>
      <trkpt lat="47.591072" lon="8.022076">
        <ele>581.798085</ele>
        <time>2021-11-21T10:43:05.680Z</time>
      </trkpt>
      <trkpt lat="47.591115" lon="8.022129">
        <ele>582.303269</ele>
        <time>2021-11-21T10:43:10.867Z</time>
      </trkpt>
      <trkpt lat="47.591140" lon="8.022229">
        <ele>582.953097</ele>
        <time>2021-11-21T10:43:16.266Z</time>
      </trkpt>
      <trkpt lat="47.591210" lon="8.023119">
        <ele>588.412717</ele>
        <time>2021-11-21T10:43:42.854Z</time>
      </trkpt>
      <trkpt lat="47.591205" lon="8.023265">
        <ele>589.303457</ele>
        <time>2021-11-21T10:43:50.595Z</time>
      </trkpt>
      <trkpt lat="47.591738" lon="8.023957">
        <ele>592.757614</ele>
        <time>2021-11-21T10:44:20.840Z</time>
      </trkpt>
      <trkpt lat="47.592067" lon="8.024331">
        <ele>594.597800</ele>
        <time>2021-11-21T10:44:34.523Z</time>
      </trkpt>
      <trkpt lat="47.592360" lon="8.024239">
        <ele>595.927234</ele>
        <time>2021-11-21T10:44:44.861Z</time>
      </trkpt>
      <trkpt lat="47.592875" lon="8.023855">
        <ele>598.524571</ele>
        <time>2021-11-21T10:45:02.082Z</time>
      </trkpt>
      <trkpt lat="47.593000" lon="8.023757">
        <ele>599.193217</ele>
        <time>2021-11-21T10:45:07.961Z</time>
      </trkpt>
      <trkpt lat="47.594098" lon="8.023267">
        <ele>604.615565</ele>
        <time>2021-11-21T10:45:54.988Z</time>
      </trkpt>
      <trkpt lat="47.594377" lon="8.023068">
        <ele>606.079613</ele>
        <time>2021-11-21T10:46:08.510Z</time>
      </trkpt>
      <trkpt lat="47.594831" lon="8.022718">
        <ele>607.751533</ele>
        <time>2021-11-21T10:46:28.300Z</time>
      </trkpt>
      <trkpt lat="47.595091" lon="8.022990">
        <ele>608.719898</ele>
        <time>2021-11-21T10:46:37.381Z</time>
      </trkpt>
      <trkpt lat="47.595671" lon="8.023213">
        <ele>610.543404</ele>
        <time>2021-11-21T10:46:52.810Z</time>
      </trkpt>
      <trkpt lat="47.596051" lon="8.023223">
        <ele>611.700056</ele>
        <time>2021-11-21T10:47:01.351Z</time>
      </trkpt>
      <trkpt lat="47.596148" lon="8.023345">
        <ele>611.948888</ele>
        <time>2021-11-21T10:47:03.703Z</time>
      </trkpt>
      <trkpt lat="47.596208" lon="8.023630">
        <ele>612.161883</ele>
        <time>2021-11-21T10:47:06.987Z</time>
      </trkpt>
      <trkpt lat="47.596116" lon="8.024152">
        <ele>612.546784</ele>
        <time>2021-11-21T10:47:12.894Z</time>
      </trkpt>
      <trkpt lat="47.596100" lon="8.024844">
        <ele>613.040744</ele>
        <time>2021-11-21T10:47:20.572Z</time>
      </trkpt>
      <trkpt lat="47.596129" lon="8.025134">
        <ele>613.249891</ele>
        <time>2021-11-21T10:47:24.235Z</time>
      </trkpt>
      <trkpt lat="47.596247" lon="8.025584">
        <ele>613.594335</ele>
        <time>2021-11-21T10:47:30.039Z</time>
      </trkpt>
      <trkpt lat="47.596374" lon="8.025833">
        <ele>613.916897</ele>
        <time>2021-11-21T10:47:34.754Z</time>
      </trkpt>
      <trkpt lat="47.596403" lon="8.026009">
        <ele>614.376580</ele>
        <time>2021-11-21T10:47:36.802Z</time>
      </trkpt>
      <trkpt lat="47.596391" lon="8.026066">
        <ele>614.528084</ele>
        <time>2021-11-21T10:47:38.173Z</time>
      </trkpt>
      <trkpt lat="47.596371" lon="8.026127">
        <ele>614.700176</ele>
        <time>2021-11-21T10:47:40.007Z</time>
      </trkpt>
      <trkpt lat="47.596351" lon="8.026188">
        <ele>614.872269</ele>
        <time>2021-11-21T10:47:41.503Z</time>
      </trkpt>
      <trkpt lat="47.596275" lon="8.026313">
        <ele>615.299292</ele>
        <time>2021-11-21T10:47:45.298Z</time>
      </trkpt>
      <trkpt lat="47.596214" lon="8.026449">
        <ele>615.713707</ele>
        <time>2021-11-21T10:47:48.698Z</time>
      </trkpt>
      <trkpt lat="47.596280" lon="8.026505">
        <ele>615.999803</ele>
        <time>2021-11-21T10:47:51.250Z</time>
      </trkpt>
      <trkpt lat="47.596433" lon="8.026770">
        <ele>616.884924</ele>
        <time>2021-11-21T10:47:58.161Z</time>
      </trkpt>
      <trkpt lat="47.596560" lon="8.027658">
        <ele>619.188060</ele>
        <time>2021-11-21T10:48:16.992Z</time>
      </trkpt>
      <trkpt lat="47.596702" lon="8.027901">
        <ele>620.003876</ele>
        <time>2021-11-21T10:48:23.847Z</time>
      </trkpt>
      <trkpt lat="47.596826" lon="8.027986">
        <ele>620.517851</ele>
        <time>2021-11-21T10:48:29.394Z</time>
      </trkpt>
      <trkpt lat="47.596954" lon="8.028045">
        <ele>621.346355</ele>
        <time>2021-11-21T10:48:33.959Z</time>
      </trkpt>
      <trkpt lat="47.597162" lon="8.027954">
        <ele>622.716949</ele>
        <time>2021-11-21T10:48:43.617Z</time>
      </trkpt>
      <trkpt lat="47.597667" lon="8.027380">
        <ele>626.738268</ele>
        <time>2021-11-21T10:49:09.106Z</time>
      </trkpt>
      <trkpt lat="47.597858" lon="8.027290">
        <ele>628.004878</ele>
        <time>2021-11-21T10:49:18.263Z</time>
      </trkpt>
      <trkpt lat="47.597967" lon="8.027239">
        <ele>628.727243</ele>
        <time>2021-11-21T10:49:22.084Z</time>
      </trkpt>
      <trkpt lat="47.598069" lon="8.027222">
        <ele>629.375950</ele>
        <time>2021-11-21T10:49:27.645Z</time>
      </trkpt>
      <trkpt lat="47.598361" lon="8.027263">
        <ele>631.229669</ele>
        <time>2021-11-21T10:49:39.464Z</time>
      </trkpt>
      <trkpt lat="47.598472" lon="8.027302">
        <ele>631.951463</ele>
        <time>2021-11-21T10:49:44.703Z</time>
      </trkpt>
      <trkpt lat="47.598821" lon="8.027385">
        <ele>634.235237</ele>
        <time>2021-11-21T10:49:58.159Z</time>
      </trkpt>
      <trkpt lat="47.599102" lon="8.027378">
        <ele>636.051094</ele>
        <time>2021-11-21T10:50:08.383Z</time>
      </trkpt>
      <trkpt lat="47.599389" lon="8.027316">
        <ele>637.925032</ele>
        <time>2021-11-21T10:50:18.787Z</time>
      </trkpt>
      <trkpt lat="47.599613" lon="8.027185">
        <ele>639.480816</ele>
        <time>2021-11-21T10:50:31.239Z</time>
      </trkpt>
      <trkpt lat="47.599844" lon="8.026999">
        <ele>641.179160</ele>
        <time>2021-11-21T10:50:41.119Z</time>
      </trkpt>
      <trkpt lat="47.600101" lon="8.026650">
        <ele>643.430686</ele>
        <time>2021-11-21T10:50:55.205Z</time>
      </trkpt>
      <trkpt lat="47.600516" lon="8.025753">
        <ele>648.591541</ele>
        <time>2021-11-21T10:51:25.965Z</time>
      </trkpt>
      <trkpt lat="47.600550" lon="8.025678">
        <ele>649.021069</ele>
        <time>2021-11-21T10:51:29.593Z</time>
      </trkpt>
      <trkpt lat="47.600581" lon="8.025609">
        <ele>649.415136</ele>
        <time>2021-11-21T10:51:33.312Z</time>
      </trkpt>
      <trkpt lat="47.601301" lon="8.024297">
        <ele>657.110981</ele>
        <time>2021-11-21T10:52:21.725Z</time>
      </trkpt>
      <trkpt lat="47.601427" lon="8.024003">
        <ele>658.308524</ele>
        <time>2021-11-21T10:52:31.264Z</time>
      </trkpt>
      <trkpt lat="47.601526" lon="8.023755">
        <ele>659.299266</ele>
        <time>2021-11-21T10:52:39.663Z</time>
      </trkpt>
      <trkpt lat="47.601889" lon="8.022433">
        <ele>664.206198</ele>
        <time>2021-11-21T10:53:10.069Z</time>
      </trkpt>
      <trkpt lat="47.602034" lon="8.021886">
        <ele>666.065819</ele>
        <time>2021-11-21T10:53:22.592Z</time>
      </trkpt>
      <trkpt lat="47.602462" lon="8.021174">
        <ele>668.720472</ele>
        <time>2021-11-21T10:53:42.055Z</time>
      </trkpt>
      <trkpt lat="47.602662" lon="8.020843">
        <ele>669.957411</ele>
        <time>2021-11-21T10:53:51.769Z</time>
      </trkpt>
      <trkpt lat="47.603104" lon="8.020091">
        <ele>672.733765</ele>
        <time>2021-11-21T10:54:13.906Z</time>
      </trkpt>
      <trkpt lat="47.603225" lon="8.019699">
        <ele>673.537228</ele>
        <time>2021-11-21T10:54:22.775Z</time>
      </trkpt>
      <trkpt lat="47.603538" lon="8.018606">
        <ele>675.680590</ele>
        <time>2021-11-21T10:54:45.151Z</time>
      </trkpt>
      <trkpt lat="47.603564" lon="8.018549">
        <ele>675.804803</ele>
        <time>2021-11-21T10:54:46.376Z</time>
      </trkpt>
      <trkpt lat="47.603949" lon="8.017906">
        <ele>677.356931</ele>
        <time>2021-11-21T10:54:59.657Z</time>
      </trkpt>
      <trkpt lat="47.604386" lon="8.017343">
        <ele>677.814445</ele>
        <time>2021-11-21T10:55:08.300Z</time>
      </trkpt>
      <trkpt lat="47.604931" lon="8.016761">
        <ele>678.085444</ele>
        <time>2021-11-21T10:55:18.058Z</time>
      </trkpt>
      <trkpt lat="47.605303" lon="8.016420">
        <ele>678.261912</ele>
        <time>2021-11-21T10:55:24.609Z</time>
      </trkpt>
      <trkpt lat="47.605349" lon="8.016390">
        <ele>678.282190</ele>
        <time>2021-11-21T10:55:25.386Z</time>
      </trkpt>
      <trkpt lat="47.605617" lon="8.016217">
        <ele>678.537705</ele>
        <time>2021-11-21T10:55:30.394Z</time>
      </trkpt>
      <trkpt lat="47.605788" lon="8.016160">
        <ele>678.789544</ele>
        <time>2021-11-21T10:55:33.798Z</time>
      </trkpt>
      <trkpt lat="47.607499" lon="8.015932">
        <ele>680.925844</ele>
        <time>2021-11-21T10:56:11.296Z</time>
      </trkpt>
      <trkpt lat="47.607936" lon="8.015773">
        <ele>680.915867</ele>
        <time>2021-11-21T10:56:20.070Z</time>
      </trkpt>
      <trkpt lat="47.607997" lon="8.015736">
        <ele>680.914405</ele>
        <time>2021-11-21T10:56:21.740Z</time>
      </trkpt>
      <trkpt lat="47.608546" lon="8.015408">
        <ele>680.901281</ele>
        <time>2021-11-21T10:56:31.439Z</time>
      </trkpt>
      <trkpt lat="47.608990" lon="8.015226">
        <ele>680.891067</ele>
        <time>2021-11-21T10:56:36.787Z</time>
      </trkpt>
      <trkpt lat="47.609093" lon="8.015216">
        <ele>680.400970</ele>
        <time>2021-11-21T10:56:37.835Z</time>
      </trkpt>
      <trkpt lat="47.609541" lon="8.015211">
        <ele>678.218278</ele>
        <time>2021-11-21T10:56:42.151Z</time>
      </trkpt>
      <trkpt lat="47.609987" lon="8.015356">
        <ele>675.993810</ele>
        <time>2021-11-21T10:56:46.322Z</time>
      </trkpt>
      <trkpt lat="47.610061" lon="8.015390">
        <ele>675.616387</ele>
        <time>2021-11-21T10:56:47.006Z</time>
      </trkpt>
      <trkpt lat="47.610254" lon="8.015477">
        <ele>674.633640</ele>
        <time>2021-11-21T10:56:48.859Z</time>
      </trkpt>
      <trkpt lat="47.611129" lon="8.015861">
        <ele>671.904843</ele>
        <time>2021-11-21T10:56:57.381Z</time>
      </trkpt>
      <trkpt lat="47.611516" lon="8.016031">
        <ele>671.678539</ele>
        <time>2021-11-21T10:57:01.454Z</time>
      </trkpt>
      <trkpt lat="47.611716" lon="8.016114">
        <ele>671.562094</ele>
        <time>2021-11-21T10:57:03.707Z</time>
      </trkpt>
      <trkpt lat="47.613333" lon="8.016808">
        <ele>675.388392</ele>
        <time>2021-11-21T10:57:54.584Z</time>
      </trkpt>
      <trkpt lat="47.613550" lon="8.016884">
        <ele>676.452806</ele>
        <time>2021-11-21T10:58:03.904Z</time>
      </trkpt>
      <trkpt lat="47.613763" lon="8.016931">
        <ele>677.480830</ele>
        <time>2021-11-21T10:58:12.439Z</time>
      </trkpt>
      <trkpt lat="47.614276" lon="8.016874">
        <ele>679.865581</ele>
        <time>2021-11-21T10:58:31.320Z</time>
      </trkpt>
      <trkpt lat="47.614450" lon="8.016786">
        <ele>680.472500</ele>
        <time>2021-11-21T10:58:37.757Z</time>
      </trkpt>
      <trkpt lat="47.614507" lon="8.016749">
        <ele>680.677911</ele>
        <time>2021-11-21T10:58:40.091Z</time>
      </trkpt>
      <trkpt lat="47.614952" lon="8.016327">
        <ele>682.421596</ele>
        <time>2021-11-21T10:58:56.698Z</time>
      </trkpt>
      <trkpt lat="47.615823" lon="8.015017">
        <ele>686.017991</ele>
        <time>2021-11-21T10:59:26.128Z</time>
      </trkpt>
      <trkpt lat="47.616313" lon="8.014507">
        <ele>686.864684</ele>
        <time>2021-11-21T10:59:36.966Z</time>
      </trkpt>
      <trkpt lat="47.616676" lon="8.014297">
        <ele>687.415816</ele>
        <time>2021-11-21T10:59:44.738Z</time>
      </trkpt>
      <trkpt lat="47.617120" lon="8.014238">
        <ele>688.046376</ele>
        <time>2021-11-21T10:59:53.925Z</time>
      </trkpt>
      <trkpt lat="47.617298" lon="8.014271">
        <ele>688.408235</ele>
        <time>2021-11-21T10:59:57.213Z</time>
      </trkpt>
      <trkpt lat="47.617593" lon="8.014382">
        <ele>689.255614</ele>
        <time>2021-11-21T11:00:03.660Z</time>
      </trkpt>
      <trkpt lat="47.617609" lon="8.014390">
        <ele>689.302625</ele>
        <time>2021-11-21T11:00:03.944Z</time>
      </trkpt>
      <trkpt lat="47.617879" lon="8.014526">
        <ele>690.096540</ele>
        <time>2021-11-21T11:00:10.365Z</time>
      </trkpt>
      <trkpt lat="47.618468" lon="8.014944">
        <ele>691.914482</ele>
        <time>2021-11-21T11:00:27.929Z</time>
      </trkpt>
      <trkpt lat="47.619151" lon="8.015995">
        <ele>695.235859</ele>
        <time>2021-11-21T11:00:58.913Z</time>
      </trkpt>
      <trkpt lat="47.619261" lon="8.016064">
        <ele>695.701000</ele>
        <time>2021-11-21T11:01:02.913Z</time>
      </trkpt>
      <trkpt lat="47.619394" lon="8.016117">
        <ele>696.237361</ele>
        <time>2021-11-21T11:01:07.385Z</time>
      </trkpt>
      <trkpt lat="47.619688" lon="8.016135">
        <ele>697.383386</ele>
        <time>2021-11-21T11:01:16.418Z</time>
      </trkpt>
      <trkpt lat="47.620051" lon="8.015912">
        <ele>698.913587</ele>
        <time>2021-11-21T11:01:28.386Z</time>
      </trkpt>
      <trkpt lat="47.620186" lon="8.015747">
        <ele>699.594822</ele>
        <time>2021-11-21T11:01:33.577Z</time>
      </trkpt>
      <trkpt lat="47.620328" lon="8.015989">
        <ele>700.336798</ele>
        <time>2021-11-21T11:01:40.041Z</time>
      </trkpt>
      <trkpt lat="47.620376" lon="8.016092">
        <ele>700.525454</ele>
        <time>2021-11-21T11:01:42.172Z</time>
      </trkpt>
      <trkpt lat="47.620455" lon="8.016265">
        <ele>700.840275</ele>
        <time>2021-11-21T11:01:46.332Z</time>
      </trkpt>
      <trkpt lat="47.620586" lon="8.016714">
        <ele>701.577381</ele>
        <time>2021-11-21T11:01:54.689Z</time>
      </trkpt>
      <trkpt lat="47.620751" lon="8.017244">
        <ele>702.456922</ele>
        <time>2021-11-21T11:02:03.085Z</time>
      </trkpt>
      <trkpt lat="47.621349" lon="8.019187">
        <ele>705.878822</ele>
        <time>2021-11-21T11:02:33.961Z</time>
      </trkpt>
      <trkpt lat="47.621390" lon="8.019390">
        <ele>706.242896</ele>
        <time>2021-11-21T11:02:37.547Z</time>
      </trkpt>
      <trkpt lat="47.621403" lon="8.019573">
        <ele>706.559031</ele>
        <time>2021-11-21T11:02:40.257Z</time>
      </trkpt>
      <trkpt lat="47.621413" lon="8.020151">
        <ele>707.552360</ele>
        <time>2021-11-21T11:02:49.411Z</time>
      </trkpt>
      <trkpt lat="47.621418" lon="8.020418">
        <ele>708.011242</ele>
        <time>2021-11-21T11:02:54.766Z</time>
      </trkpt>
      <trkpt lat="47.621415" lon="8.020855">
        <ele>708.762045</ele>
        <time>2021-11-21T11:03:02.959Z</time>
      </trkpt>
      <trkpt lat="47.621415" lon="8.020855">
        <ele>708.762045</ele>
        <time>2021-11-21T11:03:03.020Z</time>
      </trkpt>
      <trkpt lat="47.621400" lon="8.021174">
        <ele>709.840291</ele>
        <time>2021-11-21T11:03:10.224Z</time>
      </trkpt>
      <trkpt lat="47.621339" lon="8.021559">
        <ele>711.231311</ele>
        <time>2021-11-21T11:03:19.525Z</time>
      </trkpt>
      <trkpt lat="47.621234" lon="8.022131">
        <ele>713.316413</ele>
        <time>2021-11-21T11:03:33.461Z</time>
      </trkpt>
      <trkpt lat="47.621178" lon="8.022415">
        <ele>714.357159</ele>
        <time>2021-11-21T11:03:40.180Z</time>
      </trkpt>
      <trkpt lat="47.621155" lon="8.022607">
        <ele>715.043041</ele>
        <time>2021-11-21T11:03:45.889Z</time>
      </trkpt>
      <trkpt lat="47.621131" lon="8.023509">
        <ele>718.229503</ele>
        <time>2021-11-21T11:04:08.546Z</time>
      </trkpt>
      <trkpt lat="47.621327" lon="8.024700">
        <ele>724.445104</ele>
        <time>2021-11-21T11:04:42.854Z</time>
      </trkpt>
      <trkpt lat="47.621268" lon="8.025053">
        <ele>726.288972</ele>
        <time>2021-11-21T11:04:52.497Z</time>
      </trkpt>
      <trkpt lat="47.621054" lon="8.025784">
        <ele>730.329529</ele>
        <time>2021-11-21T11:05:20.050Z</time>
      </trkpt>
      <trkpt lat="47.621015" lon="8.026497">
        <ele>734.624890</ele>
        <time>2021-11-21T11:05:45.416Z</time>
      </trkpt>
      <trkpt lat="47.621074" lon="8.027044">
        <ele>738.273518</ele>
        <time>2021-11-21T11:06:05.292Z</time>
      </trkpt>
      <trkpt lat="47.621153" lon="8.027276">
        <ele>739.985501</ele>
        <time>2021-11-21T11:06:13.501Z</time>
      </trkpt>
      <trkpt lat="47.621202" lon="8.027392">
        <ele>740.887166</ele>
        <time>2021-11-21T11:06:21.056Z</time>
      </trkpt>
      <trkpt lat="47.621486" lon="8.027887">
        <ele>745.168635</ele>
        <time>2021-11-21T11:06:44.396Z</time>
      </trkpt>
      <trkpt lat="47.621660" lon="8.028299">
        <ele>748.370905</ele>
        <time>2021-11-21T11:07:02.735Z</time>
      </trkpt>
      <trkpt lat="47.621701" lon="8.028543">
        <ele>749.815344</ele>
        <time>2021-11-21T11:07:10.463Z</time>
      </trkpt>
      <trkpt lat="47.621668" lon="8.028864">
        <ele>751.333731</ele>
        <time>2021-11-21T11:07:23.386Z</time>
      </trkpt>
      <trkpt lat="47.621427" lon="8.029472">
        <ele>754.631992</ele>
        <time>2021-11-21T11:07:48.306Z</time>
      </trkpt>
      <trkpt lat="47.621272" lon="8.030058">
        <ele>757.575644</ele>
        <time>2021-11-21T11:08:05.156Z</time>
      </trkpt>
      <trkpt lat="47.621181" lon="8.030963">
        <ele>761.792808</ele>
        <time>2021-11-21T11:08:25.882Z</time>
      </trkpt>
      <trkpt lat="47.621187" lon="8.031301">
        <ele>762.146116</ele>
        <time>2021-11-21T11:08:32.718Z</time>
      </trkpt>
      <trkpt lat="47.621208" lon="8.031497">
        <ele>762.353494</ele>
        <time>2021-11-21T11:08:35.854Z</time>
      </trkpt>
      <trkpt lat="47.621242" lon="8.031732">
        <ele>762.604646</ele>
        <time>2021-11-21T11:08:39.953Z</time>
      </trkpt>
      <trkpt lat="47.621283" lon="8.031958">
        <ele>762.849204</ele>
        <time>2021-11-21T11:08:43.194Z</time>
      </trkpt>
      <trkpt lat="47.621424" lon="8.032671">
        <ele>763.625640</ele>
        <time>2021-11-21T11:08:52.331Z</time>
      </trkpt>
      <trkpt lat="47.621459" lon="8.033020">
        <ele>763.994334</ele>
        <time>2021-11-21T11:08:55.762Z</time>
      </trkpt>
      <trkpt lat="47.621518" lon="8.033887">
        <ele>764.919416</ele>
        <time>2021-11-21T11:09:04.330Z</time>
      </trkpt>
      <trkpt lat="47.621602" lon="8.034723">
        <ele>765.840209</ele>
        <time>2021-11-21T11:09:15.207Z</time>
      </trkpt>
      <trkpt lat="47.621739" lon="8.035537">
        <ele>766.754196</ele>
        <time>2021-11-21T11:09:27.245Z</time>
      </trkpt>
      <trkpt lat="47.621800" lon="8.035504">
        <ele>766.859137</ele>
        <time>2021-11-21T11:09:29.044Z</time>
      </trkpt>
      <trkpt lat="47.621839" lon="8.035483">
        <ele>766.926194</ele>
        <time>2021-11-21T11:09:30.331Z</time>
      </trkpt>
      <trkpt lat="47.621895" lon="8.035427">
        <ele>767.035343</ele>
        <time>2021-11-21T11:09:31.583Z</time>
      </trkpt>
      <trkpt lat="47.621969" lon="8.035336">
        <ele>767.190689</ele>
        <time>2021-11-21T11:09:33.841Z</time>
      </trkpt>
      <trkpt lat="47.622096" lon="8.035332">
        <ele>767.395998</ele>
        <time>2021-11-21T11:09:37.499Z</time>
      </trkpt>
      <trkpt lat="47.622386" lon="8.035423">
        <ele>768.731654</ele>
        <time>2021-11-21T11:09:45.381Z</time>
      </trkpt>
      <trkpt lat="47.622869" lon="8.035745">
        <ele>771.399581</ele>
        <time>2021-11-21T11:10:03.301Z</time>
      </trkpt>
      <trkpt lat="47.623318" lon="8.036520">
        <ele>774.870054</ele>
        <time>2021-11-21T11:10:31.029Z</time>
      </trkpt>
      <trkpt lat="47.623403" lon="8.036595">
        <ele>775.368327</ele>
        <time>2021-11-21T11:10:34.381Z</time>
      </trkpt>
      <trkpt lat="47.623595" lon="8.036595">
        <ele>776.335697</ele>
        <time>2021-11-21T11:10:41.713Z</time>
      </trkpt>
      <trkpt lat="47.623756" lon="8.036342">
        <ele>777.573605</ele>
        <time>2021-11-21T11:10:50.116Z</time>
      </trkpt>
      <trkpt lat="47.623843" lon="8.036111">
        <ele>778.523614</ele>
        <time>2021-11-21T11:10:57.354Z</time>
      </trkpt>
      <trkpt lat="47.623966" lon="8.035861">
        <ele>779.634830</ele>
        <time>2021-11-21T11:11:04.632Z</time>
      </trkpt>
      <trkpt lat="47.624178" lon="8.035535">
        <ele>781.261159</ele>
        <time>2021-11-21T11:11:15.883Z</time>
      </trkpt>
      <trkpt lat="47.624637" lon="8.034880">
        <ele>784.653372</ele>
        <time>2021-11-21T11:11:39.259Z</time>
      </trkpt>
      <trkpt lat="47.625181" lon="8.033903">
        <ele>788.273054</ele>
        <time>2021-11-21T11:12:07.558Z</time>
      </trkpt>
      <trkpt lat="47.625662" lon="8.032528">
        <ele>792.160643</ele>
        <time>2021-11-21T11:12:36.806Z</time>
      </trkpt>
      <trkpt lat="47.625752" lon="8.032184">
        <ele>793.033845</ele>
        <time>2021-11-21T11:12:43.365Z</time>
      </trkpt>
      <trkpt lat="47.625909" lon="8.031070">
        <ele>795.343835</ele>
        <time>2021-11-21T11:13:04.527Z</time>
      </trkpt>
      <trkpt lat="47.626015" lon="8.029714">
        <ele>798.114550</ele>
        <time>2021-11-21T11:13:28.736Z</time>
      </trkpt>
      <trkpt lat="47.626062" lon="8.029503">
        <ele>798.527624</ele>
        <time>2021-11-21T11:13:32.703Z</time>
      </trkpt>
      <trkpt lat="47.626144" lon="8.029180">
        <ele>799.149574</ele>
        <time>2021-11-21T11:13:38.885Z</time>
      </trkpt>
      <trkpt lat="47.626347" lon="8.028712">
        <ele>800.152443</ele>
        <time>2021-11-21T11:13:48.662Z</time>
      </trkpt>
      <trkpt lat="47.626471" lon="8.028423">
        <ele>800.769779</ele>
        <time>2021-11-21T11:13:54.699Z</time>
      </trkpt>
      <trkpt lat="47.627024" lon="8.027948">
        <ele>802.478177</ele>
        <time>2021-11-21T11:14:11.030Z</time>
      </trkpt>
      <trkpt lat="47.627092" lon="8.027815">
        <ele>802.778990</ele>
        <time>2021-11-21T11:14:14.135Z</time>
      </trkpt>
      <trkpt lat="47.627459" lon="8.027072">
        <ele>804.050248</ele>
        <time>2021-11-21T11:14:28.135Z</time>
      </trkpt>
      <trkpt lat="47.627933" lon="8.026393">
        <ele>805.323759</ele>
        <time>2021-11-21T11:14:43.043Z</time>
      </trkpt>
      <trkpt lat="47.628621" lon="8.025193">
        <ele>807.512457</ele>
        <time>2021-11-21T11:15:05.499Z</time>
      </trkpt>
      <trkpt lat="47.629730" lon="8.023556">
        <ele>811.595098</ele>
        <time>2021-11-21T11:15:42.933Z</time>
      </trkpt>
      <trkpt lat="47.629855" lon="8.023421">
        <ele>812.364594</ele>
        <time>2021-11-21T11:15:47.810Z</time>
      </trkpt>
      <trkpt lat="47.630151" lon="8.023101">
        <ele>814.187390</ele>
        <time>2021-11-21T11:16:00.013Z</time>
      </trkpt>
      <trkpt lat="47.630575" lon="8.022696">
        <ele>816.697162</ele>
        <time>2021-11-21T11:16:18.025Z</time>
      </trkpt>
      <trkpt lat="47.630871" lon="8.022367">
        <ele>818.537887</ele>
        <time>2021-11-21T11:16:33.814Z</time>
      </trkpt>
      <trkpt lat="47.631045" lon="8.021856">
        <ele>821.017644</ele>
        <time>2021-11-21T11:16:49.179Z</time>
      </trkpt>
      <trkpt lat="47.631199" lon="8.021557">
        <ele>823.009716</ele>
        <time>2021-11-21T11:16:58.286Z</time>
      </trkpt>
      <trkpt lat="47.631791" lon="8.020888">
        <ele>828.854748</ele>
        <time>2021-11-21T11:17:35.346Z</time>
      </trkpt>
      <trkpt lat="47.631812" lon="8.020823">
        <ele>829.236315</ele>
        <time>2021-11-21T11:17:40.284Z</time>
      </trkpt>
      <trkpt lat="47.631911" lon="8.020538">
        <ele>830.933558</ele>
        <time>2021-11-21T11:17:46.380Z</time>
      </trkpt>
      <trkpt lat="47.632121" lon="8.020405">
        <ele>832.727049</ele>
        <time>2021-11-21T11:18:00.394Z</time>
      </trkpt>
      <trkpt lat="47.632672" lon="8.020161">
        <ele>837.018138</ele>
        <time>2021-11-21T11:18:26.553Z</time>
      </trkpt>
      <trkpt lat="47.632993" lon="8.020133">
        <ele>839.386736</ele>
        <time>2021-11-21T11:18:41.781Z</time>
      </trkpt>
      <trkpt lat="47.633881" lon="8.020216">
        <ele>845.940789</ele>
        <time>2021-11-21T11:19:22.905Z</time>
      </trkpt>
      <trkpt lat="47.634199" lon="8.020336">
        <ele>847.383218</ele>
        <time>2021-11-21T11:19:34.348Z</time>
      </trkpt>
      <trkpt lat="47.634527" lon="8.020460">
        <ele>848.245588</ele>
        <time>2021-11-21T11:19:44.613Z</time>
      </trkpt>
      <trkpt lat="47.635655" lon="8.020130">
        <ele>851.174821</ele>
        <time>2021-11-21T11:20:09.686Z</time>
      </trkpt>
      <trkpt lat="47.636612" lon="8.020110">
        <ele>851.841564</ele>
        <time>2021-11-21T11:20:22.295Z</time>
      </trkpt>
      <trkpt lat="47.636951" lon="8.020194">
        <ele>851.999897</ele>
        <time>2021-11-21T11:20:27.885Z</time>
      </trkpt>
      <trkpt lat="47.638017" lon="8.020680">
        <ele>853.291352</ele>
        <time>2021-11-21T11:20:49.600Z</time>
      </trkpt>
      <trkpt lat="47.638217" lon="8.020729">
        <ele>853.694391</ele>
        <time>2021-11-21T11:20:54.415Z</time>
      </trkpt>
      <trkpt lat="47.638589" lon="8.020822">
        <ele>854.444452</ele>
        <time>2021-11-21T11:21:03.212Z</time>
      </trkpt>
      <trkpt lat="47.638879" lon="8.020839">
        <ele>855.021503</ele>
        <time>2021-11-21T11:21:10.218Z</time>
      </trkpt>
      <trkpt lat="47.640449" lon="8.020635">
        <ele>858.716135</ele>
        <time>2021-11-21T11:21:50.217Z</time>
      </trkpt>
      <trkpt lat="47.640905" lon="8.020708">
        <ele>859.850538</ele>
        <time>2021-11-21T11:22:01.371Z</time>
      </trkpt>
      <trkpt lat="47.641659" lon="8.020956">
        <ele>861.209779</ele>
        <time>2021-11-21T11:22:19.232Z</time>
      </trkpt>
      <trkpt lat="47.642591" lon="8.021203">
        <ele>862.665788</ele>
        <time>2021-11-21T11:22:37.907Z</time>
      </trkpt>
      <trkpt lat="47.642776" lon="8.021243">
        <ele>862.953306</ele>
        <time>2021-11-21T11:22:41.753Z</time>
      </trkpt>
      <trkpt lat="47.642903" lon="8.021271">
        <ele>863.149746</ele>
        <time>2021-11-21T11:22:44.259Z</time>
      </trkpt>
      <trkpt lat="47.643038" lon="8.021286">
        <ele>863.355314</ele>
        <time>2021-11-21T11:22:46.804Z</time>
      </trkpt>
      <trkpt lat="47.643353" lon="8.021179">
        <ele>863.846000</ele>
        <time>2021-11-21T11:22:53.020Z</time>
      </trkpt>
      <trkpt lat="47.643502" lon="8.021159">
        <ele>864.073177</ele>
        <time>2021-11-21T11:22:56.124Z</time>
      </trkpt>
      <trkpt lat="47.643877" lon="8.021077">
        <ele>864.648752</ele>
        <time>2021-11-21T11:23:04.023Z</time>
      </trkpt>
      <trkpt lat="47.644076" lon="8.020964">
        <ele>864.972287</ele>
        <time>2021-11-21T11:23:08.477Z</time>
      </trkpt>
      <trkpt lat="47.644214" lon="8.020840">
        <ele>865.217244</ele>
        <time>2021-11-21T11:23:12.154Z</time>
      </trkpt>
      <trkpt lat="47.644608" lon="8.020567">
        <ele>865.915360</ele>
        <time>2021-11-21T11:23:21.406Z</time>
      </trkpt>
      <trkpt lat="47.644736" lon="8.020518">
        <ele>866.215929</ele>
        <time>2021-11-21T11:23:24.132Z</time>
      </trkpt>
      <trkpt lat="47.644824" lon="8.020484">
        <ele>866.422690</ele>
        <time>2021-11-21T11:23:26.285Z</time>
      </trkpt>
      <trkpt lat="47.645147" lon="8.020353">
        <ele>867.184045</ele>
        <time>2021-11-21T11:23:34.364Z</time>
      </trkpt>
      <trkpt lat="47.645363" lon="8.020332">
        <ele>867.676235</ele>
        <time>2021-11-21T11:23:39.885Z</time>
      </trkpt>
      <trkpt lat="47.645511" lon="8.020296">
        <ele>868.017244</ele>
        <time>2021-11-21T11:23:43.662Z</time>
      </trkpt>
      <trkpt lat="47.646257" lon="8.020163">
        <ele>869.725679</ele>
        <time>2021-11-21T11:24:02.433Z</time>
      </trkpt>
      <trkpt lat="47.646357" lon="8.020178">
        <ele>869.919616</ele>
        <time>2021-11-21T11:24:04.918Z</time>
      </trkpt>
      <trkpt lat="47.646466" lon="8.020194">
        <ele>870.032093</ele>
        <time>2021-11-21T11:24:07.762Z</time>
      </trkpt>
      <trkpt lat="47.646754" lon="8.020291">
        <ele>870.335358</ele>
        <time>2021-11-21T11:24:14.416Z</time>
      </trkpt>
      <trkpt lat="47.646808" lon="8.020323">
        <ele>870.395066</ele>
        <time>2021-11-21T11:24:15.766Z</time>
      </trkpt>
      <trkpt lat="47.646911" lon="8.020350">
        <ele>870.502473</ele>
        <time>2021-11-21T11:24:18.012Z</time>
      </trkpt>
      <trkpt lat="47.647019" lon="8.020369">
        <ele>870.614154</ele>
        <time>2021-11-21T11:24:19.948Z</time>
      </trkpt>
      <trkpt lat="47.647184" lon="8.020369">
        <ele>870.783592</ele>
        <time>2021-11-21T11:24:23.222Z</time>
      </trkpt>
      <trkpt lat="47.647594" lon="8.020318">
        <ele>871.206095</ele>
        <time>2021-11-21T11:24:30.497Z</time>
      </trkpt>
      <trkpt lat="47.648534" lon="8.020126">
        <ele>871.502311</ele>
        <time>2021-11-21T11:24:44.582Z</time>
      </trkpt>
      <trkpt lat="47.648678" lon="8.020079">
        <ele>871.421589</ele>
        <time>2021-11-21T11:24:46.498Z</time>
      </trkpt>
      <trkpt lat="47.649206" lon="8.019996">
        <ele>871.130897</ele>
        <time>2021-11-21T11:24:52.925Z</time>
      </trkpt>
      <trkpt lat="47.650715" lon="8.019808">
        <ele>871.436414</ele>
        <time>2021-11-21T11:25:12.439Z</time>
      </trkpt>
      <trkpt lat="47.651019" lon="8.019926">
        <ele>871.696618</ele>
        <time>2021-11-21T11:25:18.711Z</time>
      </trkpt>
      <trkpt lat="47.651288" lon="8.020213">
        <ele>871.970941</ele>
        <time>2021-11-21T11:25:25.792Z</time>
      </trkpt>
      <trkpt lat="47.651545" lon="8.020562">
        <ele>872.329903</ele>
        <time>2021-11-21T11:25:34.250Z</time>
      </trkpt>
      <trkpt lat="47.651675" lon="8.020757">
        <ele>873.135939</ele>
        <time>2021-11-21T11:25:39.083Z</time>
      </trkpt>
      <trkpt lat="47.651765" lon="8.020917">
        <ele>873.748353</ele>
        <time>2021-11-21T11:25:43.202Z</time>
      </trkpt>
      <trkpt lat="47.652110" lon="8.021933">
        <ele>877.091141</ele>
        <time>2021-11-21T11:26:07.521Z</time>
      </trkpt>
      <trkpt lat="47.652334" lon="8.023061">
        <ele>880.591213</ele>
        <time>2021-11-21T11:26:36.494Z</time>
      </trkpt>
      <trkpt lat="47.652441" lon="8.024016">
        <ele>883.714819</ele>
        <time>2021-11-21T11:27:02.539Z</time>
      </trkpt>
      <trkpt lat="47.652680" lon="8.024548">
        <ele>885.777998</ele>
        <time>2021-11-21T11:27:17.205Z</time>
      </trkpt>
      <trkpt lat="47.652695" lon="8.024582">
        <ele>885.909130</ele>
        <time>2021-11-21T11:27:18.692Z</time>
      </trkpt>
      <trkpt lat="47.652741" lon="8.024634">
        <ele>886.186064</ele>
        <time>2021-11-21T11:27:21.071Z</time>
      </trkpt>
      <trkpt lat="47.653010" lon="8.024936">
        <ele>887.801449</ele>
        <time>2021-11-21T11:27:30.852Z</time>
      </trkpt>
      <trkpt lat="47.653377" lon="8.025238">
        <ele>888.877860</ele>
        <time>2021-11-21T11:27:42.317Z</time>
      </trkpt>
      <trkpt lat="47.653481" lon="8.025311">
        <ele>888.965048</ele>
        <time>2021-11-21T11:27:43.791Z</time>
      </trkpt>
      <trkpt lat="47.653690" lon="8.025488">
        <ele>889.147411</ele>
        <time>2021-11-21T11:27:50.304Z</time>
      </trkpt>
      <trkpt lat="47.653783" lon="8.025584">
        <ele>889.233260</ele>
        <time>2021-11-21T11:27:51.589Z</time>
      </trkpt>
      <trkpt lat="47.654246" lon="8.026125">
        <ele>889.679822</ele>
        <time>2021-11-21T11:28:02.733Z</time>
      </trkpt>
      <trkpt lat="47.654931" lon="8.026743">
        <ele>889.806743</ele>
        <time>2021-11-21T11:28:11.996Z</time>
      </trkpt>
      <trkpt lat="47.655366" lon="8.027144">
        <ele>889.353749</ele>
        <time>2021-11-21T11:28:18.024Z</time>
      </trkpt>
      <trkpt lat="47.655466" lon="8.027240">
        <ele>889.248395</ele>
        <time>2021-11-21T11:28:19.526Z</time>
      </trkpt>
      <trkpt lat="47.656028" lon="8.027930">
        <ele>888.603207</ele>
        <time>2021-11-21T11:28:28.803Z</time>
      </trkpt>
      <trkpt lat="47.656335" lon="8.028180">
        <ele>888.475261</ele>
        <time>2021-11-21T11:28:33.551Z</time>
      </trkpt>
      <trkpt lat="47.656561" lon="8.028271">
        <ele>888.476303</ele>
        <time>2021-11-21T11:28:36.802Z</time>
      </trkpt>
      <trkpt lat="47.656841" lon="8.028346">
        <ele>888.477569</ele>
        <time>2021-11-21T11:28:41.016Z</time>
      </trkpt>
      <trkpt lat="47.656917" lon="8.028363">
        <ele>888.477911</ele>
        <time>2021-11-21T11:28:42.097Z</time>
      </trkpt>
      <trkpt lat="47.657505" lon="8.028419">
        <ele>888.480533</ele>
        <time>2021-11-21T11:28:51.162Z</time>
      </trkpt>
      <trkpt lat="47.658704" lon="8.028784">
        <ele>888.809828</ele>
        <time>2021-11-21T11:29:11.339Z</time>
      </trkpt>
      <trkpt lat="47.658895" lon="8.028930">
        <ele>888.896195</ele>
        <time>2021-11-21T11:29:14.527Z</time>
      </trkpt>
      <trkpt lat="47.658952" lon="8.028997">
        <ele>888.925423</ele>
        <time>2021-11-21T11:29:16.722Z</time>
      </trkpt>
      <trkpt lat="47.659262" lon="8.028895">
        <ele>889.053076</ele>
        <time>2021-11-21T11:29:21.694Z</time>
      </trkpt>
      <trkpt lat="47.659385" lon="8.028852">
        <ele>889.103878</ele>
        <time>2021-11-21T11:29:24.241Z</time>
      </trkpt>
      <trkpt lat="47.659698" lon="8.028730">
        <ele>889.147002</ele>
        <time>2021-11-21T11:29:29.629Z</time>
      </trkpt>
      <trkpt lat="47.660275" lon="8.028464">
        <ele>888.649057</ele>
        <time>2021-11-21T11:29:37.472Z</time>
      </trkpt>
      <trkpt lat="47.660281" lon="8.028754">
        <ele>888.488002</ele>
        <time>2021-11-21T11:29:40.103Z</time>
      </trkpt>
      <trkpt lat="47.660363" lon="8.029257">
        <ele>888.200723</ele>
        <time>2021-11-21T11:29:44.313Z</time>
      </trkpt>
      <trkpt lat="47.660555" lon="8.029987">
        <ele>887.765700</ele>
        <time>2021-11-21T11:29:50.580Z</time>
      </trkpt>
      <trkpt lat="47.660640" lon="8.030360">
        <ele>887.562907</ele>
        <time>2021-11-21T11:29:53.468Z</time>
      </trkpt>
      <trkpt lat="47.660771" lon="8.031434">
        <ele>887.011407</ele>
        <time>2021-11-21T11:30:01.675Z</time>
      </trkpt>
      <trkpt lat="47.660779" lon="8.031884">
        <ele>886.783951</ele>
        <time>2021-11-21T11:30:05.679Z</time>
      </trkpt>
      <trkpt lat="47.660722" lon="8.032994">
        <ele>886.723337</ele>
        <time>2021-11-21T11:30:17.717Z</time>
      </trkpt>
      <trkpt lat="47.660712" lon="8.033348">
        <ele>887.134480</ele>
        <time>2021-11-21T11:30:22.807Z</time>
      </trkpt>
      <trkpt lat="47.660704" lon="8.033736">
        <ele>887.584928</ele>
        <time>2021-11-21T11:30:28.647Z</time>
      </trkpt>
      <trkpt lat="47.660720" lon="8.034012">
        <ele>887.906383</ele>
        <time>2021-11-21T11:30:33.261Z</time>
      </trkpt>
      <trkpt lat="47.660815" lon="8.035030">
        <ele>889.098957</ele>
        <time>2021-11-21T11:30:50.882Z</time>
      </trkpt>
      <trkpt lat="47.660862" lon="8.035538">
        <ele>889.428636</ele>
        <time>2021-11-21T11:30:58.621Z</time>
      </trkpt>
      <trkpt lat="47.660914" lon="8.035843">
        <ele>889.356181</ele>
        <time>2021-11-21T11:31:02.344Z</time>
      </trkpt>
      <trkpt lat="47.660975" lon="8.036110">
        <ele>889.291251</ele>
        <time>2021-11-21T11:31:06.075Z</time>
      </trkpt>
      <trkpt lat="47.661241" lon="8.036936">
        <ele>889.080405</ele>
        <time>2021-11-21T11:31:14.472Z</time>
      </trkpt>
      <trkpt lat="47.661582" lon="8.037913">
        <ele>888.667702</ele>
        <time>2021-11-21T11:31:22.870Z</time>
      </trkpt>
      <trkpt lat="47.661689" lon="8.038216">
        <ele>888.178491</ele>
        <time>2021-11-21T11:31:25.250Z</time>
      </trkpt>
      <trkpt lat="47.661789" lon="8.038453">
        <ele>887.778587</ele>
        <time>2021-11-21T11:31:27.222Z</time>
      </trkpt>
      <trkpt lat="47.661891" lon="8.038641">
        <ele>887.433386</ele>
        <time>2021-11-21T11:31:28.872Z</time>
      </trkpt>
      <trkpt lat="47.662271" lon="8.039086">
        <ele>886.405872</ele>
        <time>2021-11-21T11:31:33.872Z</time>
      </trkpt>
      <trkpt lat="47.662539" lon="8.039274">
        <ele>885.776573</ele>
        <time>2021-11-21T11:31:37.111Z</time>
      </trkpt>
      <trkpt lat="47.662607" lon="8.039318">
        <ele>885.619089</ele>
        <time>2021-11-21T11:31:37.953Z</time>
      </trkpt>
      <trkpt lat="47.662994" lon="8.039590">
        <ele>884.860186</ele>
        <time>2021-11-21T11:31:43.257Z</time>
      </trkpt>
      <trkpt lat="47.663165" lon="8.039787">
        <ele>884.610486</ele>
        <time>2021-11-21T11:31:45.805Z</time>
      </trkpt>
      <trkpt lat="47.663346" lon="8.040076">
        <ele>884.303845</ele>
        <time>2021-11-21T11:31:49.193Z</time>
      </trkpt>
      <trkpt lat="47.663389" lon="8.040182">
        <ele>884.207697</ele>
        <time>2021-11-21T11:31:50.213Z</time>
      </trkpt>
      <trkpt lat="47.663465" lon="8.040394">
        <ele>884.021092</ele>
        <time>2021-11-21T11:31:52.305Z</time>
      </trkpt>
      <trkpt lat="47.663588" lon="8.040896">
        <ele>883.606030</ele>
        <time>2021-11-21T11:31:56.885Z</time>
      </trkpt>
      <trkpt lat="47.663604" lon="8.040960">
        <ele>883.552987</ele>
        <time>2021-11-21T11:31:57.489Z</time>
      </trkpt>
      <trkpt lat="47.663612" lon="8.041099">
        <ele>883.444592</ele>
        <time>2021-11-21T11:31:58.760Z</time>
      </trkpt>
      <trkpt lat="47.663626" lon="8.041348">
        <ele>883.250448</ele>
        <time>2021-11-21T11:32:00.844Z</time>
      </trkpt>
      <trkpt lat="47.663632" lon="8.041681">
        <ele>882.991618</ele>
        <time>2021-11-21T11:32:03.325Z</time>
      </trkpt>
      <trkpt lat="47.663654" lon="8.042301">
        <ele>881.652472</ele>
        <time>2021-11-21T11:32:07.969Z</time>
      </trkpt>
      <trkpt lat="47.663729" lon="8.042678">
        <ele>880.771369</ele>
        <time>2021-11-21T11:32:10.773Z</time>
      </trkpt>
      <trkpt lat="47.663905" lon="8.043336">
        <ele>879.184471</ele>
        <time>2021-11-21T11:32:15.607Z</time>
      </trkpt>
      <trkpt lat="47.663981" lon="8.043746">
        <ele>878.231327</ele>
        <time>2021-11-21T11:32:18.314Z</time>
      </trkpt>
      <trkpt lat="47.664042" lon="8.044519">
        <ele>876.504783</ele>
        <time>2021-11-21T11:32:23.268Z</time>
      </trkpt>
      <trkpt lat="47.664016" lon="8.045043">
        <ele>875.370064</ele>
        <time>2021-11-21T11:32:26.615Z</time>
      </trkpt>
      <trkpt lat="47.663939" lon="8.046061">
        <ele>873.157725</ele>
        <time>2021-11-21T11:32:33.304Z</time>
      </trkpt>
      <trkpt lat="47.663895" lon="8.046633">
        <ele>871.914376</ele>
        <time>2021-11-21T11:32:37.626Z</time>
      </trkpt>
      <trkpt lat="47.663810" lon="8.047427">
        <ele>871.912594</ele>
        <time>2021-11-21T11:32:45.208Z</time>
      </trkpt>
      <trkpt lat="47.663756" lon="8.047691">
        <ele>872.318266</ele>
        <time>2021-11-21T11:32:47.788Z</time>
      </trkpt>
      <trkpt lat="47.663806" lon="8.047709">
        <ele>872.430587</ele>
        <time>2021-11-21T11:32:49.014Z</time>
      </trkpt>
      <trkpt lat="47.663946" lon="8.047621">
        <ele>872.762490</ele>
        <time>2021-11-21T11:32:52.364Z</time>
      </trkpt>
      <trkpt lat="47.664000" lon="8.047530">
        <ele>872.940817</ele>
        <time>2021-11-21T11:32:54.078Z</time>
      </trkpt>
      <trkpt lat="47.664224" lon="8.047131">
        <ele>873.704567</ele>
        <time>2021-11-21T11:33:03.497Z</time>
      </trkpt>
      <trkpt lat="47.664354" lon="8.046968">
        <ele>874.076032</ele>
        <time>2021-11-21T11:33:08.349Z</time>
      </trkpt>
      <trkpt lat="47.664403" lon="8.046911">
        <ele>874.211927</ele>
        <time>2021-11-21T11:33:10.630Z</time>
      </trkpt>
      <trkpt lat="47.664966" lon="8.046372">
        <ele>876.439321</ele>
        <time>2021-11-21T11:33:31.736Z</time>
      </trkpt>
      <trkpt lat="47.665093" lon="8.046323">
        <ele>877.133392</ele>
        <time>2021-11-21T11:33:36.431Z</time>
      </trkpt>
      <trkpt lat="47.665181" lon="8.046289">
        <ele>877.614365</ele>
        <time>2021-11-21T11:33:39.365Z</time>
      </trkpt>
      <trkpt lat="47.665211" lon="8.046289">
        <ele>877.773049</ele>
        <time>2021-11-21T11:33:40.402Z</time>
      </trkpt>
      <trkpt lat="47.665840" lon="8.046282">
        <ele>881.100223</ele>
        <time>2021-11-21T11:34:03.721Z</time>
      </trkpt>
      <trkpt lat="47.665959" lon="8.046286">
        <ele>881.729832</ele>
        <time>2021-11-21T11:34:07.747Z</time>
      </trkpt>
      <trkpt lat="47.666325" lon="8.046285">
        <ele>883.665784</ele>
        <time>2021-11-21T11:34:21.233Z</time>
      </trkpt>
      <trkpt lat="47.666524" lon="8.046284">
        <ele>884.738137</ele>
        <time>2021-11-21T11:34:28.972Z</time>
      </trkpt>
      <trkpt lat="47.666795" lon="8.046220">
        <ele>886.612609</ele>
        <time>2021-11-21T11:34:40.066Z</time>
      </trkpt>
      <trkpt lat="47.666861" lon="8.046204">
        <ele>887.069425</ele>
        <time>2021-11-21T11:34:43.078Z</time>
      </trkpt>
      <trkpt lat="47.667152" lon="8.046097">
        <ele>889.117289</ele>
        <time>2021-11-21T11:34:55.004Z</time>
      </trkpt>
      <trkpt lat="47.667301" lon="8.046004">
        <ele>890.221369</ele>
        <time>2021-11-21T11:35:02.017Z</time>
      </trkpt>
      <trkpt lat="47.667550" lon="8.045756">
        <ele>892.269465</ele>
        <time>2021-11-21T11:35:14.755Z</time>
      </trkpt>
      <trkpt lat="47.667881" lon="8.045298">
        <ele>895.360004</ele>
        <time>2021-11-21T11:35:34.680Z</time>
      </trkpt>
      <trkpt lat="47.667928" lon="8.045198">
        <ele>895.920982</ele>
        <time>2021-11-21T11:35:39.155Z</time>
      </trkpt>
      <trkpt lat="47.668040" lon="8.044989">
        <ele>897.143334</ele>
        <time>2021-11-21T11:35:46.867Z</time>
      </trkpt>
      <trkpt lat="47.668196" lon="8.044756">
        <ele>898.609610</ele>
        <time>2021-11-21T11:35:56.821Z</time>
      </trkpt>
      <trkpt lat="47.668328" lon="8.044616">
        <ele>899.684574</ele>
        <time>2021-11-21T11:36:03.599Z</time>
      </trkpt>
      <trkpt lat="47.668534" lon="8.044400">
        <ele>901.355748</ele>
        <time>2021-11-21T11:36:14.413Z</time>
      </trkpt>
      <trkpt lat="47.668659" lon="8.044268">
        <ele>902.372213</ele>
        <time>2021-11-21T11:36:19.980Z</time>
      </trkpt>
      <trkpt lat="47.668781" lon="8.044146">
        <ele>903.346930</ele>
        <time>2021-11-21T11:36:26.960Z</time>
      </trkpt>
      <trkpt lat="47.668845" lon="8.044086">
        <ele>903.848504</ele>
        <time>2021-11-21T11:36:29.765Z</time>
      </trkpt>
      <trkpt lat="47.669158" lon="8.043809">
        <ele>906.263150</ele>
        <time>2021-11-21T11:36:44.947Z</time>
      </trkpt>
      <trkpt lat="47.669745" lon="8.043311">
        <ele>910.612341</ele>
        <time>2021-11-21T11:37:10.655Z</time>
      </trkpt>
      <trkpt lat="47.670120" lon="8.042976">
        <ele>913.311227</ele>
        <time>2021-11-21T11:37:26.997Z</time>
      </trkpt>
      <trkpt lat="47.670804" lon="8.042503">
        <ele>917.964477</ele>
        <time>2021-11-21T11:37:55.068Z</time>
      </trkpt>
      <trkpt lat="47.671899" lon="8.041989">
        <ele>926.591736</ele>
        <time>2021-11-21T11:38:47.560Z</time>
      </trkpt>
      <trkpt lat="47.672242" lon="8.041923">
        <ele>929.371189</ele>
        <time>2021-11-21T11:39:04.072Z</time>
      </trkpt>
      <trkpt lat="47.672781" lon="8.041828">
        <ele>933.733092</ele>
        <time>2021-11-21T11:39:31.029Z</time>
      </trkpt>
      <trkpt lat="47.672995" lon="8.041769">
        <ele>935.346864</ele>
        <time>2021-11-21T11:39:41.893Z</time>
      </trkpt>
      <trkpt lat="47.673985" lon="8.041192">
        <ele>942.821121</ele>
        <time>2021-11-21T11:40:33.876Z</time>
      </trkpt>
      <trkpt lat="47.674373" lon="8.040874">
        <ele>945.935632</ele>
        <time>2021-11-21T11:40:50.710Z</time>
      </trkpt>
      <trkpt lat="47.674565" lon="8.040822">
        <ele>947.116448</ele>
        <time>2021-11-21T11:40:57.629Z</time>
      </trkpt>
      <trkpt lat="47.677340" lon="8.039284">
        <ele>949.201933</ele>
        <time>2021-11-21T11:41:57.011Z</time>
      </trkpt>
      <trkpt lat="47.677464" lon="8.039192">
        <ele>949.049893</ele>
        <time>2021-11-21T11:41:58.330Z</time>
      </trkpt>
      <trkpt lat="47.677793" lon="8.039036">
        <ele>948.671075</ele>
        <time>2021-11-21T11:42:01.547Z</time>
      </trkpt>
      <trkpt lat="47.678069" lon="8.038823">
        <ele>947.295521</ele>
        <time>2021-11-21T11:42:04.404Z</time>
      </trkpt>
      <trkpt lat="47.678601" lon="8.038461">
        <ele>943.582504</ele>
        <time>2021-11-21T11:42:09.733Z</time>
      </trkpt>
      <trkpt lat="47.678867" lon="8.038371">
        <ele>941.851456</ele>
        <time>2021-11-21T11:42:12.154Z</time>
      </trkpt>
      <trkpt lat="47.679059" lon="8.038388">
        <ele>940.631025</ele>
        <time>2021-11-21T11:42:13.869Z</time>
      </trkpt>
      <trkpt lat="47.679772" lon="8.038786">
        <ele>936.122317</ele>
        <time>2021-11-21T11:42:20.801Z</time>
      </trkpt>
      <trkpt lat="47.679904" lon="8.038789">
        <ele>935.488096</ele>
        <time>2021-11-21T11:42:22.008Z</time>
      </trkpt>
      <trkpt lat="47.680077" lon="8.038763">
        <ele>934.652737</ele>
        <time>2021-11-21T11:42:23.641Z</time>
      </trkpt>
      <trkpt lat="47.680480" lon="8.038450">
        <ele>932.467951</ele>
        <time>2021-11-21T11:42:27.981Z</time>
      </trkpt>
      <trkpt lat="47.680738" lon="8.037885">
        <ele>930.259806</ele>
        <time>2021-11-21T11:42:32.501Z</time>
      </trkpt>
      <trkpt lat="47.681185" lon="8.035417">
        <ele>923.108302</ele>
        <time>2021-11-21T11:42:49.263Z</time>
      </trkpt>
      <trkpt lat="47.681242" lon="8.034582">
        <ele>920.940279</ele>
        <time>2021-11-21T11:42:54.816Z</time>
      </trkpt>
      <trkpt lat="47.681229" lon="8.033817">
        <ele>919.239341</ele>
        <time>2021-11-21T11:42:59.871Z</time>
      </trkpt>
      <trkpt lat="47.681221" lon="8.033480">
        <ele>918.489812</ele>
        <time>2021-11-21T11:43:02.122Z</time>
      </trkpt>
      <trkpt lat="47.681197" lon="8.032505">
        <ele>916.321191</ele>
        <time>2021-11-21T11:43:08.770Z</time>
      </trkpt>
      <trkpt lat="47.681203" lon="8.032236">
        <ele>915.722946</ele>
        <time>2021-11-21T11:43:10.633Z</time>
      </trkpt>
      <trkpt lat="47.681217" lon="8.031973">
        <ele>915.358680</ele>
        <time>2021-11-21T11:43:12.542Z</time>
      </trkpt>
      <trkpt lat="47.681251" lon="8.031637">
        <ele>915.250874</ele>
        <time>2021-11-21T11:43:14.998Z</time>
      </trkpt>
      <trkpt lat="47.681415" lon="8.030695">
        <ele>914.942160</ele>
        <time>2021-11-21T11:43:22.835Z</time>
      </trkpt>
      <trkpt lat="47.681649" lon="8.029887">
        <ele>914.663081</ele>
        <time>2021-11-21T11:43:31.686Z</time>
      </trkpt>
      <trkpt lat="47.682253" lon="8.029326">
        <ele>916.402612</ele>
        <time>2021-11-21T11:43:48.015Z</time>
      </trkpt>
      <trkpt lat="47.682284" lon="8.029302">
        <ele>916.541081</ele>
        <time>2021-11-21T11:43:49.649Z</time>
      </trkpt>
      <trkpt lat="47.682777" lon="8.028844">
        <ele>918.844345</ele>
        <time>2021-11-21T11:44:06.859Z</time>
      </trkpt>
      <trkpt lat="47.683078" lon="8.028586">
        <ele>920.220876</ele>
        <time>2021-11-21T11:44:18.879Z</time>
      </trkpt>
      <trkpt lat="47.683244" lon="8.028477">
        <ele>920.939783</ele>
        <time>2021-11-21T11:44:26.138Z</time>
      </trkpt>
      <trkpt lat="47.683359" lon="8.028418">
        <ele>921.421705</ele>
        <time>2021-11-21T11:44:30.320Z</time>
      </trkpt>
      <trkpt lat="47.684704" lon="8.027745">
        <ele>930.829205</ele>
        <time>2021-11-21T11:45:28.517Z</time>
      </trkpt>
      <trkpt lat="47.685120" lon="8.027549">
        <ele>933.776371</ele>
        <time>2021-11-21T11:45:47.871Z</time>
      </trkpt>
      <trkpt lat="47.685388" lon="8.027534">
        <ele>936.109897</ele>
        <time>2021-11-21T11:46:00.744Z</time>
      </trkpt>
      <trkpt lat="47.686440" lon="8.027867">
        <ele>945.518965</ele>
        <time>2021-11-21T11:46:52.905Z</time>
      </trkpt>
      <trkpt lat="47.686897" lon="8.028014">
        <ele>949.616898</ele>
        <time>2021-11-21T11:47:19.448Z</time>
      </trkpt>
      <trkpt lat="47.687310" lon="8.028230">
        <ele>953.961965</ele>
        <time>2021-11-21T11:47:43.640Z</time>
      </trkpt>
      <trkpt lat="47.687428" lon="8.028421">
        <ele>955.693804</ele>
        <time>2021-11-21T11:47:51.274Z</time>
      </trkpt>
      <trkpt lat="47.687566" lon="8.028910">
        <ele>959.235935</ele>
        <time>2021-11-21T11:48:11.127Z</time>
      </trkpt>
      <trkpt lat="47.687575" lon="8.029140">
        <ele>960.775006</ele>
        <time>2021-11-21T11:48:21.797Z</time>
      </trkpt>
      <trkpt lat="47.687587" lon="8.029347">
        <ele>962.162954</ele>
        <time>2021-11-21T11:48:29.932Z</time>
      </trkpt>
      <trkpt lat="47.687597" lon="8.029545">
        <ele>963.489377</ele>
        <time>2021-11-21T11:48:36.506Z</time>
      </trkpt>
      <trkpt lat="47.687633" lon="8.029655">
        <ele>964.306453</ele>
        <time>2021-11-21T11:48:42.008Z</time>
      </trkpt>
      <trkpt lat="47.687678" lon="8.029737">
        <ele>965.013200</ele>
        <time>2021-11-21T11:48:46.157Z</time>
      </trkpt>
      <trkpt lat="47.687832" lon="8.029919">
        <ele>966.966079</ele>
        <time>2021-11-21T11:48:54.811Z</time>
      </trkpt>
      <trkpt lat="47.687967" lon="8.029945">
        <ele>968.163144</ele>
        <time>2021-11-21T11:49:03.162Z</time>
      </trkpt>
      <trkpt lat="47.688163" lon="8.029878">
        <ele>969.823606</ele>
        <time>2021-11-21T11:49:11.939Z</time>
      </trkpt>
      <trkpt lat="47.688255" lon="8.029813">
        <ele>970.664686</ele>
        <time>2021-11-21T11:49:18.053Z</time>
      </trkpt>
      <trkpt lat="47.688361" lon="8.029709">
        <ele>971.713464</ele>
        <time>2021-11-21T11:49:24.903Z</time>
      </trkpt>
      <trkpt lat="47.688541" lon="8.029534">
        <ele>973.489510</ele>
        <time>2021-11-21T11:49:34.876Z</time>
      </trkpt>
      <trkpt lat="47.688693" lon="8.029402">
        <ele>974.943115</ele>
        <time>2021-11-21T11:49:44.363Z</time>
      </trkpt>
      <trkpt lat="47.688722" lon="8.029368">
        <ele>975.248121</ele>
        <time>2021-11-21T11:49:45.855Z</time>
      </trkpt>
      <trkpt lat="47.688941" lon="8.029106">
        <ele>977.569599</ele>
        <time>2021-11-21T11:49:58.667Z</time>
      </trkpt>
      <trkpt lat="47.689084" lon="8.028821">
        <ele>979.545092</ele>
        <time>2021-11-21T11:50:08.782Z</time>
      </trkpt>
      <trkpt lat="47.689741" lon="8.028056">
        <ele>985.376869</ele>
        <time>2021-11-21T11:50:45.672Z</time>
      </trkpt>
      <trkpt lat="47.689946" lon="8.027870">
        <ele>986.857819</ele>
        <time>2021-11-21T11:50:55.310Z</time>
      </trkpt>
      <trkpt lat="47.690398" lon="8.027448">
        <ele>990.149121</ele>
        <time>2021-11-21T11:51:14.841Z</time>
      </trkpt>
      <trkpt lat="47.690589" lon="8.027275">
        <ele>991.528285</ele>
        <time>2021-11-21T11:51:23.315Z</time>
      </trkpt>
      <trkpt lat="47.690721" lon="8.027126">
        <ele>992.550361</ele>
        <time>2021-11-21T11:51:29.697Z</time>
      </trkpt>
      <trkpt lat="47.690924" lon="8.026889">
        <ele>994.005609</ele>
        <time>2021-11-21T11:51:39.528Z</time>
      </trkpt>
      <trkpt lat="47.691288" lon="8.026502">
        <ele>996.295494</ele>
        <time>2021-11-21T11:51:55.567Z</time>
      </trkpt>
      <trkpt lat="47.691662" lon="8.026240">
        <ele>998.410845</ele>
        <time>2021-11-21T11:52:10.221Z</time>
      </trkpt>
      <trkpt lat="47.691875" lon="8.026015">
        <ele>999.747882</ele>
        <time>2021-11-21T11:52:19.009Z</time>
      </trkpt>
      <trkpt lat="47.692022" lon="8.025872">
        <ele>1000.646779</ele>
        <time>2021-11-21T11:52:25.757Z</time>
      </trkpt>
      <trkpt lat="47.692484" lon="8.025672">
        <ele>1003.005962</ele>
        <time>2021-11-21T11:52:41.547Z</time>
      </trkpt>
      <trkpt lat="47.692716" lon="8.025640">
        <ele>1003.982224</ele>
        <time>2021-11-21T11:52:49.413Z</time>
      </trkpt>
      <trkpt lat="47.692935" lon="8.025620">
        <ele>1004.901567</ele>
        <time>2021-11-21T11:52:55.992Z</time>
      </trkpt>
      <trkpt lat="47.692982" lon="8.025617">
        <ele>1005.098679</ele>
        <time>2021-11-21T11:52:58.595Z</time>
      </trkpt>
      <trkpt lat="47.693981" lon="8.025556">
        <ele>1009.288028</ele>
        <time>2021-11-21T11:53:29.483Z</time>
      </trkpt>
      <trkpt lat="47.694490" lon="8.025057">
        <ele>1011.093004</ele>
        <time>2021-11-21T11:53:47.883Z</time>
      </trkpt>
      <trkpt lat="47.695067" lon="8.024641">
        <ele>1012.638250</ele>
        <time>2021-11-21T11:54:02.926Z</time>
      </trkpt>
      <trkpt lat="47.695167" lon="8.024552">
        <ele>1012.919109</ele>
        <time>2021-11-21T11:54:05.834Z</time>
      </trkpt>
      <trkpt lat="47.695582" lon="8.024186">
        <ele>1014.081888</ele>
        <time>2021-11-21T11:54:15.921Z</time>
      </trkpt>
      <trkpt lat="47.695949" lon="8.023902">
        <ele>1014.726966</ele>
        <time>2021-11-21T11:54:24.418Z</time>
      </trkpt>
      <trkpt lat="47.696121" lon="8.023737">
        <ele>1014.960143</ele>
        <time>2021-11-21T11:54:28.728Z</time>
      </trkpt>
      <trkpt lat="47.696662" lon="8.022922">
        <ele>1015.837605</ele>
        <time>2021-11-21T11:54:43.466Z</time>
      </trkpt>
      <trkpt lat="47.697090" lon="8.022559">
        <ele>1016.398885</ele>
        <time>2021-11-21T11:54:52.815Z</time>
      </trkpt>
      <trkpt lat="47.697392" lon="8.022307">
        <ele>1016.360079</ele>
        <time>2021-11-21T11:54:59.089Z</time>
      </trkpt>
      <trkpt lat="47.697640" lon="8.022045">
        <ele>1016.256222</ele>
        <time>2021-11-21T11:55:04.420Z</time>
      </trkpt>
      <trkpt lat="47.698454" lon="8.020607">
        <ele>1015.636234</ele>
        <time>2021-11-21T11:55:20.541Z</time>
      </trkpt>
      <trkpt lat="47.698769" lon="8.019792">
        <ele>1013.529288</ele>
        <time>2021-11-21T11:55:27.350Z</time>
      </trkpt>
      <trkpt lat="47.698870" lon="8.019452">
        <ele>1012.696122</ele>
        <time>2021-11-21T11:55:29.951Z</time>
      </trkpt>
      <trkpt lat="47.698886" lon="8.019389">
        <ele>1012.545166</ele>
        <time>2021-11-21T11:55:30.413Z</time>
      </trkpt>
      <trkpt lat="47.698950" lon="8.019245">
        <ele>1012.158305</ele>
        <time>2021-11-21T11:55:31.533Z</time>
      </trkpt>
      <trkpt lat="47.698987" lon="8.019194">
        <ele>1011.990193</ele>
        <time>2021-11-21T11:55:32.005Z</time>
      </trkpt>
      <trkpt lat="47.699120" lon="8.019010">
        <ele>1011.384870</ele>
        <time>2021-11-21T11:55:33.699Z</time>
      </trkpt>
      <trkpt lat="47.699204" lon="8.018887">
        <ele>1010.992030</ele>
        <time>2021-11-21T11:55:34.768Z</time>
      </trkpt>
      <trkpt lat="47.699444" lon="8.018605">
        <ele>1009.972837</ele>
        <time>2021-11-21T11:55:37.634Z</time>
      </trkpt>
      <trkpt lat="47.699463" lon="8.018583">
        <ele>1009.892601</ele>
        <time>2021-11-21T11:55:37.884Z</time>
      </trkpt>
      <trkpt lat="47.699697" lon="8.018173">
        <ele>1008.796054</ele>
        <time>2021-11-21T11:55:41.347Z</time>
      </trkpt>
      <trkpt lat="47.699839" lon="8.017859">
        <ele>1008.026861</ele>
        <time>2021-11-21T11:55:43.967Z</time>
      </trkpt>
      <trkpt lat="47.699835" lon="8.017801">
        <ele>1007.908314</ele>
        <time>2021-11-21T11:55:44.312Z</time>
      </trkpt>
      <trkpt lat="47.699826" lon="8.017362">
        <ele>1007.015294</ele>
        <time>2021-11-21T11:55:47.545Z</time>
      </trkpt>
      <trkpt lat="47.699813" lon="8.017213">
        <ele>1006.709801</ele>
        <time>2021-11-21T11:55:48.452Z</time>
      </trkpt>
      <trkpt lat="47.699597" lon="8.017288">
        <ele>1006.039654</ele>
        <time>2021-11-21T11:55:51.822Z</time>
      </trkpt>
      <trkpt lat="47.698902" lon="8.017665">
        <ele>1004.016827</ele>
        <time>2021-11-21T11:55:59.897Z</time>
      </trkpt>
      <trkpt lat="47.698528" lon="8.017844">
        <ele>1003.238732</ele>
        <time>2021-11-21T11:56:04.098Z</time>
      </trkpt>
      <trkpt lat="47.698267" lon="8.017921">
        <ele>1002.711791</ele>
        <time>2021-11-21T11:56:07.474Z</time>
      </trkpt>
      <trkpt lat="47.698194" lon="8.017933">
        <ele>1002.566350</ele>
        <time>2021-11-21T11:56:08.874Z</time>
      </trkpt>
      <trkpt lat="47.697983" lon="8.017968">
        <ele>1002.145917</ele>
        <time>2021-11-21T11:56:12.062Z</time>
      </trkpt>
      <trkpt lat="47.697781" lon="8.017936">
        <ele>1001.743636</ele>
        <time>2021-11-21T11:56:14.357Z</time>
      </trkpt>
      <trkpt lat="47.697010" lon="8.017759">
        <ele>999.224933</ele>
        <time>2021-11-21T11:56:22.190Z</time>
      </trkpt>
      <trkpt lat="47.696473" lon="8.017726">
        <ele>996.591282</ele>
        <time>2021-11-21T11:56:27.205Z</time>
      </trkpt>
      <trkpt lat="47.696352" lon="8.017751">
        <ele>995.992653</ele>
        <time>2021-11-21T11:56:28.311Z</time>
      </trkpt>
      <trkpt lat="47.696152" lon="8.017833">
        <ele>994.975985</ele>
        <time>2021-11-21T11:56:30.249Z</time>
      </trkpt>
      <trkpt lat="47.695840" lon="8.018011">
        <ele>993.338285</ele>
        <time>2021-11-21T11:56:33.349Z</time>
      </trkpt>
      <trkpt lat="47.695674" lon="8.018175">
        <ele>992.361433</ele>
        <time>2021-11-21T11:56:35.186Z</time>
      </trkpt>
      <trkpt lat="47.695579" lon="8.018269">
        <ele>991.857634</ele>
        <time>2021-11-21T11:56:36.228Z</time>
      </trkpt>
      <trkpt lat="47.695350" lon="8.018583">
        <ele>990.678960</ele>
        <time>2021-11-21T11:56:39.153Z</time>
      </trkpt>
      <trkpt lat="47.694743" lon="8.019647">
        <ele>987.128083</ele>
        <time>2021-11-21T11:56:48.467Z</time>
      </trkpt>
      <trkpt lat="47.694578" lon="8.019835">
        <ele>986.341588</ele>
        <time>2021-11-21T11:56:50.666Z</time>
      </trkpt>
      <trkpt lat="47.694391" lon="8.019962">
        <ele>985.563883</ele>
        <time>2021-11-21T11:56:53.003Z</time>
      </trkpt>
      <trkpt lat="47.694216" lon="8.020019">
        <ele>984.748889</ele>
        <time>2021-11-21T11:56:54.913Z</time>
      </trkpt>
      <trkpt lat="47.694060" lon="8.020049">
        <ele>983.924376</ele>
        <time>2021-11-21T11:56:56.570Z</time>
      </trkpt>
      <trkpt lat="47.693895" lon="8.020047">
        <ele>983.059481</ele>
        <time>2021-11-21T11:56:58.191Z</time>
      </trkpt>
      <trkpt lat="47.693543" lon="8.019913">
        <ele>981.154827</ele>
        <time>2021-11-21T11:57:01.748Z</time>
      </trkpt>
      <trkpt lat="47.693342" lon="8.019760">
        <ele>979.971027</ele>
        <time>2021-11-21T11:57:03.911Z</time>
      </trkpt>
      <trkpt lat="47.693162" lon="8.019540">
        <ele>978.749290</ele>
        <time>2021-11-21T11:57:06.136Z</time>
      </trkpt>
      <trkpt lat="47.693037" lon="8.019317">
        <ele>977.725423</ele>
        <time>2021-11-21T11:57:07.882Z</time>
      </trkpt>
      <trkpt lat="47.692870" lon="8.018755">
        <ele>975.367208</ele>
        <time>2021-11-21T11:57:11.605Z</time>
      </trkpt>
      <trkpt lat="47.692707" lon="8.018208">
        <ele>971.686910</ele>
        <time>2021-11-21T11:57:15.040Z</time>
      </trkpt>
      <trkpt lat="47.692537" lon="8.017846">
        <ele>968.971336</ele>
        <time>2021-11-21T11:57:17.571Z</time>
      </trkpt>
      <trkpt lat="47.692350" lon="8.017552">
        <ele>966.482770</ele>
        <time>2021-11-21T11:57:19.883Z</time>
      </trkpt>
      <trkpt lat="47.691974" lon="8.017174">
        <ele>962.333205</ele>
        <time>2021-11-21T11:57:23.837Z</time>
      </trkpt>
      <trkpt lat="47.691820" lon="8.017076">
        <ele>960.801941</ele>
        <time>2021-11-21T11:57:25.266Z</time>
      </trkpt>
      <trkpt lat="47.691689" lon="8.017007">
        <ele>959.531568</ele>
        <time>2021-11-21T11:57:26.549Z</time>
      </trkpt>
      <trkpt lat="47.691665" lon="8.016994">
        <ele>959.338134</ele>
        <time>2021-11-21T11:57:26.791Z</time>
      </trkpt>
      <trkpt lat="47.691435" lon="8.016911">
        <ele>958.304371</ele>
        <time>2021-11-21T11:57:28.922Z</time>
      </trkpt>
      <trkpt lat="47.690220" lon="8.016934">
        <ele>952.997287</ele>
        <time>2021-11-21T11:57:40.652Z</time>
      </trkpt>
      <trkpt lat="47.690082" lon="8.016904">
        <ele>952.388136</ele>
        <time>2021-11-21T11:57:43.150Z</time>
      </trkpt>
      <trkpt lat="47.690058" lon="8.016898">
        <ele>952.281840</ele>
        <time>2021-11-21T11:57:43.499Z</time>
      </trkpt>
      <trkpt lat="47.689914" lon="8.016822">
        <ele>951.614391</ele>
        <time>2021-11-21T11:57:45.268Z</time>
      </trkpt>
      <trkpt lat="47.689713" lon="8.016686">
        <ele>950.650602</ele>
        <time>2021-11-21T11:57:48.332Z</time>
      </trkpt>
      <trkpt lat="47.688439" lon="8.015818">
        <ele>944.535091</ele>
        <time>2021-11-21T11:58:01.949Z</time>
      </trkpt>
      <trkpt lat="47.688100" lon="8.015587">
        <ele>942.321568</ele>
        <time>2021-11-21T11:58:05.245Z</time>
      </trkpt>
      <trkpt lat="47.687490" lon="8.015190">
        <ele>937.184273</ele>
        <time>2021-11-21T11:58:11.092Z</time>
      </trkpt>
      <trkpt lat="47.686930" lon="8.015043">
        <ele>932.797532</ele>
        <time>2021-11-21T11:58:16.130Z</time>
      </trkpt>
      <trkpt lat="47.686756" lon="8.015038">
        <ele>931.455053</ele>
        <time>2021-11-21T11:58:17.646Z</time>
      </trkpt>
      <trkpt lat="47.686668" lon="8.015036">
        <ele>930.776146</ele>
        <time>2021-11-21T11:58:18.439Z</time>
      </trkpt>
      <trkpt lat="47.686492" lon="8.015040">
        <ele>929.427452</ele>
        <time>2021-11-21T11:58:20.034Z</time>
      </trkpt>
      <trkpt lat="47.686307" lon="8.015044">
        <ele>928.034647</ele>
        <time>2021-11-21T11:58:21.651Z</time>
      </trkpt>
      <trkpt lat="47.685997" lon="8.015101">
        <ele>925.683195</ele>
        <time>2021-11-21T11:58:24.450Z</time>
      </trkpt>
      <trkpt lat="47.685071" lon="8.015391">
        <ele>918.559140</ele>
        <time>2021-11-21T11:58:32.977Z</time>
      </trkpt>
      <trkpt lat="47.685055" lon="8.015288">
        <ele>918.023440</ele>
        <time>2021-11-21T11:58:33.846Z</time>
      </trkpt>
      <trkpt lat="47.684995" lon="8.015181">
        <ele>917.317713</ele>
        <time>2021-11-21T11:58:34.993Z</time>
      </trkpt>
      <trkpt lat="47.684659" lon="8.015251">
        <ele>914.506977</ele>
        <time>2021-11-21T11:58:39.272Z</time>
      </trkpt>
      <trkpt lat="47.684265" lon="8.015017">
        <ele>910.763638</ele>
        <time>2021-11-21T11:58:44.511Z</time>
      </trkpt>
      <trkpt lat="47.684056" lon="8.014835">
        <ele>908.626391</ele>
        <time>2021-11-21T11:58:47.556Z</time>
      </trkpt>
      <trkpt lat="47.684174" lon="8.014751">
        <ele>907.472045</ele>
        <time>2021-11-21T11:58:49.125Z</time>
      </trkpt>
      <trkpt lat="47.684412" lon="8.014496">
        <ele>904.883248</ele>
        <time>2021-11-21T11:58:52.707Z</time>
      </trkpt>
      <trkpt lat="47.684729" lon="8.013793">
        <ele>900.131714</ele>
        <time>2021-11-21T11:58:59.737Z</time>
      </trkpt>
      <trkpt lat="47.684700" lon="8.013551">
        <ele>899.424078</ele>
        <time>2021-11-21T11:59:01.919Z</time>
      </trkpt>
      <trkpt lat="47.684365" lon="8.013166">
        <ele>897.612799</ele>
        <time>2021-11-21T11:59:07.299Z</time>
      </trkpt>
      <trkpt lat="47.684309" lon="8.013023">
        <ele>897.136534</ele>
        <time>2021-11-21T11:59:08.682Z</time>
      </trkpt>
      <trkpt lat="47.684282" lon="8.012870">
        <ele>896.681183</ele>
        <time>2021-11-21T11:59:10.960Z</time>
      </trkpt>
      <trkpt lat="47.684291" lon="8.012371">
        <ele>895.244102</ele>
        <time>2021-11-21T11:59:15.905Z</time>
      </trkpt>
      <trkpt lat="47.684454" lon="8.011879">
        <ele>893.665469</ele>
        <time>2021-11-21T11:59:21.978Z</time>
      </trkpt>
      <trkpt lat="47.684458" lon="8.011679">
        <ele>893.089439</ele>
        <time>2021-11-21T11:59:25.081Z</time>
      </trkpt>
      <trkpt lat="47.684121" lon="8.009664">
        <ele>891.104293</ele>
        <time>2021-11-21T11:59:49.374Z</time>
      </trkpt>
      <trkpt lat="47.684087" lon="8.009503">
        <ele>890.965726</ele>
        <time>2021-11-21T11:59:51.757Z</time>
      </trkpt>
      <trkpt lat="47.684063" lon="8.009475">
        <ele>890.928500</ele>
        <time>2021-11-21T11:59:52.273Z</time>
      </trkpt>
      <trkpt lat="47.684011" lon="8.009417">
        <ele>890.849177</ele>
        <time>2021-11-21T11:59:53.287Z</time>
      </trkpt>
      <trkpt lat="47.683855" lon="8.009337">
        <ele>890.647862</ele>
        <time>2021-11-21T11:59:55.777Z</time>
      </trkpt>
      <trkpt lat="47.683675" lon="8.009326">
        <ele>890.405137</ele>
        <time>2021-11-21T11:59:57.950Z</time>
      </trkpt>
      <trkpt lat="47.683573" lon="8.009307">
        <ele>890.241532</ele>
        <time>2021-11-21T11:59:59.015Z</time>
      </trkpt>
      <trkpt lat="47.683523" lon="8.009238">
        <ele>890.132915</ele>
        <time>2021-11-21T11:59:59.660Z</time>
      </trkpt>
      <trkpt lat="47.683340" lon="8.008943">
        <ele>889.703117</ele>
        <time>2021-11-21T12:00:02.779Z</time>
      </trkpt>
      <trkpt lat="47.682426" lon="8.008412">
        <ele>888.141180</ele>
        <time>2021-11-21T12:00:13.489Z</time>
      </trkpt>
      <trkpt lat="47.682230" lon="8.008312">
        <ele>887.811357</ele>
        <time>2021-11-21T12:00:15.838Z</time>
      </trkpt>
      <trkpt lat="47.681736" lon="8.007910">
        <ele>888.093291</ele>
        <time>2021-11-21T12:00:24.939Z</time>
      </trkpt>
      <trkpt lat="47.681500" lon="8.007683">
        <ele>888.372068</ele>
        <time>2021-11-21T12:00:29.922Z</time>
      </trkpt>
      <trkpt lat="47.681188" lon="8.007224">
        <ele>888.807477</ele>
        <time>2021-11-21T12:00:38.536Z</time>
      </trkpt>
      <trkpt lat="47.681138" lon="8.007153">
        <ele>888.876063</ele>
        <time>2021-11-21T12:00:40.383Z</time>
      </trkpt>
      <trkpt lat="47.680982" lon="8.006933">
        <ele>889.089353</ele>
        <time>2021-11-21T12:00:44.625Z</time>
      </trkpt>
      <trkpt lat="47.680882" lon="8.006893">
        <ele>889.192037</ele>
        <time>2021-11-21T12:00:47.930Z</time>
      </trkpt>
      <trkpt lat="47.680803" lon="8.006859">
        <ele>889.273589</ele>
        <time>2021-11-21T12:00:50.529Z</time>
      </trkpt>
      <trkpt lat="47.680693" lon="8.006814">
        <ele>889.386717</ele>
        <time>2021-11-21T12:00:53.488Z</time>
      </trkpt>
      <trkpt lat="47.680652" lon="8.006809">
        <ele>889.433911</ele>
        <time>2021-11-21T12:00:54.521Z</time>
      </trkpt>
      <trkpt lat="47.680648" lon="8.006658">
        <ele>889.738598</ele>
        <time>2021-11-21T12:00:57.085Z</time>
      </trkpt>
      <trkpt lat="47.680615" lon="8.006508">
        <ele>890.056770</ele>
        <time>2021-11-21T12:00:59.899Z</time>
      </trkpt>
      <trkpt lat="47.680502" lon="8.006372">
        <ele>890.492324</ele>
        <time>2021-11-21T12:01:02.759Z</time>
      </trkpt>
      <trkpt lat="47.680030" lon="8.006118">
        <ele>891.995746</ele>
        <time>2021-11-21T12:01:15.118Z</time>
      </trkpt>
      <trkpt lat="47.678968" lon="8.005160">
        <ele>896.232077</ele>
        <time>2021-11-21T12:01:51.158Z</time>
      </trkpt>
      <trkpt lat="47.678382" lon="8.004891">
        <ele>899.113643</ele>
        <time>2021-11-21T12:02:13.352Z</time>
      </trkpt>
      <trkpt lat="47.677950" lon="8.004730">
        <ele>901.206132</ele>
        <time>2021-11-21T12:02:29.290Z</time>
      </trkpt>
      <trkpt lat="47.677356" lon="8.004495">
        <ele>903.792161</ele>
        <time>2021-11-21T12:02:50.093Z</time>
      </trkpt>
      <trkpt lat="47.676834" lon="8.004390">
        <ele>905.370093</ele>
        <time>2021-11-21T12:03:07.008Z</time>
      </trkpt>
      <trkpt lat="47.675442" lon="8.004556">
        <ele>909.326996</ele>
        <time>2021-11-21T12:03:39.033Z</time>
      </trkpt>
      <trkpt lat="47.675284" lon="8.004574">
        <ele>909.682929</ele>
        <time>2021-11-21T12:03:42.533Z</time>
      </trkpt>
      <trkpt lat="47.675149" lon="8.004551">
        <ele>909.988147</ele>
        <time>2021-11-21T12:03:45.066Z</time>
      </trkpt>
      <trkpt lat="47.675149" lon="8.004551">
        <ele>909.988147</ele>
        <time>2021-11-21T12:03:45.072Z</time>
      </trkpt>
      <trkpt lat="47.674992" lon="8.004437">
        <ele>910.380684</ele>
        <time>2021-11-21T12:03:48.817Z</time>
      </trkpt>
      <trkpt lat="47.674127" lon="8.003573">
        <ele>912.742775</ele>
        <time>2021-11-21T12:04:13.653Z</time>
      </trkpt>
      <trkpt lat="47.673327" lon="8.002483">
        <ele>916.689290</ele>
        <time>2021-11-21T12:04:47.651Z</time>
      </trkpt>
      <trkpt lat="47.673161" lon="8.002175">
        <ele>917.654940</ele>
        <time>2021-11-21T12:04:55.025Z</time>
      </trkpt>
      <trkpt lat="47.673136" lon="8.002102">
        <ele>917.855405</ele>
        <time>2021-11-21T12:04:58.174Z</time>
      </trkpt>
      <trkpt lat="47.673101" lon="8.002002">
        <ele>918.131268</ele>
        <time>2021-11-21T12:05:00.338Z</time>
      </trkpt>
      <trkpt lat="47.673035" lon="8.001808">
        <ele>918.663292</ele>
        <time>2021-11-21T12:05:04.382Z</time>
      </trkpt>
      <trkpt lat="47.672841" lon="8.001235">
        <ele>919.252452</ele>
        <time>2021-11-21T12:05:16.145Z</time>
      </trkpt>
      <trkpt lat="47.672618" lon="8.000438">
        <ele>919.305859</ele>
        <time>2021-11-21T12:05:30.985Z</time>
      </trkpt>
      <trkpt lat="47.672451" lon="7.999830">
        <ele>919.346492</ele>
        <time>2021-11-21T12:05:38.568Z</time>
      </trkpt>
      <trkpt lat="47.672397" lon="7.999575">
        <ele>919.363034</ele>
        <time>2021-11-21T12:05:40.266Z</time>
      </trkpt>
      <trkpt lat="47.672112" lon="7.998110">
        <ele>915.169755</ele>
        <time>2021-11-21T12:05:49.978Z</time>
      </trkpt>
      <trkpt lat="47.672045" lon="7.997989">
        <ele>914.540876</ele>
        <time>2021-11-21T12:05:50.929Z</time>
      </trkpt>
      <trkpt lat="47.671926" lon="7.997854">
        <ele>913.648128</ele>
        <time>2021-11-21T12:05:52.348Z</time>
      </trkpt>
      <trkpt lat="47.671816" lon="7.997769">
        <ele>912.908884</ele>
        <time>2021-11-21T12:05:53.417Z</time>
      </trkpt>
      <trkpt lat="47.671538" lon="7.997730">
        <ele>911.244174</ele>
        <time>2021-11-21T12:05:55.949Z</time>
      </trkpt>
      <trkpt lat="47.671306" lon="7.997806">
        <ele>909.827825</ele>
        <time>2021-11-21T12:05:58.061Z</time>
      </trkpt>
      <trkpt lat="47.669847" lon="7.998499">
        <ele>900.487400</ele>
        <time>2021-11-21T12:06:11.891Z</time>
      </trkpt>
      <trkpt lat="47.669641" lon="7.998743">
        <ele>898.875451</ele>
        <time>2021-11-21T12:06:14.391Z</time>
      </trkpt>
      <trkpt lat="47.669544" lon="7.998925">
        <ele>897.919300</ele>
        <time>2021-11-21T12:06:15.915Z</time>
      </trkpt>
      <trkpt lat="47.669420" lon="7.999156">
        <ele>897.147446</ele>
        <time>2021-11-21T12:06:17.814Z</time>
      </trkpt>
      <trkpt lat="47.669290" lon="7.999340">
        <ele>896.556001</ele>
        <time>2021-11-21T12:06:19.610Z</time>
      </trkpt>
      <trkpt lat="47.669248" lon="7.999094">
        <ele>895.993178</ele>
        <time>2021-11-21T12:06:21.197Z</time>
      </trkpt>
      <trkpt lat="47.669358" lon="7.998395">
        <ele>894.401221</ele>
        <time>2021-11-21T12:06:26.083Z</time>
      </trkpt>
      <trkpt lat="47.669539" lon="7.997243">
        <ele>891.777787</ele>
        <time>2021-11-21T12:06:34.620Z</time>
      </trkpt>
      <trkpt lat="47.669619" lon="7.997017">
        <ele>891.446900</ele>
        <time>2021-11-21T12:06:36.294Z</time>
      </trkpt>
      <trkpt lat="47.669831" lon="7.996589">
        <ele>890.790364</ele>
        <time>2021-11-21T12:06:40.358Z</time>
      </trkpt>
      <trkpt lat="47.670186" lon="7.996072">
        <ele>889.877967</ele>
        <time>2021-11-21T12:06:46.259Z</time>
      </trkpt>
      <trkpt lat="47.670973" lon="7.995384">
        <ele>888.164642</ele>
        <time>2021-11-21T12:06:56.500Z</time>
      </trkpt>
      <trkpt lat="47.671317" lon="7.994957">
        <ele>887.213440</ele>
        <time>2021-11-21T12:07:01.381Z</time>
      </trkpt>
      <trkpt lat="47.671520" lon="7.994659">
        <ele>886.607851</ele>
        <time>2021-11-21T12:07:04.398Z</time>
      </trkpt>
      <trkpt lat="47.671686" lon="7.994411">
        <ele>886.108288</ele>
        <time>2021-11-21T12:07:06.892Z</time>
      </trkpt>
      <trkpt lat="47.671826" lon="7.994135">
        <ele>885.614632</ele>
        <time>2021-11-21T12:07:09.367Z</time>
      </trkpt>
      <trkpt lat="47.672006" lon="7.993755">
        <ele>884.950890</ele>
        <time>2021-11-21T12:07:12.706Z</time>
      </trkpt>
      <trkpt lat="47.672136" lon="7.993593">
        <ele>884.630942</ele>
        <time>2021-11-21T12:07:14.530Z</time>
      </trkpt>
      <trkpt lat="47.672371" lon="7.993368">
        <ele>884.703500</ele>
        <time>2021-11-21T12:07:17.734Z</time>
      </trkpt>
      <trkpt lat="47.672456" lon="7.993266">
        <ele>884.731858</ele>
        <time>2021-11-21T12:07:19.004Z</time>
      </trkpt>
      <trkpt lat="47.672623" lon="7.992419">
        <ele>884.886077</ele>
        <time>2021-11-21T12:07:27.268Z</time>
      </trkpt>
      <trkpt lat="47.672623" lon="7.991767">
        <ele>885.000007</ele>
        <time>2021-11-21T12:07:35.897Z</time>
      </trkpt>
      <trkpt lat="47.672637" lon="7.991141">
        <ele>885.250797</ele>
        <time>2021-11-21T12:07:45.806Z</time>
      </trkpt>
      <trkpt lat="47.672749" lon="7.990628">
        <ele>886.170674</ele>
        <time>2021-11-21T12:07:55.238Z</time>
      </trkpt>
      <trkpt lat="47.672850" lon="7.990405">
        <ele>886.629086</ele>
        <time>2021-11-21T12:08:00.007Z</time>
      </trkpt>
      <trkpt lat="47.673103" lon="7.989804">
        <ele>887.838061</ele>
        <time>2021-11-21T12:08:12.274Z</time>
      </trkpt>
      <trkpt lat="47.673198" lon="7.989408">
        <ele>888.555107</ele>
        <time>2021-11-21T12:08:19.719Z</time>
      </trkpt>
      <trkpt lat="47.673237" lon="7.989155">
        <ele>888.997813</ele>
        <time>2021-11-21T12:08:24.395Z</time>
      </trkpt>
      <trkpt lat="47.673199" lon="7.989078">
        <ele>889.160649</ele>
        <time>2021-11-21T12:08:25.763Z</time>
      </trkpt>
      <trkpt lat="47.672536" lon="7.988775">
        <ele>890.740214</ele>
        <time>2021-11-21T12:08:42.317Z</time>
      </trkpt>
      <trkpt lat="47.672435" lon="7.988752">
        <ele>890.962801</ele>
        <time>2021-11-21T12:08:44.170Z</time>
      </trkpt>
      <trkpt lat="47.672243" lon="7.988749">
        <ele>891.381072</ele>
        <time>2021-11-21T12:08:48.445Z</time>
      </trkpt>
      <trkpt lat="47.671870" lon="7.988726">
        <ele>892.194306</ele>
        <time>2021-11-21T12:08:55.750Z</time>
      </trkpt>
      <trkpt lat="47.671639" lon="7.988659">
        <ele>892.707018</ele>
        <time>2021-11-21T12:08:59.924Z</time>
      </trkpt>
      <trkpt lat="47.671545" lon="7.988609">
        <ele>892.924524</ele>
        <time>2021-11-21T12:09:02.429Z</time>
      </trkpt>
      <trkpt lat="47.671417" lon="7.988508">
        <ele>893.240273</ele>
        <time>2021-11-21T12:09:06.075Z</time>
      </trkpt>
      <trkpt lat="47.670723" lon="7.987851">
        <ele>897.512970</ele>
        <time>2021-11-21T12:09:31.878Z</time>
      </trkpt>
      <trkpt lat="47.670529" lon="7.987437">
        <ele>899.504805</ele>
        <time>2021-11-21T12:09:45.262Z</time>
      </trkpt>
      <trkpt lat="47.670514" lon="7.987325">
        <ele>899.955770</ele>
        <time>2021-11-21T12:09:48.619Z</time>
      </trkpt>
      <trkpt lat="47.670521" lon="7.987149">
        <ele>900.652027</ele>
        <time>2021-11-21T12:09:53.818Z</time>
      </trkpt>
      <trkpt lat="47.670573" lon="7.987026">
        <ele>901.225562</ele>
        <time>2021-11-21T12:09:58.091Z</time>
      </trkpt>
      <trkpt lat="47.670979" lon="7.986658">
        <ele>904.015029</ele>
        <time>2021-11-21T12:10:19.216Z</time>
      </trkpt>
      <trkpt lat="47.671726" lon="7.986142">
        <ele>910.813537</ele>
        <time>2021-11-21T12:11:00.006Z</time>
      </trkpt>
      <trkpt lat="47.672689" lon="7.985529">
        <ele>919.481860</ele>
        <time>2021-11-21T12:11:51.150Z</time>
      </trkpt>
      <trkpt lat="47.673285" lon="7.984646">
        <ele>926.004796</ele>
        <time>2021-11-21T12:12:29.134Z</time>
      </trkpt>
      <trkpt lat="47.673324" lon="7.984569">
        <ele>926.507489</ele>
        <time>2021-11-21T12:12:32.823Z</time>
      </trkpt>
      <trkpt lat="47.673355" lon="7.984478">
        <ele>927.039564</ele>
        <time>2021-11-21T12:12:35.335Z</time>
      </trkpt>
      <trkpt lat="47.673522" lon="7.983927">
        <ele>930.192075</ele>
        <time>2021-11-21T12:12:52.280Z</time>
      </trkpt>
      <trkpt lat="47.673586" lon="7.983656">
        <ele>931.690393</ele>
        <time>2021-11-21T12:13:00.774Z</time>
      </trkpt>
      <trkpt lat="47.673720" lon="7.983091">
        <ele>934.964453</ele>
        <time>2021-11-21T12:13:21.351Z</time>
      </trkpt>
      <trkpt lat="47.674147" lon="7.981783">
        <ele>943.165095</ele>
        <time>2021-11-21T12:14:09.062Z</time>
      </trkpt>
      <trkpt lat="47.674284" lon="7.981512">
        <ele>945.076875</ele>
        <time>2021-11-21T12:14:20.884Z</time>
      </trkpt>
      <trkpt lat="47.674448" lon="7.981189">
        <ele>947.359073</ele>
        <time>2021-11-21T12:14:34.582Z</time>
      </trkpt>
      <trkpt lat="47.674742" lon="7.980836">
        <ele>949.833787</ele>
        <time>2021-11-21T12:14:51.979Z</time>
      </trkpt>
      <trkpt lat="47.675138" lon="7.980563">
        <ele>952.466035</ele>
        <time>2021-11-21T12:15:10.642Z</time>
      </trkpt>
      <trkpt lat="47.675405" lon="7.980359">
        <ele>954.276364</ele>
        <time>2021-11-21T12:15:23.668Z</time>
      </trkpt>
      <trkpt lat="47.675873" lon="7.979993">
        <ele>957.465315</ele>
        <time>2021-11-21T12:15:41.459Z</time>
      </trkpt>
      <trkpt lat="47.676174" lon="7.979579">
        <ele>959.392802</ele>
        <time>2021-11-21T12:15:53.053Z</time>
      </trkpt>
      <trkpt lat="47.676487" lon="7.979027">
        <ele>960.782678</ele>
        <time>2021-11-21T12:16:06.586Z</time>
      </trkpt>
      <trkpt lat="47.676838" lon="7.978406">
        <ele>962.344213</ele>
        <time>2021-11-21T12:16:18.926Z</time>
      </trkpt>
      <trkpt lat="47.677026" lon="7.977911">
        <ele>963.438744</ele>
        <time>2021-11-21T12:16:27.654Z</time>
      </trkpt>
      <trkpt lat="47.677066" lon="7.977594">
        <ele>964.062207</ele>
        <time>2021-11-21T12:16:33.940Z</time>
      </trkpt>
      <trkpt lat="47.677078" lon="7.977246">
        <ele>964.836126</ele>
        <time>2021-11-21T12:16:40.716Z</time>
      </trkpt>
      <trkpt lat="47.676968" lon="7.976323">
        <ele>966.917972</ele>
        <time>2021-11-21T12:16:58.787Z</time>
      </trkpt>
      <trkpt lat="47.676950" lon="7.975747">
        <ele>968.198645</ele>
        <time>2021-11-21T12:17:09.684Z</time>
      </trkpt>
      <trkpt lat="47.676950" lon="7.975239">
        <ele>969.326913</ele>
        <time>2021-11-21T12:17:19.466Z</time>
      </trkpt>
      <trkpt lat="47.676873" lon="7.974926">
        <ele>970.045584</ele>
        <time>2021-11-21T12:17:25.573Z</time>
      </trkpt>
      <trkpt lat="47.676814" lon="7.974718">
        <ele>970.426393</ele>
        <time>2021-11-21T12:17:30.115Z</time>
      </trkpt>
      <trkpt lat="47.676281" lon="7.973851">
        <ele>972.407223</ele>
        <time>2021-11-21T12:17:52.125Z</time>
      </trkpt>
      <trkpt lat="47.675979" lon="7.973418">
        <ele>973.459089</ele>
        <time>2021-11-21T12:18:01.980Z</time>
      </trkpt>
      <trkpt lat="47.675610" lon="7.972964">
        <ele>974.548363</ele>
        <time>2021-11-21T12:18:11.314Z</time>
      </trkpt>
      <trkpt lat="47.675086" lon="7.972386">
        <ele>975.141889</ele>
        <time>2021-11-21T12:18:24.084Z</time>
      </trkpt>
      <trkpt lat="47.674347" lon="7.971883">
        <ele>975.881084</ele>
        <time>2021-11-21T12:18:39.508Z</time>
      </trkpt>
      <trkpt lat="47.673254" lon="7.971122">
        <ele>976.930017</ele>
        <time>2021-11-21T12:18:57.430Z</time>
      </trkpt>
      <trkpt lat="47.673109" lon="7.971026">
        <ele>977.066177</ele>
        <time>2021-11-21T12:19:00.466Z</time>
      </trkpt>
      <trkpt lat="47.672176" lon="7.970439">
        <ele>978.637073</ele>
        <time>2021-11-21T12:19:21.838Z</time>
      </trkpt>
      <trkpt lat="47.671650" lon="7.970032">
        <ele>980.457516</ele>
        <time>2021-11-21T12:19:38.187Z</time>
      </trkpt>
      <trkpt lat="47.671398" lon="7.969882">
        <ele>981.290794</ele>
        <time>2021-11-21T12:19:45.694Z</time>
      </trkpt>
      <trkpt lat="47.671067" lon="7.969787">
        <ele>982.325527</ele>
        <time>2021-11-21T12:19:55.401Z</time>
      </trkpt>
      <trkpt lat="47.670622" lon="7.969776">
        <ele>983.917231</ele>
        <time>2021-11-21T12:20:09.279Z</time>
      </trkpt>
      <trkpt lat="47.670396" lon="7.969757">
        <ele>984.920691</ele>
        <time>2021-11-21T12:20:16.709Z</time>
      </trkpt>
      <trkpt lat="47.669908" lon="7.969698">
        <ele>987.091148</ele>
        <time>2021-11-21T12:20:31.621Z</time>
      </trkpt>
      <trkpt lat="47.669533" lon="7.969484">
        <ele>988.872042</ele>
        <time>2021-11-21T12:20:44.576Z</time>
      </trkpt>
      <trkpt lat="47.669518" lon="7.969476">
        <ele>988.942695</ele>
        <time>2021-11-21T12:20:45.227Z</time>
      </trkpt>
      <trkpt lat="47.669413" lon="7.969379">
        <ele>989.490878</ele>
        <time>2021-11-21T12:20:49.734Z</time>
      </trkpt>
      <trkpt lat="47.669206" lon="7.969188">
        <ele>990.571222</ele>
        <time>2021-11-21T12:20:58.508Z</time>
      </trkpt>
      <trkpt lat="47.668412" lon="7.968654">
        <ele>995.351822</ele>
        <time>2021-11-21T12:22:25.388Z</time>
      </trkpt>
      <trkpt lat="47.668201" lon="7.968540">
        <ele>996.625487</ele>
        <time>2021-11-21T12:22:48.361Z</time>
      </trkpt>
      <trkpt lat="47.667792" lon="7.968449">
        <ele>998.971449</ele>
        <time>2021-11-21T12:23:31.085Z</time>
      </trkpt>
      <trkpt lat="47.667536" lon="7.968447">
        <ele>1000.423637</ele>
        <time>2021-11-21T12:23:57.797Z</time>
      </trkpt>
      <trkpt lat="47.667374" lon="7.968513">
        <ele>1001.378224</ele>
        <time>2021-11-21T12:24:15.364Z</time>
      </trkpt>
      <trkpt lat="47.666498" lon="7.969286">
        <ele>1007.738633</ele>
        <time>2021-11-21T12:26:03.334Z</time>
      </trkpt>
      <trkpt lat="47.665800" lon="7.969529">
        <ele>1012.213546</ele>
        <time>2021-11-21T12:27:17.008Z</time>
      </trkpt>
      <trkpt lat="47.665156" lon="7.969527">
        <ele>1014.890368</ele>
        <time>2021-11-21T12:28:24.316Z</time>
      </trkpt>
      <trkpt lat="47.664565" lon="7.969261">
        <ele>1017.325526</ele>
        <time>2021-11-21T12:29:24.307Z</time>
      </trkpt>
      <trkpt lat="47.664141" lon="7.969002">
        <ele>1019.133409</ele>
        <time>2021-11-21T12:30:06.818Z</time>
      </trkpt>
      <trkpt lat="47.662287" lon="7.967971">
        <ele>1019.189826</ele>
        <time>2021-11-21T12:30:32.703Z</time>
      </trkpt>
      <trkpt lat="47.661887" lon="7.967890">
        <ele>1019.450078</ele>
        <time>2021-11-21T12:30:37.275Z</time>
      </trkpt>
      <trkpt lat="47.661792" lon="7.967846">
        <ele>1019.514231</ele>
        <time>2021-11-21T12:30:38.907Z</time>
      </trkpt>
      <trkpt lat="47.661761" lon="7.967552">
        <ele>1019.643436</ele>
        <time>2021-11-21T12:30:43.060Z</time>
      </trkpt>
      <trkpt lat="47.661796" lon="7.966756">
        <ele>1019.989782</ele>
        <time>2021-11-21T12:30:54.830Z</time>
      </trkpt>
      <trkpt lat="47.661902" lon="7.966267">
        <ele>1020.212823</ele>
        <time>2021-11-21T12:31:04.079Z</time>
      </trkpt>
      <trkpt lat="47.662040" lon="7.965667">
        <ele>1021.397336</ele>
        <time>2021-11-21T12:31:17.864Z</time>
      </trkpt>
      <trkpt lat="47.662075" lon="7.965295">
        <ele>1022.451982</ele>
        <time>2021-11-21T12:31:28.750Z</time>
      </trkpt>
      <trkpt lat="47.662051" lon="7.964871">
        <ele>1023.646688</ele>
        <time>2021-11-21T12:31:39.979Z</time>
      </trkpt>
      <trkpt lat="47.661756" lon="7.963432">
        <ele>1027.834181</ele>
        <time>2021-11-21T12:32:19.618Z</time>
      </trkpt>
      <trkpt lat="47.661644" lon="7.963262">
        <ele>1028.020447</ele>
        <time>2021-11-21T12:32:26.395Z</time>
      </trkpt>
      <trkpt lat="47.661650" lon="7.962912">
        <ele>1028.294675</ele>
        <time>2021-11-21T12:32:54.517Z</time>
      </trkpt>
      <trkpt lat="47.661588" lon="7.962112">
        <ele>1028.925414</ele>
        <time>2021-11-21T12:34:00.680Z</time>
      </trkpt>
      <trkpt lat="47.660846" lon="7.958931">
        <ele>1026.950838</ele>
        <time>2021-11-21T12:38:02.245Z</time>
      </trkpt>
      <trkpt lat="47.660671" lon="7.958058">
        <ele>1024.738602</ele>
        <time>2021-11-21T12:39:03.033Z</time>
      </trkpt>
      <trkpt lat="47.660751" lon="7.957902">
        <ele>1023.936545</ele>
        <time>2021-11-21T12:39:15.154Z</time>
      </trkpt>
      <trkpt lat="47.661015" lon="7.957195">
        <ele>1020.629751</ele>
        <time>2021-11-21T12:40:07.513Z</time>
      </trkpt>
      <trkpt lat="47.661342" lon="7.956300">
        <ele>1016.464690</ele>
        <time>2021-11-21T12:41:11.683Z</time>
      </trkpt>
      <trkpt lat="47.661415" lon="7.955835">
        <ele>1013.998551</ele>
        <time>2021-11-21T12:41:40.955Z</time>
      </trkpt>
      <trkpt lat="47.661061" lon="7.954036">
        <ele>1000.890621</ele>
        <time>2021-11-21T12:43:32.827Z</time>
      </trkpt>
      <trkpt lat="47.660802" lon="7.953541">
        <ele>996.488402</ele>
        <time>2021-11-21T12:44:09.281Z</time>
      </trkpt>
      <trkpt lat="47.660620" lon="7.953158">
        <ele>992.018238</ele>
        <time>2021-11-21T12:44:11.903Z</time>
      </trkpt>
      <trkpt lat="47.660508" lon="7.952786">
        <ele>988.132242</ele>
        <time>2021-11-21T12:44:14.169Z</time>
      </trkpt>
      <trkpt lat="47.660486" lon="7.952512">
        <ele>985.500665</ele>
        <time>2021-11-21T12:44:15.745Z</time>
      </trkpt>
      <trkpt lat="47.660489" lon="7.952462">
        <ele>985.021938</ele>
        <time>2021-11-21T12:44:16.027Z</time>
      </trkpt>
      <trkpt lat="47.660499" lon="7.952275">
        <ele>983.232950</ele>
        <time>2021-11-21T12:44:17.064Z</time>
      </trkpt>
      <trkpt lat="47.660593" lon="7.951494">
        <ele>975.666751</ele>
        <time>2021-11-21T12:44:21.535Z</time>
      </trkpt>
      <trkpt lat="47.660631" lon="7.951207">
        <ele>972.877318</ele>
        <time>2021-11-21T12:44:23.158Z</time>
      </trkpt>
      <trkpt lat="47.660619" lon="7.950950">
        <ele>970.718071</ele>
        <time>2021-11-21T12:44:24.701Z</time>
      </trkpt>
      <trkpt lat="47.660429" lon="7.950487">
        <ele>967.848729</ele>
        <time>2021-11-21T12:44:27.805Z</time>
      </trkpt>
      <trkpt lat="47.660367" lon="7.950409">
        <ele>967.210179</ele>
        <time>2021-11-21T12:44:28.470Z</time>
      </trkpt>
      <trkpt lat="47.660238" lon="7.950247">
        <ele>965.882574</ele>
        <time>2021-11-21T12:44:29.929Z</time>
      </trkpt>
      <trkpt lat="47.660004" lon="7.950556">
        <ele>963.421853</ele>
        <time>2021-11-21T12:44:32.719Z</time>
      </trkpt>
      <trkpt lat="47.659913" lon="7.950637">
        <ele>962.588148</ele>
        <time>2021-11-21T12:44:33.689Z</time>
      </trkpt>
      <trkpt lat="47.659673" lon="7.950850">
        <ele>960.391066</ele>
        <time>2021-11-21T12:44:36.167Z</time>
      </trkpt>
      <trkpt lat="47.659356" lon="7.950988">
        <ele>957.795314</ele>
        <time>2021-11-21T12:44:39.268Z</time>
      </trkpt>
      <trkpt lat="47.658212" lon="7.950741">
        <ele>957.353199</ele>
        <time>2021-11-21T12:44:56.790Z</time>
      </trkpt>
      <trkpt lat="47.658137" lon="7.950769">
        <ele>957.382479</ele>
        <time>2021-11-21T12:44:57.478Z</time>
      </trkpt>
      <trkpt lat="47.658067" lon="7.950840">
        <ele>957.414577</ele>
        <time>2021-11-21T12:45:00.406Z</time>
      </trkpt>
      <trkpt lat="47.658012" lon="7.951101">
        <ele>957.484319</ele>
        <time>2021-11-21T12:45:06.532Z</time>
      </trkpt>
      <trkpt lat="47.657992" lon="7.951882">
        <ele>958.020374</ele>
        <time>2021-11-21T12:45:17.840Z</time>
      </trkpt>
      <trkpt lat="47.657983" lon="7.952053">
        <ele>958.379615</ele>
        <time>2021-11-21T12:45:22.425Z</time>
      </trkpt>
      <trkpt lat="47.657976" lon="7.952208">
        <ele>958.704983</ele>
        <time>2021-11-21T12:45:25.628Z</time>
      </trkpt>
      <trkpt lat="47.657919" lon="7.952378">
        <ele>959.102715</ele>
        <time>2021-11-21T12:45:27.388Z</time>
      </trkpt>
      <trkpt lat="47.657770" lon="7.952518">
        <ele>959.651027</ele>
        <time>2021-11-21T12:45:34.439Z</time>
      </trkpt>
      <trkpt lat="47.657537" lon="7.952516">
        <ele>960.375561</ele>
        <time>2021-11-21T12:45:40.143Z</time>
      </trkpt>
      <trkpt lat="47.656896" lon="7.952362">
        <ele>962.394704</ele>
        <time>2021-11-21T12:46:01.030Z</time>
      </trkpt>
      <trkpt lat="47.656213" lon="7.951998">
        <ele>962.774108</ele>
        <time>2021-11-21T12:46:17.206Z</time>
      </trkpt>
      <trkpt lat="47.655988" lon="7.951976">
        <ele>962.549260</ele>
        <time>2021-11-21T12:46:20.547Z</time>
      </trkpt>
      <trkpt lat="47.655464" lon="7.952041">
        <ele>962.024926</ele>
        <time>2021-11-21T12:46:26.683Z</time>
      </trkpt>
      <trkpt lat="47.655142" lon="7.952105">
        <ele>961.700975</ele>
        <time>2021-11-21T12:46:30.141Z</time>
      </trkpt>
      <trkpt lat="47.654437" lon="7.952107">
        <ele>958.644656</ele>
        <time>2021-11-21T12:46:36.882Z</time>
      </trkpt>
      <trkpt lat="47.654162" lon="7.952098">
        <ele>956.897944</ele>
        <time>2021-11-21T12:46:39.466Z</time>
      </trkpt>
      <trkpt lat="47.654002" lon="7.952148">
        <ele>955.859656</ele>
        <time>2021-11-21T12:46:40.988Z</time>
      </trkpt>
      <trkpt lat="47.653838" lon="7.952265">
        <ele>954.704222</ele>
        <time>2021-11-21T12:46:42.637Z</time>
      </trkpt>
      <trkpt lat="47.653658" lon="7.952530">
        <ele>953.094434</ele>
        <time>2021-11-21T12:46:44.943Z</time>
      </trkpt>
      <trkpt lat="47.653621" lon="7.952638">
        <ele>952.576146</ele>
        <time>2021-11-21T12:46:45.654Z</time>
      </trkpt>
      <trkpt lat="47.653534" lon="7.952964">
        <ele>951.076223</ele>
        <time>2021-11-21T12:46:47.753Z</time>
      </trkpt>
      <trkpt lat="47.653397" lon="7.953519">
        <ele>947.775943</ele>
        <time>2021-11-21T12:46:51.192Z</time>
      </trkpt>
      <trkpt lat="47.653232" lon="7.953921">
        <ele>944.702751</ele>
        <time>2021-11-21T12:46:53.904Z</time>
      </trkpt>
      <trkpt lat="47.653150" lon="7.954055">
        <ele>943.520879</ele>
        <time>2021-11-21T12:46:54.962Z</time>
      </trkpt>
      <trkpt lat="47.653010" lon="7.954195">
        <ele>941.884950</ele>
        <time>2021-11-21T12:46:56.397Z</time>
      </trkpt>
      <trkpt lat="47.652759" lon="7.954322">
        <ele>939.314975</ele>
        <time>2021-11-21T12:46:58.714Z</time>
      </trkpt>
      <trkpt lat="47.652456" lon="7.954367">
        <ele>936.363799</ele>
        <time>2021-11-21T12:47:01.373Z</time>
      </trkpt>
      <trkpt lat="47.652316" lon="7.954403">
        <ele>934.986787</ele>
        <time>2021-11-21T12:47:02.577Z</time>
      </trkpt>
      <trkpt lat="47.651722" lon="7.954620">
        <ele>929.246609</ele>
        <time>2021-11-21T12:47:07.853Z</time>
      </trkpt>
      <trkpt lat="47.651448" lon="7.954944">
        <ele>926.033019</ele>
        <time>2021-11-21T12:47:10.846Z</time>
      </trkpt>
      <trkpt lat="47.651422" lon="7.955139">
        <ele>924.804584</ele>
        <time>2021-11-21T12:47:11.977Z</time>
      </trkpt>
      <trkpt lat="47.651511" lon="7.956139">
        <ele>918.571106</ele>
        <time>2021-11-21T12:47:17.921Z</time>
      </trkpt>
      <trkpt lat="47.651516" lon="7.956396">
        <ele>916.982243</ele>
        <time>2021-11-21T12:47:19.459Z</time>
      </trkpt>
      <trkpt lat="47.651292" lon="7.956406">
        <ele>915.318823</ele>
        <time>2021-11-21T12:47:21.482Z</time>
      </trkpt>
      <trkpt lat="47.651095" lon="7.956386">
        <ele>914.122004</ele>
        <time>2021-11-21T12:47:23.268Z</time>
      </trkpt>
      <trkpt lat="47.650842" lon="7.956246">
        <ele>912.485479</ele>
        <time>2021-11-21T12:47:25.719Z</time>
      </trkpt>
      <trkpt lat="47.650655" lon="7.955948">
        <ele>910.822622</ele>
        <time>2021-11-21T12:47:28.247Z</time>
      </trkpt>
      <trkpt lat="47.650609" lon="7.955764">
        <ele>910.021278</ele>
        <time>2021-11-21T12:47:29.439Z</time>
      </trkpt>
      <trkpt lat="47.650592" lon="7.955306">
        <ele>908.148412</ele>
        <time>2021-11-21T12:47:32.261Z</time>
      </trkpt>
      <trkpt lat="47.650715" lon="7.954086">
        <ele>903.277054</ele>
        <time>2021-11-21T12:47:40.137Z</time>
      </trkpt>
      <trkpt lat="47.650679" lon="7.953702">
        <ele>901.820582</ele>
        <time>2021-11-21T12:47:42.771Z</time>
      </trkpt>
      <trkpt lat="47.650657" lon="7.953661">
        <ele>901.623667</ele>
        <time>2021-11-21T12:47:43.085Z</time>
      </trkpt>
      <trkpt lat="47.650633" lon="7.953615">
        <ele>901.405091</ele>
        <time>2021-11-21T12:47:43.422Z</time>
      </trkpt>
      <trkpt lat="47.650482" lon="7.953573">
        <ele>900.548366</ele>
        <time>2021-11-21T12:47:44.918Z</time>
      </trkpt>
      <trkpt lat="47.650345" lon="7.953699">
        <ele>899.649617</ele>
        <time>2021-11-21T12:47:46.484Z</time>
      </trkpt>
      <trkpt lat="47.650118" lon="7.954645">
        <ele>895.877030</ele>
        <time>2021-11-21T12:47:52.593Z</time>
      </trkpt>
      <trkpt lat="47.650002" lon="7.954933">
        <ele>894.535546</ele>
        <time>2021-11-21T12:47:54.631Z</time>
      </trkpt>
      <trkpt lat="47.649724" lon="7.955623">
        <ele>891.057939</ele>
        <time>2021-11-21T12:47:59.523Z</time>
      </trkpt>
      <trkpt lat="47.649631" lon="7.955853">
        <ele>889.897634</ele>
        <time>2021-11-21T12:48:01.214Z</time>
      </trkpt>
      <trkpt lat="47.649584" lon="7.955970">
        <ele>889.308409</ele>
        <time>2021-11-21T12:48:02.027Z</time>
      </trkpt>
      <trkpt lat="47.649402" lon="7.956302">
        <ele>887.456961</ele>
        <time>2021-11-21T12:48:04.731Z</time>
      </trkpt>
      <trkpt lat="47.649402" lon="7.956302">
        <ele>887.456961</ele>
        <time>2021-11-21T12:48:04.736Z</time>
      </trkpt>
      <trkpt lat="47.649197" lon="7.956371">
        <ele>886.107281</ele>
        <time>2021-11-21T12:48:06.659Z</time>
      </trkpt>
      <trkpt lat="47.648999" lon="7.956144">
        <ele>884.500929</ele>
        <time>2021-11-21T12:48:08.884Z</time>
      </trkpt>
      <trkpt lat="47.648843" lon="7.955710">
        <ele>882.333164</ele>
        <time>2021-11-21T12:48:11.870Z</time>
      </trkpt>
      <trkpt lat="47.648779" lon="7.955603">
        <ele>881.694096</ele>
        <time>2021-11-21T12:48:12.774Z</time>
      </trkpt>
      <trkpt lat="47.648720" lon="7.955532">
        <ele>881.190554</ele>
        <time>2021-11-21T12:48:13.472Z</time>
      </trkpt>
      <trkpt lat="47.648535" lon="7.955396">
        <ele>879.821892</ele>
        <time>2021-11-21T12:48:15.309Z</time>
      </trkpt>
      <trkpt lat="47.648456" lon="7.955339">
        <ele>879.239552</ele>
        <time>2021-11-21T12:48:16.133Z</time>
      </trkpt>
      <trkpt lat="47.648185" lon="7.955328">
        <ele>877.442233</ele>
        <time>2021-11-21T12:48:18.654Z</time>
      </trkpt>
      <trkpt lat="47.648068" lon="7.955382">
        <ele>876.629928</ele>
        <time>2021-11-21T12:48:19.786Z</time>
      </trkpt>
      <trkpt lat="47.647946" lon="7.955473">
        <ele>875.724730</ele>
        <time>2021-11-21T12:48:21.012Z</time>
      </trkpt>
      <trkpt lat="47.646613" lon="7.957202">
        <ele>863.573067</ele>
        <time>2021-11-21T12:48:36.861Z</time>
      </trkpt>
      <trkpt lat="47.646155" lon="7.957498">
        <ele>860.082312</ele>
        <time>2021-11-21T12:48:41.348Z</time>
      </trkpt>
      <trkpt lat="47.645747" lon="7.957554">
        <ele>857.506869</ele>
        <time>2021-11-21T12:48:45.078Z</time>
      </trkpt>
      <trkpt lat="47.645406" lon="7.957496">
        <ele>855.473718</ele>
        <time>2021-11-21T12:48:48.218Z</time>
      </trkpt>
      <trkpt lat="47.644164" lon="7.956750">
        <ele>847.660490</ele>
        <time>2021-11-21T12:49:00.586Z</time>
      </trkpt>
      <trkpt lat="47.643910" lon="7.956673">
        <ele>846.331432</ele>
        <time>2021-11-21T12:49:03.078Z</time>
      </trkpt>
      <trkpt lat="47.643852" lon="7.956655">
        <ele>846.027654</ele>
        <time>2021-11-21T12:49:03.604Z</time>
      </trkpt>
      <trkpt lat="47.643476" lon="7.956624">
        <ele>844.097051</ele>
        <time>2021-11-21T12:49:07.170Z</time>
      </trkpt>
      <trkpt lat="47.642688" lon="7.956755">
        <ele>840.031968</ele>
        <time>2021-11-21T12:49:14.613Z</time>
      </trkpt>
      <trkpt lat="47.642280" lon="7.956756">
        <ele>838.528669</ele>
        <time>2021-11-21T12:49:18.433Z</time>
      </trkpt>
      <trkpt lat="47.641799" lon="7.956605">
        <ele>837.155201</ele>
        <time>2021-11-21T12:49:23.250Z</time>
      </trkpt>
      <trkpt lat="47.641512" lon="7.956418">
        <ele>836.279568</ele>
        <time>2021-11-21T12:49:26.425Z</time>
      </trkpt>
      <trkpt lat="47.641056" lon="7.956097">
        <ele>834.869644</ele>
        <time>2021-11-21T12:49:31.884Z</time>
      </trkpt>
      <trkpt lat="47.640501" lon="7.955695">
        <ele>834.892237</ele>
        <time>2021-11-21T12:49:41.960Z</time>
      </trkpt>
      <trkpt lat="47.640167" lon="7.955381">
        <ele>835.601998</ele>
        <time>2021-11-21T12:49:49.815Z</time>
      </trkpt>
      <trkpt lat="47.639795" lon="7.954985">
        <ele>836.423825</ele>
        <time>2021-11-21T12:50:00.475Z</time>
      </trkpt>
      <trkpt lat="47.639696" lon="7.954882">
        <ele>836.640867</ele>
        <time>2021-11-21T12:50:04.075Z</time>
      </trkpt>
      <trkpt lat="47.639497" lon="7.954714">
        <ele>837.051861</ele>
        <time>2021-11-21T12:50:10.335Z</time>
      </trkpt>
      <trkpt lat="47.639207" lon="7.954547">
        <ele>837.787531</ele>
        <time>2021-11-21T12:50:19.268Z</time>
      </trkpt>
      <trkpt lat="47.638760" lon="7.954525">
        <ele>839.413413</ele>
        <time>2021-11-21T12:50:32.241Z</time>
      </trkpt>
      <trkpt lat="47.637932" lon="7.954791">
        <ele>842.493171</ele>
        <time>2021-11-21T12:50:57.322Z</time>
      </trkpt>
      <trkpt lat="47.637714" lon="7.954725">
        <ele>843.301993</ele>
        <time>2021-11-21T12:51:03.602Z</time>
      </trkpt>
      <trkpt lat="47.637492" lon="7.954483">
        <ele>844.433913</ele>
        <time>2021-11-21T12:51:11.460Z</time>
      </trkpt>
      <trkpt lat="47.637400" lon="7.954079">
        <ele>845.895163</ele>
        <time>2021-11-21T12:51:20.211Z</time>
      </trkpt>
      <trkpt lat="47.637300" lon="7.951504">
        <ele>854.505268</ele>
        <time>2021-11-21T12:52:24.604Z</time>
      </trkpt>
      <trkpt lat="47.637306" lon="7.951326">
        <ele>855.029529</ele>
        <time>2021-11-21T12:52:29.886Z</time>
      </trkpt>
      <trkpt lat="47.637337" lon="7.951149">
        <ele>855.567494</ele>
        <time>2021-11-21T12:52:34.026Z</time>
      </trkpt>
      <trkpt lat="47.637383" lon="7.950993">
        <ele>856.068401</ele>
        <time>2021-11-21T12:52:37.308Z</time>
      </trkpt>
      <trkpt lat="47.637451" lon="7.950859">
        <ele>856.561857</ele>
        <time>2021-11-21T12:52:41.997Z</time>
      </trkpt>
      <trkpt lat="47.637598" lon="7.950642">
        <ele>857.467003</ele>
        <time>2021-11-21T12:52:48.282Z</time>
      </trkpt>
      <trkpt lat="47.637813" lon="7.950431">
        <ele>858.592259</ele>
        <time>2021-11-21T12:52:56.955Z</time>
      </trkpt>
      <trkpt lat="47.638433" lon="7.949786">
        <ele>861.098846</ele>
        <time>2021-11-21T12:53:18.292Z</time>
      </trkpt>
      <trkpt lat="47.638845" lon="7.949151">
        <ele>861.447633</ele>
        <time>2021-11-21T12:53:29.979Z</time>
      </trkpt>
      <trkpt lat="47.639038" lon="7.948758">
        <ele>861.640044</ele>
        <time>2021-11-21T12:53:34.873Z</time>
      </trkpt>
      <trkpt lat="47.639170" lon="7.948455">
        <ele>861.782803</ele>
        <time>2021-11-21T12:53:38.137Z</time>
      </trkpt>
      <trkpt lat="47.639254" lon="7.948202">
        <ele>861.894397</ele>
        <time>2021-11-21T12:53:40.686Z</time>
      </trkpt>
      <trkpt lat="47.639305" lon="7.947792">
        <ele>861.957432</ele>
        <time>2021-11-21T12:53:44.009Z</time>
      </trkpt>
      <trkpt lat="47.639245" lon="7.947417">
        <ele>861.564330</ele>
        <time>2021-11-21T12:53:46.963Z</time>
      </trkpt>
      <trkpt lat="47.639171" lon="7.947230">
        <ele>861.343147</ele>
        <time>2021-11-21T12:53:48.811Z</time>
      </trkpt>
      <trkpt lat="47.639079" lon="7.947097">
        <ele>861.148741</ele>
        <time>2021-11-21T12:53:50.072Z</time>
      </trkpt>
      <trkpt lat="47.638801" lon="7.946735">
        <ele>860.588928</ele>
        <time>2021-11-21T12:53:54.165Z</time>
      </trkpt>
      <trkpt lat="47.638633" lon="7.946522">
        <ele>860.254470</ele>
        <time>2021-11-21T12:53:56.912Z</time>
      </trkpt>
      <trkpt lat="47.638601" lon="7.946470">
        <ele>860.182644</ele>
        <time>2021-11-21T12:53:57.466Z</time>
      </trkpt>
      <trkpt lat="47.638490" lon="7.946296">
        <ele>859.938258</ele>
        <time>2021-11-21T12:53:59.133Z</time>
      </trkpt>
      <trkpt lat="47.638187" lon="7.945494">
        <ele>859.214224</ele>
        <time>2021-11-21T12:54:06.642Z</time>
      </trkpt>
      <trkpt lat="47.638180" lon="7.945471">
        <ele>859.206357</ele>
        <time>2021-11-21T12:54:06.784Z</time>
      </trkpt>
      <trkpt lat="47.638087" lon="7.945165">
        <ele>859.101722</ele>
        <time>2021-11-21T12:54:09.742Z</time>
      </trkpt>
      <trkpt lat="47.637977" lon="7.944887">
        <ele>859.001232</ele>
        <time>2021-11-21T12:54:12.209Z</time>
      </trkpt>
      <trkpt lat="47.637846" lon="7.944700">
        <ele>858.917149</ele>
        <time>2021-11-21T12:54:14.922Z</time>
      </trkpt>
      <trkpt lat="47.637690" lon="7.944520">
        <ele>858.825739</ele>
        <time>2021-11-21T12:54:17.455Z</time>
      </trkpt>
      <trkpt lat="47.637583" lon="7.944404">
        <ele>858.764441</ele>
        <time>2021-11-21T12:54:19.635Z</time>
      </trkpt>
      <trkpt lat="47.637442" lon="7.944256">
        <ele>858.684550</ele>
        <time>2021-11-21T12:54:22.198Z</time>
      </trkpt>
      <trkpt lat="47.637316" lon="7.944402">
        <ele>858.610600</ele>
        <time>2021-11-21T12:54:25.035Z</time>
      </trkpt>
      <trkpt lat="47.636926" lon="7.944520">
        <ele>858.469438</ele>
        <time>2021-11-21T12:54:31.334Z</time>
      </trkpt>
      <trkpt lat="47.636909" lon="7.944514">
        <ele>858.468331</ele>
        <time>2021-11-21T12:54:31.598Z</time>
      </trkpt>
      <trkpt lat="47.636517" lon="7.944381">
        <ele>858.442862</ele>
        <time>2021-11-21T12:54:38.142Z</time>
      </trkpt>
      <trkpt lat="47.636440" lon="7.944352">
        <ele>858.437831</ele>
        <time>2021-11-21T12:54:39.594Z</time>
      </trkpt>
      <trkpt lat="47.636341" lon="7.944314">
        <ele>858.431354</ele>
        <time>2021-11-21T12:54:41.343Z</time>
      </trkpt>
      <trkpt lat="47.636224" lon="7.944307">
        <ele>858.423937</ele>
        <time>2021-11-21T12:54:42.830Z</time>
      </trkpt>
      <trkpt lat="47.636029" lon="7.944437">
        <ele>858.410398</ele>
        <time>2021-11-21T12:54:46.067Z</time>
      </trkpt>
      <trkpt lat="47.635520" lon="7.945990">
        <ele>858.575606</ele>
        <time>2021-11-21T12:55:01.674Z</time>
      </trkpt>
      <trkpt lat="47.635305" lon="7.946397">
        <ele>858.759204</ele>
        <time>2021-11-21T12:55:06.182Z</time>
      </trkpt>
      <trkpt lat="47.634967" lon="7.946762">
        <ele>858.979435</ele>
        <time>2021-11-21T12:55:11.840Z</time>
      </trkpt>
      <trkpt lat="47.634741" lon="7.946805">
        <ele>859.099477</ele>
        <time>2021-11-21T12:55:16.575Z</time>
      </trkpt>
      <trkpt lat="47.634598" lon="7.946753">
        <ele>859.177045</ele>
        <time>2021-11-21T12:55:19.768Z</time>
      </trkpt>
      <trkpt lat="47.634437" lon="7.946594">
        <ele>859.278933</ele>
        <time>2021-11-21T12:55:24.826Z</time>
      </trkpt>
      <trkpt lat="47.634304" lon="7.946352">
        <ele>859.807383</ele>
        <time>2021-11-21T12:55:29.938Z</time>
      </trkpt>
      <trkpt lat="47.633987" lon="7.945419">
        <ele>862.118129</ele>
        <time>2021-11-21T12:55:49.951Z</time>
      </trkpt>
      <trkpt lat="47.633902" lon="7.945296">
        <ele>862.507752</ele>
        <time>2021-11-21T12:55:53.007Z</time>
      </trkpt>
      <trkpt lat="47.633818" lon="7.945221">
        <ele>862.829474</ele>
        <time>2021-11-21T12:55:57.359Z</time>
      </trkpt>
      <trkpt lat="47.633720" lon="7.945173">
        <ele>863.168156</ele>
        <time>2021-11-21T12:55:59.744Z</time>
      </trkpt>
      <trkpt lat="47.633664" lon="7.945157">
        <ele>863.355312</ele>
        <time>2021-11-21T12:56:00.913Z</time>
      </trkpt>
      <trkpt lat="47.633591" lon="7.945179">
        <ele>863.599774</ele>
        <time>2021-11-21T12:56:02.869Z</time>
      </trkpt>
      <trkpt lat="47.633498" lon="7.945219">
        <ele>863.917542</ele>
        <time>2021-11-21T12:56:06.907Z</time>
      </trkpt>
      <trkpt lat="47.632250" lon="7.946421">
        <ele>867.142535</ele>
        <time>2021-11-21T12:56:48.135Z</time>
      </trkpt>
      <trkpt lat="47.632015" lon="7.946574">
        <ele>867.595563</ele>
        <time>2021-11-21T12:56:51.919Z</time>
      </trkpt>
      <trkpt lat="47.631252" lon="7.946953">
        <ele>867.607770</ele>
        <time>2021-11-21T12:57:02.361Z</time>
      </trkpt>
      <trkpt lat="47.630971" lon="7.947084">
        <ele>866.961831</ele>
        <time>2021-11-21T12:57:05.798Z</time>
      </trkpt>
      <trkpt lat="47.630672" lon="7.947236">
        <ele>866.268702</ele>
        <time>2021-11-21T12:57:09.332Z</time>
      </trkpt>
      <trkpt lat="47.629991" lon="7.947744">
        <ele>864.597153</ele>
        <time>2021-11-21T12:57:17.024Z</time>
      </trkpt>
      <trkpt lat="47.629363" lon="7.948362">
        <ele>861.465609</ele>
        <time>2021-11-21T12:57:24.384Z</time>
      </trkpt>
      <trkpt lat="47.629285" lon="7.948439">
        <ele>861.057431</ele>
        <time>2021-11-21T12:57:25.258Z</time>
      </trkpt>
      <trkpt lat="47.629252" lon="7.948471">
        <ele>860.885672</ele>
        <time>2021-11-21T12:57:25.644Z</time>
      </trkpt>
      <trkpt lat="47.629112" lon="7.948574">
        <ele>860.204839</ele>
        <time>2021-11-21T12:57:27.184Z</time>
      </trkpt>
      <trkpt lat="47.629018" lon="7.948689">
        <ele>859.674033</ele>
        <time>2021-11-21T12:57:28.349Z</time>
      </trkpt>
      <trkpt lat="47.628909" lon="7.948921">
        <ele>858.843617</ele>
        <time>2021-11-21T12:57:30.176Z</time>
      </trkpt>
      <trkpt lat="47.628855" lon="7.948997">
        <ele>858.519343</ele>
        <time>2021-11-21T12:57:30.865Z</time>
      </trkpt>
      <trkpt lat="47.628255" lon="7.949609">
        <ele>855.560141</ele>
        <time>2021-11-21T12:57:37.701Z</time>
      </trkpt>
      <trkpt lat="47.628154" lon="7.949804">
        <ele>854.960118</ele>
        <time>2021-11-21T12:57:39.304Z</time>
      </trkpt>
      <trkpt lat="47.628018" lon="7.949775">
        <ele>854.462722</ele>
        <time>2021-11-21T12:57:40.698Z</time>
      </trkpt>
      <trkpt lat="47.627819" lon="7.949787">
        <ele>853.741720</ele>
        <time>2021-11-21T12:57:42.661Z</time>
      </trkpt>
      <trkpt lat="47.627702" lon="7.949801">
        <ele>853.316789</ele>
        <time>2021-11-21T12:57:43.969Z</time>
      </trkpt>
      <trkpt lat="47.627472" lon="7.949828">
        <ele>852.481556</ele>
        <time>2021-11-21T12:57:46.261Z</time>
      </trkpt>
      <trkpt lat="47.627309" lon="7.949824">
        <ele>851.891393</ele>
        <time>2021-11-21T12:57:48.079Z</time>
      </trkpt>
      <trkpt lat="47.627208" lon="7.949813">
        <ele>851.524775</ele>
        <time>2021-11-21T12:57:49.054Z</time>
      </trkpt>
      <trkpt lat="47.627110" lon="7.949777">
        <ele>851.159291</ele>
        <time>2021-11-21T12:57:50.229Z</time>
      </trkpt>
      <trkpt lat="47.626859" lon="7.949688">
        <ele>850.225051</ele>
        <time>2021-11-21T12:57:52.897Z</time>
      </trkpt>
      <trkpt lat="47.626752" lon="7.949657">
        <ele>849.782850</ele>
        <time>2021-11-21T12:57:54.077Z</time>
      </trkpt>
      <trkpt lat="47.626683" lon="7.949637">
        <ele>849.482716</ele>
        <time>2021-11-21T12:57:54.743Z</time>
      </trkpt>
      <trkpt lat="47.626401" lon="7.949689">
        <ele>848.269577</ele>
        <time>2021-11-21T12:57:57.517Z</time>
      </trkpt>
      <trkpt lat="47.626137" lon="7.949956">
        <ele>846.905628</ele>
        <time>2021-11-21T12:58:00.595Z</time>
      </trkpt>
      <trkpt lat="47.626078" lon="7.950083">
        <ele>846.461824</ele>
        <time>2021-11-21T12:58:01.689Z</time>
      </trkpt>
      <trkpt lat="47.626026" lon="7.950244">
        <ele>845.948147</ele>
        <time>2021-11-21T12:58:02.794Z</time>
      </trkpt>
      <trkpt lat="47.625896" lon="7.950889">
        <ele>844.011136</ele>
        <time>2021-11-21T12:58:07.316Z</time>
      </trkpt>
      <trkpt lat="47.625850" lon="7.951040">
        <ele>843.534356</ele>
        <time>2021-11-21T12:58:08.328Z</time>
      </trkpt>
      <trkpt lat="47.625812" lon="7.951163">
        <ele>843.145047</ele>
        <time>2021-11-21T12:58:09.150Z</time>
      </trkpt>
      <trkpt lat="47.625460" lon="7.951852">
        <ele>840.758881</ele>
        <time>2021-11-21T12:58:14.568Z</time>
      </trkpt>
      <trkpt lat="47.625338" lon="7.952002">
        <ele>840.121463</ele>
        <time>2021-11-21T12:58:16.073Z</time>
      </trkpt>
      <trkpt lat="47.625089" lon="7.952131">
        <ele>839.060430</ele>
        <time>2021-11-21T12:58:18.550Z</time>
      </trkpt>
      <trkpt lat="47.624864" lon="7.952108">
        <ele>838.153112</ele>
        <time>2021-11-21T12:58:20.826Z</time>
      </trkpt>
      <trkpt lat="47.624794" lon="7.952070">
        <ele>837.853246</ele>
        <time>2021-11-21T12:58:21.458Z</time>
      </trkpt>
      <trkpt lat="47.624692" lon="7.951963">
        <ele>837.350698</ele>
        <time>2021-11-21T12:58:22.676Z</time>
      </trkpt>
      <trkpt lat="47.624014" lon="7.951018">
        <ele>835.470231</ele>
        <time>2021-11-21T12:58:32.857Z</time>
      </trkpt>
      <trkpt lat="47.623553" lon="7.950603">
        <ele>835.869055</ele>
        <time>2021-11-21T12:58:41.197Z</time>
      </trkpt>
      <trkpt lat="47.623105" lon="7.950303">
        <ele>836.232597</ele>
        <time>2021-11-21T12:58:53.234Z</time>
      </trkpt>
      <trkpt lat="47.622946" lon="7.950255">
        <ele>836.352608</ele>
        <time>2021-11-21T12:58:57.733Z</time>
      </trkpt>
      <trkpt lat="47.622642" lon="7.950331">
        <ele>836.828900</ele>
        <time>2021-11-21T12:59:05.678Z</time>
      </trkpt>
      <trkpt lat="47.622427" lon="7.950567">
        <ele>837.736305</ele>
        <time>2021-11-21T12:59:12.529Z</time>
      </trkpt>
      <trkpt lat="47.622278" lon="7.951027">
        <ele>838.903418</ele>
        <time>2021-11-21T12:59:21.310Z</time>
      </trkpt>
      <trkpt lat="47.622272" lon="7.951112">
        <ele>839.098862</ele>
        <time>2021-11-21T12:59:23.280Z</time>
      </trkpt>
      <trkpt lat="47.622265" lon="7.951206">
        <ele>839.315133</ele>
        <time>2021-11-21T12:59:24.643Z</time>
      </trkpt>
      <trkpt lat="47.622261" lon="7.951375">
        <ele>839.701846</ele>
        <time>2021-11-21T12:59:27.843Z</time>
      </trkpt>
      <trkpt lat="47.622276" lon="7.952166">
        <ele>841.511451</ele>
        <time>2021-11-21T12:59:43.272Z</time>
      </trkpt>
      <trkpt lat="47.622251" lon="7.952351">
        <ele>841.942935</ele>
        <time>2021-11-21T12:59:48.041Z</time>
      </trkpt>
      <trkpt lat="47.622136" lon="7.952635">
        <ele>842.723320</ele>
        <time>2021-11-21T12:59:54.059Z</time>
      </trkpt>
      <trkpt lat="47.621968" lon="7.952806">
        <ele>843.595924</ele>
        <time>2021-11-21T13:00:01.181Z</time>
      </trkpt>
      <trkpt lat="47.621882" lon="7.952893">
        <ele>844.041741</ele>
        <time>2021-11-21T13:00:04.270Z</time>
      </trkpt>
      <trkpt lat="47.621500" lon="7.952932">
        <ele>845.681723</ele>
        <time>2021-11-21T13:00:18.299Z</time>
      </trkpt>
      <trkpt lat="47.621408" lon="7.952896">
        <ele>846.089236</ele>
        <time>2021-11-21T13:00:21.358Z</time>
      </trkpt>
      <trkpt lat="47.621374" lon="7.952883">
        <ele>846.239617</ele>
        <time>2021-11-21T13:00:23.509Z</time>
      </trkpt>
      <trkpt lat="47.620544" lon="7.952585">
        <ele>849.897139</ele>
        <time>2021-11-21T13:00:49.102Z</time>
      </trkpt>
      <trkpt lat="47.620395" lon="7.952576">
        <ele>850.371241</ele>
        <time>2021-11-21T13:00:53.734Z</time>
      </trkpt>
      <trkpt lat="47.620168" lon="7.952606">
        <ele>850.611229</ele>
        <time>2021-11-21T13:01:00.334Z</time>
      </trkpt>
      <trkpt lat="47.619933" lon="7.952707">
        <ele>850.868870</ele>
        <time>2021-11-21T13:01:08.003Z</time>
      </trkpt>
      <trkpt lat="47.619515" lon="7.953035">
        <ele>851.366821</ele>
        <time>2021-11-21T13:01:18.532Z</time>
      </trkpt>
      <trkpt lat="47.618866" lon="7.953794">
        <ele>852.072669</ele>
        <time>2021-11-21T13:01:30.240Z</time>
      </trkpt>
      <trkpt lat="47.618375" lon="7.954525">
        <ele>848.069764</ele>
        <time>2021-11-21T13:01:36.939Z</time>
      </trkpt>
      <trkpt lat="47.618328" lon="7.954588">
        <ele>847.705253</ele>
        <time>2021-11-21T13:01:37.517Z</time>
      </trkpt>
      <trkpt lat="47.618208" lon="7.954752">
        <ele>846.766354</ele>
        <time>2021-11-21T13:01:38.983Z</time>
      </trkpt>
      <trkpt lat="47.617828" lon="7.954964">
        <ele>844.430121</ele>
        <time>2021-11-21T13:01:42.637Z</time>
      </trkpt>
      <trkpt lat="47.617721" lon="7.954960">
        <ele>843.814192</ele>
        <time>2021-11-21T13:01:43.593Z</time>
      </trkpt>
      <trkpt lat="47.617621" lon="7.954956">
        <ele>843.238530</ele>
        <time>2021-11-21T13:01:44.464Z</time>
      </trkpt>
      <trkpt lat="47.617283" lon="7.954886">
        <ele>840.978769</ele>
        <time>2021-11-21T13:01:47.478Z</time>
      </trkpt>
      <trkpt lat="47.617229" lon="7.954869">
        <ele>840.500896</ele>
        <time>2021-11-21T13:01:47.945Z</time>
      </trkpt>
      <trkpt lat="47.617066" lon="7.954812">
        <ele>839.051179</ele>
        <time>2021-11-21T13:01:49.430Z</time>
      </trkpt>
      <trkpt lat="47.616890" lon="7.954760">
        <ele>837.497673</ele>
        <time>2021-11-21T13:01:50.981Z</time>
      </trkpt>
      <trkpt lat="47.616560" lon="7.954678">
        <ele>834.601158</ele>
        <time>2021-11-21T13:01:53.896Z</time>
      </trkpt>
      <trkpt lat="47.616312" lon="7.954710">
        <ele>832.446186</ele>
        <time>2021-11-21T13:01:56.045Z</time>
      </trkpt>
      <trkpt lat="47.615954" lon="7.954858">
        <ele>829.228992</ele>
        <time>2021-11-21T13:01:59.280Z</time>
      </trkpt>
      <trkpt lat="47.615567" lon="7.955253">
        <ele>825.342883</ele>
        <time>2021-11-21T13:02:03.440Z</time>
      </trkpt>
      <trkpt lat="47.615290" lon="7.955684">
        <ele>822.423432</ele>
        <time>2021-11-21T13:02:06.994Z</time>
      </trkpt>
      <trkpt lat="47.615069" lon="7.955940">
        <ele>820.384189</ele>
        <time>2021-11-21T13:02:09.510Z</time>
      </trkpt>
      <trkpt lat="47.614839" lon="7.956151">
        <ele>818.417439</ele>
        <time>2021-11-21T13:02:11.961Z</time>
      </trkpt>
      <trkpt lat="47.614413" lon="7.956465">
        <ele>814.957877</ele>
        <time>2021-11-21T13:02:16.231Z</time>
      </trkpt>
      <trkpt lat="47.614150" lon="7.956743">
        <ele>812.719962</ele>
        <time>2021-11-21T13:02:19.098Z</time>
      </trkpt>
      <trkpt lat="47.613975" lon="7.956945">
        <ele>811.404604</ele>
        <time>2021-11-21T13:02:21.096Z</time>
      </trkpt>
      <trkpt lat="47.613817" lon="7.957293">
        <ele>809.726787</ele>
        <time>2021-11-21T13:02:23.716Z</time>
      </trkpt>
      <trkpt lat="47.613747" lon="7.957547">
        <ele>808.629460</ele>
        <time>2021-11-21T13:02:25.397Z</time>
      </trkpt>
      <trkpt lat="47.613637" lon="7.957858">
        <ele>807.225004</ele>
        <time>2021-11-21T13:02:27.584Z</time>
      </trkpt>
      <trkpt lat="47.613498" lon="7.958176">
        <ele>805.709415</ele>
        <time>2021-11-21T13:02:30.012Z</time>
      </trkpt>
      <trkpt lat="47.613441" lon="7.958296">
        <ele>805.122382</ele>
        <time>2021-11-21T13:02:30.894Z</time>
      </trkpt>
      <trkpt lat="47.613253" lon="7.958684">
        <ele>803.211579</ele>
        <time>2021-11-21T13:02:33.890Z</time>
      </trkpt>
      <trkpt lat="47.613156" lon="7.958910">
        <ele>802.205145</ele>
        <time>2021-11-21T13:02:35.586Z</time>
      </trkpt>
      <trkpt lat="47.613134" lon="7.959507">
        <ele>800.202367</ele>
        <time>2021-11-21T13:02:39.373Z</time>
      </trkpt>
      <trkpt lat="47.613020" lon="7.960049">
        <ele>798.300491</ele>
        <time>2021-11-21T13:02:43.057Z</time>
      </trkpt>
      <trkpt lat="47.612881" lon="7.960311">
        <ele>797.183672</ele>
        <time>2021-11-21T13:02:45.168Z</time>
      </trkpt>
      <trkpt lat="47.612693" lon="7.960527">
        <ele>796.002070</ele>
        <time>2021-11-21T13:02:47.404Z</time>
      </trkpt>
      <trkpt lat="47.612484" lon="7.960712">
        <ele>794.792714</ele>
        <time>2021-11-21T13:02:49.753Z</time>
      </trkpt>
      <trkpt lat="47.612311" lon="7.961103">
        <ele>793.139349</ele>
        <time>2021-11-21T13:02:52.764Z</time>
      </trkpt>
      <trkpt lat="47.612099" lon="7.961419">
        <ele>791.302439</ele>
        <time>2021-11-21T13:02:55.569Z</time>
      </trkpt>
      <trkpt lat="47.611917" lon="7.961735">
        <ele>789.589926</ele>
        <time>2021-11-21T13:02:58.120Z</time>
      </trkpt>
      <trkpt lat="47.611648" lon="7.962205">
        <ele>787.049550</ele>
        <time>2021-11-21T13:03:01.896Z</time>
      </trkpt>
      <trkpt lat="47.611356" lon="7.962756">
        <ele>784.161706</ele>
        <time>2021-11-21T13:03:06.210Z</time>
      </trkpt>
      <trkpt lat="47.611128" lon="7.963082">
        <ele>782.138673</ele>
        <time>2021-11-21T13:03:09.066Z</time>
      </trkpt>
      <trkpt lat="47.610758" lon="7.963604">
        <ele>778.305603</ele>
        <time>2021-11-21T13:03:13.671Z</time>
      </trkpt>
      <trkpt lat="47.609733" lon="7.965333">
        <ele>766.526111</ele>
        <time>2021-11-21T13:03:27.394Z</time>
      </trkpt>
      <trkpt lat="47.609436" lon="7.965776">
        <ele>763.199765</ele>
        <time>2021-11-21T13:03:31.128Z</time>
      </trkpt>
      <trkpt lat="47.609398" lon="7.965823">
        <ele>762.809022</ele>
        <time>2021-11-21T13:03:31.765Z</time>
      </trkpt>
      <trkpt lat="47.609371" lon="7.965858">
        <ele>762.525840</ele>
        <time>2021-11-21T13:03:32.087Z</time>
      </trkpt>
      <trkpt lat="47.609221" lon="7.966057">
        <ele>760.936538</ele>
        <time>2021-11-21T13:03:33.865Z</time>
      </trkpt>
      <trkpt lat="47.608519" lon="7.966528">
        <ele>754.852963</ele>
        <time>2021-11-21T13:03:40.670Z</time>
      </trkpt>
      <trkpt lat="47.607658" lon="7.967106">
        <ele>747.557457</ele>
        <time>2021-11-21T13:03:49.004Z</time>
      </trkpt>
      <trkpt lat="47.607095" lon="7.967514">
        <ele>742.720393</ele>
        <time>2021-11-21T13:03:54.647Z</time>
      </trkpt>
      <trkpt lat="47.606870" lon="7.967721">
        <ele>740.696837</ele>
        <time>2021-11-21T13:03:56.993Z</time>
      </trkpt>
      <trkpt lat="47.606364" lon="7.968338">
        <ele>735.940230</ele>
        <time>2021-11-21T13:04:02.783Z</time>
      </trkpt>
      <trkpt lat="47.606108" lon="7.968738">
        <ele>733.240090</ele>
        <time>2021-11-21T13:04:06.090Z</time>
      </trkpt>
      <trkpt lat="47.605817" lon="7.969371">
        <ele>729.489154</ele>
        <time>2021-11-21T13:04:10.712Z</time>
      </trkpt>
      <trkpt lat="47.605616" lon="7.969840">
        <ele>727.081734</ele>
        <time>2021-11-21T13:04:14.154Z</time>
      </trkpt>
      <trkpt lat="47.605394" lon="7.970424">
        <ele>724.663922</ele>
        <time>2021-11-21T13:04:18.286Z</time>
      </trkpt>
      <trkpt lat="47.605334" lon="7.970757">
        <ele>723.420851</ele>
        <time>2021-11-21T13:04:20.403Z</time>
      </trkpt>
      <trkpt lat="47.605293" lon="7.971142">
        <ele>722.015176</ele>
        <time>2021-11-21T13:04:22.815Z</time>
      </trkpt>
      <trkpt lat="47.605285" lon="7.971687">
        <ele>720.049223</ele>
        <time>2021-11-21T13:04:26.289Z</time>
      </trkpt>
      <trkpt lat="47.605294" lon="7.972024">
        <ele>718.832914</ele>
        <time>2021-11-21T13:04:28.478Z</time>
      </trkpt>
      <trkpt lat="47.605277" lon="7.972254">
        <ele>718.270519</ele>
        <time>2021-11-21T13:04:30.072Z</time>
      </trkpt>
      <trkpt lat="47.605261" lon="7.972326">
        <ele>718.216558</ele>
        <time>2021-11-21T13:04:30.591Z</time>
      </trkpt>
      <trkpt lat="47.605224" lon="7.972488">
        <ele>718.094810</ele>
        <time>2021-11-21T13:04:31.767Z</time>
      </trkpt>
      <trkpt lat="47.605056" lon="7.972376">
        <ele>717.900357</ele>
        <time>2021-11-21T13:04:33.732Z</time>
      </trkpt>
      <trkpt lat="47.604922" lon="7.972287">
        <ele>717.745354</ele>
        <time>2021-11-21T13:04:35.273Z</time>
      </trkpt>
      <trkpt lat="47.604875" lon="7.972221">
        <ele>717.677024</ele>
        <time>2021-11-21T13:04:35.992Z</time>
      </trkpt>
      <trkpt lat="47.604528" lon="7.971728">
        <ele>717.169732</ele>
        <time>2021-11-21T13:04:41.814Z</time>
      </trkpt>
      <trkpt lat="47.604419" lon="7.971600">
        <ele>717.022957</ele>
        <time>2021-11-21T13:04:43.529Z</time>
      </trkpt>
      <trkpt lat="47.604366" lon="7.971555">
        <ele>716.958484</ele>
        <time>2021-11-21T13:04:44.483Z</time>
      </trkpt>
      <trkpt lat="47.604294" lon="7.971507">
        <ele>716.875147</ele>
        <time>2021-11-21T13:04:45.885Z</time>
      </trkpt>
      <trkpt lat="47.604261" lon="7.971490">
        <ele>716.838266</ele>
        <time>2021-11-21T13:04:46.500Z</time>
      </trkpt>
      <trkpt lat="47.604163" lon="7.971460">
        <ele>716.732625</ele>
        <time>2021-11-21T13:04:47.975Z</time>
      </trkpt>
      <trkpt lat="47.604023" lon="7.971466">
        <ele>716.584764</ele>
        <time>2021-11-21T13:04:50.122Z</time>
      </trkpt>
      <trkpt lat="47.603588" lon="7.971607">
        <ele>717.970800</ele>
        <time>2021-11-21T13:05:00.138Z</time>
      </trkpt>
      <trkpt lat="47.603305" lon="7.971596">
        <ele>719.384734</ele>
        <time>2021-11-21T13:05:07.684Z</time>
      </trkpt>
      <trkpt lat="47.603054" lon="7.971469">
        <ele>720.709305</ele>
        <time>2021-11-21T13:05:15.758Z</time>
      </trkpt>
      <trkpt lat="47.602252" lon="7.970803">
        <ele>725.300081</ele>
        <time>2021-11-21T13:05:54.405Z</time>
      </trkpt>
      <trkpt lat="47.601859" lon="7.970629">
        <ele>728.788035</ele>
        <time>2021-11-21T13:06:14.926Z</time>
      </trkpt>
      <trkpt lat="47.601648" lon="7.970592">
        <ele>730.642106</ele>
        <time>2021-11-21T13:06:26.652Z</time>
      </trkpt>
      <trkpt lat="47.601402" lon="7.970556">
        <ele>732.799197</ele>
        <time>2021-11-21T13:06:39.656Z</time>
      </trkpt>
      <trkpt lat="47.601180" lon="7.970508">
        <ele>734.756911</ele>
        <time>2021-11-21T13:06:50.315Z</time>
      </trkpt>
      <trkpt lat="47.600971" lon="7.970428">
        <ele>736.640471</ele>
        <time>2021-11-21T13:07:02.472Z</time>
      </trkpt>
      <trkpt lat="47.600336" lon="7.970065">
        <ele>741.960943</ele>
        <time>2021-11-21T13:07:37.221Z</time>
      </trkpt>
      <trkpt lat="47.599718" lon="7.969767">
        <ele>745.233621</ele>
        <time>2021-11-21T13:08:05.020Z</time>
      </trkpt>
      <trkpt lat="47.599352" lon="7.969493">
        <ele>747.298364</ele>
        <time>2021-11-21T13:08:18.816Z</time>
      </trkpt>
      <trkpt lat="47.598765" lon="7.968887">
        <ele>750.070551</ele>
        <time>2021-11-21T13:08:34.759Z</time>
      </trkpt>
      <trkpt lat="47.598343" lon="7.968578">
        <ele>749.727446</ele>
        <time>2021-11-21T13:08:42.144Z</time>
      </trkpt>
      <trkpt lat="47.597978" lon="7.968440">
        <ele>749.452841</ele>
        <time>2021-11-21T13:08:47.006Z</time>
      </trkpt>
      <trkpt lat="47.597103" lon="7.968192">
        <ele>748.625304</ele>
        <time>2021-11-21T13:08:56.794Z</time>
      </trkpt>
      <trkpt lat="47.596111" lon="7.968029">
        <ele>745.767255</ele>
        <time>2021-11-21T13:09:06.943Z</time>
      </trkpt>
      <trkpt lat="47.595897" lon="7.967970">
        <ele>745.143949</ele>
        <time>2021-11-21T13:09:09.179Z</time>
      </trkpt>
      <trkpt lat="47.595731" lon="7.967840">
        <ele>744.606379</ele>
        <time>2021-11-21T13:09:11.132Z</time>
      </trkpt>
      <trkpt lat="47.595487" lon="7.967606">
        <ele>743.774282</ele>
        <time>2021-11-21T13:09:14.076Z</time>
      </trkpt>
      <trkpt lat="47.595222" lon="7.967319">
        <ele>743.258522</ele>
        <time>2021-11-21T13:09:17.431Z</time>
      </trkpt>
      <trkpt lat="47.594433" lon="7.966488">
        <ele>741.823656</ele>
        <time>2021-11-21T13:09:27.919Z</time>
      </trkpt>
      <trkpt lat="47.594369" lon="7.966419">
        <ele>741.706337</ele>
        <time>2021-11-21T13:09:28.812Z</time>
      </trkpt>
      <trkpt lat="47.593845" lon="7.965844">
        <ele>741.397022</ele>
        <time>2021-11-21T13:09:40.535Z</time>
      </trkpt>
      <trkpt lat="47.593572" lon="7.965514">
        <ele>741.992423</ele>
        <time>2021-11-21T13:09:47.720Z</time>
      </trkpt>
      <trkpt lat="47.593274" lon="7.965197">
        <ele>742.612394</ele>
        <time>2021-11-21T13:09:55.666Z</time>
      </trkpt>
      <trkpt lat="47.592819" lon="7.964868">
        <ele>743.468122</ele>
        <time>2021-11-21T13:10:08.035Z</time>
      </trkpt>
      <trkpt lat="47.592518" lon="7.964704">
        <ele>744.010208</ele>
        <time>2021-11-21T13:10:16.608Z</time>
      </trkpt>
      <trkpt lat="47.591169" lon="7.964077">
        <ele>744.815029</ele>
        <time>2021-11-21T13:10:46.944Z</time>
      </trkpt>
      <trkpt lat="47.590665" lon="7.963794">
        <ele>744.482777</ele>
        <time>2021-11-21T13:10:52.788Z</time>
      </trkpt>
      <trkpt lat="47.590624" lon="7.963772">
        <ele>744.256879</ele>
        <time>2021-11-21T13:10:53.245Z</time>
      </trkpt>
      <trkpt lat="47.590227" lon="7.963517">
        <ele>742.015363</ele>
        <time>2021-11-21T13:10:57.438Z</time>
      </trkpt>
      <trkpt lat="47.589112" lon="7.962950">
        <ele>735.908356</ele>
        <time>2021-11-21T13:11:08.209Z</time>
      </trkpt>
      <trkpt lat="47.588758" lon="7.962844">
        <ele>733.613586</ele>
        <time>2021-11-21T13:11:11.412Z</time>
      </trkpt>
      <trkpt lat="47.588243" lon="7.962855">
        <ele>730.275403</ele>
        <time>2021-11-21T13:11:16.093Z</time>
      </trkpt>
      <trkpt lat="47.587999" lon="7.962882">
        <ele>728.689583</ele>
        <time>2021-11-21T13:11:18.311Z</time>
      </trkpt>
      <trkpt lat="47.587762" lon="7.962890">
        <ele>727.153132</ele>
        <time>2021-11-21T13:11:20.457Z</time>
      </trkpt>
      <trkpt lat="47.587593" lon="7.962854">
        <ele>726.046556</ele>
        <time>2021-11-21T13:11:22.022Z</time>
      </trkpt>
      <trkpt lat="47.587527" lon="7.962835">
        <ele>725.610805</ele>
        <time>2021-11-21T13:11:22.641Z</time>
      </trkpt>
      <trkpt lat="47.587299" lon="7.962810">
        <ele>724.129048</ele>
        <time>2021-11-21T13:11:24.748Z</time>
      </trkpt>
      <trkpt lat="47.587114" lon="7.962708">
        <ele>722.840039</ele>
        <time>2021-11-21T13:11:26.577Z</time>
      </trkpt>
      <trkpt lat="47.586786" lon="7.962503">
        <ele>720.514551</ele>
        <time>2021-11-21T13:11:29.811Z</time>
      </trkpt>
      <trkpt lat="47.586624" lon="7.962373">
        <ele>719.311101</ele>
        <time>2021-11-21T13:11:31.468Z</time>
      </trkpt>
      <trkpt lat="47.586491" lon="7.962168">
        <ele>718.057707</ele>
        <time>2021-11-21T13:11:33.217Z</time>
      </trkpt>
      <trkpt lat="47.586296" lon="7.961772">
        <ele>715.897179</ele>
        <time>2021-11-21T13:11:36.203Z</time>
      </trkpt>
      <trkpt lat="47.586005" lon="7.961489">
        <ele>713.623533</ele>
        <time>2021-11-21T13:11:39.336Z</time>
      </trkpt>
      <trkpt lat="47.585805" lon="7.961386">
        <ele>712.250041</ele>
        <time>2021-11-21T13:11:41.225Z</time>
      </trkpt>
      <trkpt lat="47.585514" lon="7.961317">
        <ele>710.568228</ele>
        <time>2021-11-21T13:11:43.895Z</time>
      </trkpt>
      <trkpt lat="47.585281" lon="7.961295">
        <ele>709.235825</ele>
        <time>2021-11-21T13:11:46.073Z</time>
      </trkpt>
      <trkpt lat="47.585149" lon="7.961311">
        <ele>708.480000</ele>
        <time>2021-11-21T13:11:47.248Z</time>
      </trkpt>
      <trkpt lat="47.585078" lon="7.961320">
        <ele>708.073332</ele>
        <time>2021-11-21T13:11:47.919Z</time>
      </trkpt>
      <trkpt lat="47.584845" lon="7.961410">
        <ele>706.699234</ele>
        <time>2021-11-21T13:11:50.184Z</time>
      </trkpt>
      <trkpt lat="47.584506" lon="7.961629">
        <ele>704.588907</ele>
        <time>2021-11-21T13:11:53.580Z</time>
      </trkpt>
      <trkpt lat="47.583450" lon="7.962220">
        <ele>699.710410</ele>
        <time>2021-11-21T13:12:04.303Z</time>
      </trkpt>
      <trkpt lat="47.583243" lon="7.962307">
        <ele>698.974000</ele>
        <time>2021-11-21T13:12:06.438Z</time>
      </trkpt>
      <trkpt lat="47.583134" lon="7.962356">
        <ele>698.584156</ele>
        <time>2021-11-21T13:12:07.615Z</time>
      </trkpt>
      <trkpt lat="47.582968" lon="7.962415">
        <ele>697.999895</ele>
        <time>2021-11-21T13:12:09.390Z</time>
      </trkpt>
      <trkpt lat="47.582545" lon="7.962501">
        <ele>696.538560</ele>
        <time>2021-11-21T13:12:13.917Z</time>
      </trkpt>
      <trkpt lat="47.582180" lon="7.962548">
        <ele>695.802410</ele>
        <time>2021-11-21T13:12:17.938Z</time>
      </trkpt>
      <trkpt lat="47.581514" lon="7.962514">
        <ele>695.452112</ele>
        <time>2021-11-21T13:12:25.818Z</time>
      </trkpt>
      <trkpt lat="47.580893" lon="7.962449">
        <ele>695.124864</ele>
        <time>2021-11-21T13:12:35.114Z</time>
      </trkpt>
      <trkpt lat="47.580131" lon="7.962271">
        <ele>695.425514</ele>
        <time>2021-11-21T13:12:49.606Z</time>
      </trkpt>
      <trkpt lat="47.579759" lon="7.962106">
        <ele>695.843939</ele>
        <time>2021-11-21T13:12:57.493Z</time>
      </trkpt>
      <trkpt lat="47.579169" lon="7.961638">
        <ele>696.565016</ele>
        <time>2021-11-21T13:13:10.375Z</time>
      </trkpt>
      <trkpt lat="47.578838" lon="7.961180">
        <ele>696.972612</ele>
        <time>2021-11-21T13:13:19.126Z</time>
      </trkpt>
      <trkpt lat="47.578655" lon="7.960775">
        <ele>697.153226</ele>
        <time>2021-11-21T13:13:25.364Z</time>
      </trkpt>
      <trkpt lat="47.578614" lon="7.960661">
        <ele>697.201094</ele>
        <time>2021-11-21T13:13:26.829Z</time>
      </trkpt>
      <trkpt lat="47.578556" lon="7.960464">
        <ele>697.280735</ele>
        <time>2021-11-21T13:13:29.436Z</time>
      </trkpt>
      <trkpt lat="47.578451" lon="7.959921">
        <ele>697.490031</ele>
        <time>2021-11-21T13:13:35.994Z</time>
      </trkpt>
      <trkpt lat="47.578433" lon="7.959542">
        <ele>697.630807</ele>
        <time>2021-11-21T13:13:40.151Z</time>
      </trkpt>
      <trkpt lat="47.578428" lon="7.959421">
        <ele>697.675724</ele>
        <time>2021-11-21T13:13:41.486Z</time>
      </trkpt>
      <trkpt lat="47.578453" lon="7.959023">
        <ele>697.823830</ele>
        <time>2021-11-21T13:13:45.622Z</time>
      </trkpt>
      <trkpt lat="47.578554" lon="7.958491">
        <ele>697.591193</ele>
        <time>2021-11-21T13:13:51.087Z</time>
      </trkpt>
      <trkpt lat="47.578723" lon="7.958003">
        <ele>697.207891</ele>
        <time>2021-11-21T13:13:56.367Z</time>
      </trkpt>
      <trkpt lat="47.579019" lon="7.957379">
        <ele>696.674860</ele>
        <time>2021-11-21T13:14:02.664Z</time>
      </trkpt>
      <trkpt lat="47.579581" lon="7.956485">
        <ele>695.412580</ele>
        <time>2021-11-21T13:14:11.784Z</time>
      </trkpt>
      <trkpt lat="47.579879" lon="7.956035">
        <ele>694.039325</ele>
        <time>2021-11-21T13:14:16.204Z</time>
      </trkpt>
      <trkpt lat="47.580034" lon="7.955780">
        <ele>693.291827</ele>
        <time>2021-11-21T13:14:18.556Z</time>
      </trkpt>
      <trkpt lat="47.580265" lon="7.955293">
        <ele>691.995355</ele>
        <time>2021-11-21T13:14:22.645Z</time>
      </trkpt>
      <trkpt lat="47.580339" lon="7.955104">
        <ele>691.519469</ele>
        <time>2021-11-21T13:14:24.118Z</time>
      </trkpt>
      <trkpt lat="47.580388" lon="7.954967">
        <ele>691.181786</ele>
        <time>2021-11-21T13:14:25.075Z</time>
      </trkpt>
      <trkpt lat="47.580536" lon="7.954398">
        <ele>689.688862</ele>
        <time>2021-11-21T13:14:29.006Z</time>
      </trkpt>
      <trkpt lat="47.580783" lon="7.953015">
        <ele>685.120451</ele>
        <time>2021-11-21T13:14:38.531Z</time>
      </trkpt>
      <trkpt lat="47.580801" lon="7.952840">
        <ele>684.555177</ele>
        <time>2021-11-21T13:14:39.621Z</time>
      </trkpt>
      <trkpt lat="47.580789" lon="7.952623">
        <ele>683.859923</ele>
        <time>2021-11-21T13:14:41.213Z</time>
      </trkpt>
      <trkpt lat="47.580514" lon="7.951308">
        <ele>677.527051</ele>
        <time>2021-11-21T13:14:49.637Z</time>
      </trkpt>
      <trkpt lat="47.580578" lon="7.950534">
        <ele>672.873750</ele>
        <time>2021-11-21T13:14:54.272Z</time>
      </trkpt>
      <trkpt lat="47.580705" lon="7.949917">
        <ele>669.024304</ele>
        <time>2021-11-21T13:14:58.044Z</time>
      </trkpt>
      <trkpt lat="47.580743" lon="7.949656">
        <ele>667.430965</ele>
        <time>2021-11-21T13:14:59.569Z</time>
      </trkpt>
      <trkpt lat="47.580939" lon="7.948093">
        <ele>656.224881</ele>
        <time>2021-11-21T13:15:08.619Z</time>
      </trkpt>
      <trkpt lat="47.580865" lon="7.947817">
        <ele>654.063749</ele>
        <time>2021-11-21T13:15:10.326Z</time>
      </trkpt>
      <trkpt lat="47.580562" lon="7.947489">
        <ele>650.016596</ele>
        <time>2021-11-21T13:15:13.511Z</time>
      </trkpt>
      <trkpt lat="47.580077" lon="7.947070">
        <ele>644.881366</ele>
        <time>2021-11-21T13:15:18.442Z</time>
      </trkpt>
      <trkpt lat="47.579781" lon="7.947052">
        <ele>642.901788</ele>
        <time>2021-11-21T13:15:21.118Z</time>
      </trkpt>
      <trkpt lat="47.579396" lon="7.946888">
        <ele>640.225059</ele>
        <time>2021-11-21T13:15:24.809Z</time>
      </trkpt>
      <trkpt lat="47.578644" lon="7.947268">
        <ele>634.916168</ele>
        <time>2021-11-21T13:15:32.169Z</time>
      </trkpt>
      <trkpt lat="47.578396" lon="7.947244">
        <ele>632.718192</ele>
        <time>2021-11-21T13:15:34.382Z</time>
      </trkpt>
      <trkpt lat="47.578328" lon="7.947192">
        <ele>631.958280</ele>
        <time>2021-11-21T13:15:36.141Z</time>
      </trkpt>
      <trkpt lat="47.578220" lon="7.946989">
        <ele>630.226173</ele>
        <time>2021-11-21T13:15:37.644Z</time>
      </trkpt>
      <trkpt lat="47.578055" lon="7.946424">
        <ele>626.101357</ele>
        <time>2021-11-21T13:15:41.371Z</time>
      </trkpt>
      <trkpt lat="47.577848" lon="7.945352">
        <ele>618.630808</ele>
        <time>2021-11-21T13:15:47.781Z</time>
      </trkpt>
      <trkpt lat="47.577504" lon="7.944765">
        <ele>610.910448</ele>
        <time>2021-11-21T13:15:52.146Z</time>
      </trkpt>
      <trkpt lat="47.576917" lon="7.944153">
        <ele>597.964416</ele>
        <time>2021-11-21T13:15:58.046Z</time>
      </trkpt>
      <trkpt lat="47.576848" lon="7.944056">
        <ele>596.248959</ele>
        <time>2021-11-21T13:15:58.829Z</time>
      </trkpt>
      <trkpt lat="47.576803" lon="7.944012">
        <ele>595.276486</ele>
        <time>2021-11-21T13:15:59.281Z</time>
      </trkpt>
      <trkpt lat="47.576670" lon="7.943775">
        <ele>591.524826</ele>
        <time>2021-11-21T13:16:01.003Z</time>
      </trkpt>
      <trkpt lat="47.576415" lon="7.943598">
        <ele>586.445396</ele>
        <time>2021-11-21T13:16:03.300Z</time>
      </trkpt>
      <trkpt lat="47.575978" lon="7.943401">
        <ele>577.473264</ele>
        <time>2021-11-21T13:16:07.031Z</time>
      </trkpt>
      <trkpt lat="47.575613" lon="7.943320">
        <ele>569.981178</ele>
        <time>2021-11-21T13:16:10.040Z</time>
      </trkpt>
      <trkpt lat="47.574655" lon="7.943625">
        <ele>550.090242</ele>
        <time>2021-11-21T13:16:18.054Z</time>
      </trkpt>
      <trkpt lat="47.574394" lon="7.943856">
        <ele>544.883399</ele>
        <time>2021-11-21T13:16:20.541Z</time>
      </trkpt>
      <trkpt lat="47.574153" lon="7.944610">
        <ele>536.501442</ele>
        <time>2021-11-21T13:16:25.184Z</time>
      </trkpt>
      <trkpt lat="47.573532" lon="7.946081">
        <ele>519.972253</ele>
        <time>2021-11-21T13:16:34.996Z</time>
      </trkpt>
      <trkpt lat="47.573421" lon="7.946607">
        <ele>517.404967</ele>
        <time>2021-11-21T13:16:38.226Z</time>
      </trkpt>
      <trkpt lat="47.573457" lon="7.946845">
        <ele>516.268789</ele>
        <time>2021-11-21T13:16:39.693Z</time>
      </trkpt>
      <trkpt lat="47.573702" lon="7.947589">
        <ele>512.412271</ele>
        <time>2021-11-21T13:16:44.827Z</time>
      </trkpt>
      <trkpt lat="47.573779" lon="7.948382">
        <ele>508.680268</ele>
        <time>2021-11-21T13:16:50.076Z</time>
      </trkpt>
      <trkpt lat="47.573841" lon="7.949945">
        <ele>504.164801</ele>
        <time>2021-11-21T13:17:00.734Z</time>
      </trkpt>
      <trkpt lat="47.573833" lon="7.950164">
        <ele>503.551649</ele>
        <time>2021-11-21T13:17:02.287Z</time>
      </trkpt>
      <trkpt lat="47.573830" lon="7.950662">
        <ele>502.159340</ele>
        <time>2021-11-21T13:17:05.459Z</time>
      </trkpt>
      <trkpt lat="47.573809" lon="7.950963">
        <ele>501.313350</ele>
        <time>2021-11-21T13:17:07.408Z</time>
      </trkpt>
      <trkpt lat="47.573543" lon="7.952446">
        <ele>494.484017</ele>
        <time>2021-11-21T13:17:16.867Z</time>
      </trkpt>
      <trkpt lat="47.573526" lon="7.952563">
        <ele>493.929172</ele>
        <time>2021-11-21T13:17:17.565Z</time>
      </trkpt>
      <trkpt lat="47.573508" lon="7.952785">
        <ele>492.892581</ele>
        <time>2021-11-21T13:17:18.912Z</time>
      </trkpt>
      <trkpt lat="47.573460" lon="7.953097">
        <ele>491.409026</ele>
        <time>2021-11-21T13:17:20.871Z</time>
      </trkpt>
      <trkpt lat="47.573085" lon="7.954089">
        <ele>485.954430</ele>
        <time>2021-11-21T13:17:27.614Z</time>
      </trkpt>
      <trkpt lat="47.572895" lon="7.955000">
        <ele>481.194550</ele>
        <time>2021-11-21T13:17:33.289Z</time>
      </trkpt>
      <trkpt lat="47.572816" lon="7.955144">
        <ele>480.268061</ele>
        <time>2021-11-21T13:17:34.490Z</time>
      </trkpt>
      <trkpt lat="47.572732" lon="7.955226">
        <ele>479.523854</ele>
        <time>2021-11-21T13:17:35.367Z</time>
      </trkpt>
      <trkpt lat="47.572685" lon="7.955235">
        <ele>479.173206</ele>
        <time>2021-11-21T13:17:35.777Z</time>
      </trkpt>
      <trkpt lat="47.572561" lon="7.955012">
        <ele>477.730654</ele>
        <time>2021-11-21T13:17:37.665Z</time>
      </trkpt>
      <trkpt lat="47.572493" lon="7.953580">
        <ele>471.156460</ele>
        <time>2021-11-21T13:17:46.353Z</time>
      </trkpt>
      <trkpt lat="47.572431" lon="7.953273">
        <ele>469.760450</ele>
        <time>2021-11-21T13:17:48.309Z</time>
      </trkpt>
      <trkpt lat="47.572136" lon="7.952448">
        <ele>465.692927</ele>
        <time>2021-11-21T13:17:54.070Z</time>
      </trkpt>
      <trkpt lat="47.572063" lon="7.952158">
        <ele>464.344527</ele>
        <time>2021-11-21T13:17:56.035Z</time>
      </trkpt>
      <trkpt lat="47.572029" lon="7.952049">
        <ele>463.821394</ele>
        <time>2021-11-21T13:17:56.752Z</time>
      </trkpt>
      <trkpt lat="47.571881" lon="7.951642">
        <ele>461.750565</ele>
        <time>2021-11-21T13:17:59.628Z</time>
      </trkpt>
      <trkpt lat="47.571580" lon="7.951400">
        <ele>459.469561</ele>
        <time>2021-11-21T13:18:02.759Z</time>
      </trkpt>
      <trkpt lat="47.571432" lon="7.951352">
        <ele>458.460373</ele>
        <time>2021-11-21T13:18:04.096Z</time>
      </trkpt>
      <trkpt lat="47.571372" lon="7.951351">
        <ele>458.060673</ele>
        <time>2021-11-21T13:18:04.642Z</time>
      </trkpt>
      <trkpt lat="47.571274" lon="7.951357">
        <ele>457.407315</ele>
        <time>2021-11-21T13:18:05.558Z</time>
      </trkpt>
      <trkpt lat="47.571169" lon="7.951380">
        <ele>456.700289</ele>
        <time>2021-11-21T13:18:06.498Z</time>
      </trkpt>
      <trkpt lat="47.571014" lon="7.951483">
        <ele>455.568778</ele>
        <time>2021-11-21T13:18:08.013Z</time>
      </trkpt>
      <trkpt lat="47.570777" lon="7.951728">
        <ele>453.644017</ele>
        <time>2021-11-21T13:18:10.589Z</time>
      </trkpt>
      <trkpt lat="47.570624" lon="7.952436">
        <ele>450.037658</ele>
        <time>2021-11-21T13:18:15.182Z</time>
      </trkpt>
      <trkpt lat="47.570406" lon="7.952888">
        <ele>447.036915</ele>
        <time>2021-11-21T13:18:18.525Z</time>
      </trkpt>
      <trkpt lat="47.570258" lon="7.953004">
        <ele>445.696741</ele>
        <time>2021-11-21T13:18:20.017Z</time>
      </trkpt>
      <trkpt lat="47.569469" lon="7.953110">
        <ele>439.354981</ele>
        <time>2021-11-21T13:18:26.989Z</time>
      </trkpt>
      <trkpt lat="47.568801" lon="7.953205">
        <ele>433.036282</ele>
        <time>2021-11-21T13:18:32.804Z</time>
      </trkpt>
      <trkpt lat="47.568529" lon="7.953233">
        <ele>430.215199</ele>
        <time>2021-11-21T13:18:35.157Z</time>
      </trkpt>
      <trkpt lat="47.568322" lon="7.953261">
        <ele>428.064531</ele>
        <time>2021-11-21T13:18:36.939Z</time>
      </trkpt>
      <trkpt lat="47.568036" lon="7.953298">
        <ele>425.094122</ele>
        <time>2021-11-21T13:18:39.379Z</time>
      </trkpt>
      <trkpt lat="47.567660" lon="7.953207">
        <ele>421.152234</ele>
        <time>2021-11-21T13:18:42.627Z</time>
      </trkpt>
      <trkpt lat="47.567503" lon="7.953060">
        <ele>419.230798</ele>
        <time>2021-11-21T13:18:44.231Z</time>
      </trkpt>
      <trkpt lat="47.567451" lon="7.952996">
        <ele>418.533196</ele>
        <time>2021-11-21T13:18:44.788Z</time>
      </trkpt>
      <trkpt lat="47.567312" lon="7.952728">
        <ele>416.226206</ele>
        <time>2021-11-21T13:18:46.755Z</time>
      </trkpt>
      <trkpt lat="47.567222" lon="7.952062">
        <ele>411.590608</ele>
        <time>2021-11-21T13:18:50.654Z</time>
      </trkpt>
      <trkpt lat="47.567206" lon="7.950456">
        <ele>400.628739</ele>
        <time>2021-11-21T13:18:59.986Z</time>
      </trkpt>
      <trkpt lat="47.567150" lon="7.950174">
        <ele>399.107103</ele>
        <time>2021-11-21T13:19:01.731Z</time>
      </trkpt>
      <trkpt lat="47.566740" lon="7.949245">
        <ele>393.577393</ele>
        <time>2021-11-21T13:19:08.426Z</time>
      </trkpt>
      <trkpt lat="47.566807" lon="7.948128">
        <ele>387.991261</ele>
        <time>2021-11-21T13:19:15.316Z</time>
      </trkpt>
      <trkpt lat="47.566739" lon="7.947778">
        <ele>386.181346</ele>
        <time>2021-11-21T13:19:17.521Z</time>
      </trkpt>
      <trkpt lat="47.566559" lon="7.947459">
        <ele>384.119350</ele>
        <time>2021-11-21T13:19:19.993Z</time>
      </trkpt>
      <trkpt lat="47.566361" lon="7.947197">
        <ele>382.168697</ele>
        <time>2021-11-21T13:19:22.345Z</time>
      </trkpt>
      <trkpt lat="47.566181" lon="7.947137">
        <ele>380.812848</ele>
        <time>2021-11-21T13:19:24.034Z</time>
      </trkpt>
      <trkpt lat="47.566104" lon="7.947141">
        <ele>380.246634</ele>
        <time>2021-11-21T13:19:24.728Z</time>
      </trkpt>
      <trkpt lat="47.566041" lon="7.947154">
        <ele>379.779187</ele>
        <time>2021-11-21T13:19:25.278Z</time>
      </trkpt>
      <trkpt lat="47.566020" lon="7.947169">
        <ele>379.607871</ele>
        <time>2021-11-21T13:19:25.483Z</time>
      </trkpt>
      <trkpt lat="47.565946" lon="7.947239">
        <ele>378.962720</ele>
        <time>2021-11-21T13:19:26.288Z</time>
      </trkpt>
      <trkpt lat="47.565560" lon="7.947737">
        <ele>375.201778</ele>
        <time>2021-11-21T13:19:30.903Z</time>
      </trkpt>
      <trkpt lat="47.565487" lon="7.947832">
        <ele>374.487838</ele>
        <time>2021-11-21T13:19:31.743Z</time>
      </trkpt>
      <trkpt lat="47.565349" lon="7.947927">
        <ele>373.265348</ele>
        <time>2021-11-21T13:19:33.114Z</time>
      </trkpt>
      <trkpt lat="47.565219" lon="7.948009">
        <ele>372.030173</ele>
        <time>2021-11-21T13:19:34.360Z</time>
      </trkpt>
      <trkpt lat="47.565100" lon="7.948048">
        <ele>370.964687</ele>
        <time>2021-11-21T13:19:35.431Z</time>
      </trkpt>
      <trkpt lat="47.565021" lon="7.948043">
        <ele>370.273404</ele>
        <time>2021-11-21T13:19:36.124Z</time>
      </trkpt>
      <trkpt lat="47.564900" lon="7.948021">
        <ele>369.207636</ele>
        <time>2021-11-21T13:19:37.192Z</time>
      </trkpt>
      <trkpt lat="47.564785" lon="7.947966">
        <ele>368.151199</ele>
        <time>2021-11-21T13:19:38.222Z</time>
      </trkpt>
      <trkpt lat="47.564750" lon="7.947944">
        <ele>367.818829</ele>
        <time>2021-11-21T13:19:38.560Z</time>
      </trkpt>
      <trkpt lat="47.564704" lon="7.947878">
        <ele>367.259088</ele>
        <time>2021-11-21T13:19:39.123Z</time>
      </trkpt>
      <trkpt lat="47.564636" lon="7.947804">
        <ele>366.521543</ele>
        <time>2021-11-21T13:19:39.859Z</time>
      </trkpt>
      <trkpt lat="47.564602" lon="7.947749">
        <ele>366.081521</ele>
        <time>2021-11-21T13:19:40.294Z</time>
      </trkpt>
      <trkpt lat="47.564466" lon="7.947344">
        <ele>363.412900</ele>
        <time>2021-11-21T13:19:42.942Z</time>
      </trkpt>
      <trkpt lat="47.564404" lon="7.946994">
        <ele>361.278263</ele>
        <time>2021-11-21T13:19:45.059Z</time>
      </trkpt>
      <trkpt lat="47.564365" lon="7.946824">
        <ele>360.219045</ele>
        <time>2021-11-21T13:19:46.118Z</time>
      </trkpt>
      <trkpt lat="47.564271" lon="7.946559">
        <ele>358.452946</ele>
        <time>2021-11-21T13:19:47.885Z</time>
      </trkpt>
      <trkpt lat="47.564141" lon="7.946291">
        <ele>356.490222</ele>
        <time>2021-11-21T13:19:49.837Z</time>
      </trkpt>
      <trkpt lat="47.564119" lon="7.946229">
        <ele>356.073161</ele>
        <time>2021-11-21T13:19:50.240Z</time>
      </trkpt>
      <trkpt lat="47.564025" lon="7.945964">
        <ele>354.290692</ele>
        <time>2021-11-21T13:19:52.050Z</time>
      </trkpt>
      <trkpt lat="47.563874" lon="7.945541">
        <ele>351.441533</ele>
        <time>2021-11-21T13:19:54.830Z</time>
      </trkpt>
      <trkpt lat="47.563855" lon="7.945417">
        <ele>350.684469</ele>
        <time>2021-11-21T13:19:55.572Z</time>
      </trkpt>
      <trkpt lat="47.563798" lon="7.945261">
        <ele>349.628250</ele>
        <time>2021-11-21T13:19:56.584Z</time>
      </trkpt>
      <trkpt lat="47.563725" lon="7.945071">
        <ele>348.326505</ele>
        <time>2021-11-21T13:19:57.896Z</time>
      </trkpt>
      <trkpt lat="47.563643" lon="7.944887">
        <ele>347.013643</ele>
        <time>2021-11-21T13:19:59.185Z</time>
      </trkpt>
      <trkpt lat="47.563617" lon="7.944825">
        <ele>346.579028</ele>
        <time>2021-11-21T13:19:59.599Z</time>
      </trkpt>
      <trkpt lat="47.563376" lon="7.944323">
        <ele>342.910943</ele>
        <time>2021-11-21T13:20:03.245Z</time>
      </trkpt>
      <trkpt lat="47.563250" lon="7.944210">
        <ele>341.787914</ele>
        <time>2021-11-21T13:20:04.604Z</time>
      </trkpt>
      <trkpt lat="47.563121" lon="7.944175">
        <ele>340.917033</ele>
        <time>2021-11-21T13:20:05.748Z</time>
      </trkpt>
      <trkpt lat="47.562993" lon="7.944148">
        <ele>340.058464</ele>
        <time>2021-11-21T13:20:06.911Z</time>
      </trkpt>
      <trkpt lat="47.562431" lon="7.944285">
        <ele>336.276269</ele>
        <time>2021-11-21T13:20:12.121Z</time>
      </trkpt>
      <trkpt lat="47.562104" lon="7.944442">
        <ele>333.993658</ele>
        <time>2021-11-21T13:20:15.278Z</time>
      </trkpt>
      <trkpt lat="47.561884" lon="7.944575">
        <ele>332.415830</ele>
        <time>2021-11-21T13:20:17.475Z</time>
      </trkpt>
      <trkpt lat="47.561590" lon="7.944808">
        <ele>330.172642</ele>
        <time>2021-11-21T13:20:20.467Z</time>
      </trkpt>
      <trkpt lat="47.561549" lon="7.944844">
        <ele>329.804488</ele>
        <time>2021-11-21T13:20:20.939Z</time>
      </trkpt>
      <trkpt lat="47.561253" lon="7.945105">
        <ele>327.143672</ele>
        <time>2021-11-21T13:20:24.057Z</time>
      </trkpt>
      <trkpt lat="47.561051" lon="7.945242">
        <ele>325.427526</ele>
        <time>2021-11-21T13:20:26.034Z</time>
      </trkpt>
      <trkpt lat="47.560884" lon="7.945275">
        <ele>324.126003</ele>
        <time>2021-11-21T13:20:27.542Z</time>
      </trkpt>
      <trkpt lat="47.560748" lon="7.945268">
        <ele>323.074747</ele>
        <time>2021-11-21T13:20:28.764Z</time>
      </trkpt>
      <trkpt lat="47.560632" lon="7.945223">
        <ele>322.148431</ele>
        <time>2021-11-21T13:20:29.807Z</time>
      </trkpt>
      <trkpt lat="47.560464" lon="7.945085">
        <ele>320.664554</ele>
        <time>2021-11-21T13:20:31.513Z</time>
      </trkpt>
      <trkpt lat="47.560288" lon="7.944850">
        <ele>318.834423</ele>
        <time>2021-11-21T13:20:33.582Z</time>
      </trkpt>
      <trkpt lat="47.560144" lon="7.944665">
        <ele>317.362151</ele>
        <time>2021-11-21T13:20:35.233Z</time>
      </trkpt>
      <trkpt lat="47.560106" lon="7.944624">
        <ele>316.999028</ele>
        <time>2021-11-21T13:20:35.629Z</time>
      </trkpt>
      <trkpt lat="47.559855" lon="7.944533">
        <ele>315.117044</ele>
        <time>2021-11-21T13:20:37.891Z</time>
      </trkpt>
      <trkpt lat="47.559774" lon="7.944500">
        <ele>314.518073</ele>
        <time>2021-11-21T13:20:38.620Z</time>
      </trkpt>
      <trkpt lat="47.559609" lon="7.944534">
        <ele>313.330281</ele>
        <time>2021-11-21T13:20:40.096Z</time>
      </trkpt>
      <trkpt lat="47.559263" lon="7.944710">
        <ele>310.721954</ele>
        <time>2021-11-21T13:20:43.304Z</time>
      </trkpt>
      <trkpt lat="47.559249" lon="7.944727">
        <ele>310.592899</ele>
        <time>2021-11-21T13:20:43.454Z</time>
      </trkpt>
      <trkpt lat="47.558967" lon="7.945068">
        <ele>307.997707</ele>
        <time>2021-11-21T13:20:46.727Z</time>
      </trkpt>
      <trkpt lat="47.558781" lon="7.945419">
        <ele>305.850344</ele>
        <time>2021-11-21T13:20:49.525Z</time>
      </trkpt>
      <trkpt lat="47.558676" lon="7.945591">
        <ele>304.734356</ele>
        <time>2021-11-21T13:20:50.966Z</time>
      </trkpt>
      <trkpt lat="47.558644" lon="7.945668">
        <ele>304.299237</ele>
        <time>2021-11-21T13:20:51.556Z</time>
      </trkpt>
      <trkpt lat="47.558608" lon="7.945765">
        <ele>303.766578</ele>
        <time>2021-11-21T13:20:52.273Z</time>
      </trkpt>
      <trkpt lat="47.558540" lon="7.945722">
        <ele>303.465902</ele>
        <time>2021-11-21T13:20:52.983Z</time>
      </trkpt>
      <trkpt lat="47.558415" lon="7.945666">
        <ele>303.034804</ele>
        <time>2021-11-21T13:20:54.196Z</time>
      </trkpt>
      <trkpt lat="47.558161" lon="7.945614">
        <ele>302.188330</ele>
        <time>2021-11-21T13:20:56.829Z</time>
      </trkpt>
      <trkpt lat="47.558102" lon="7.945615">
        <ele>301.993546</ele>
        <time>2021-11-21T13:20:57.349Z</time>
      </trkpt>
      <trkpt lat="47.558009" lon="7.945617">
        <ele>301.686501</ele>
        <time>2021-11-21T13:20:58.282Z</time>
      </trkpt>
      <trkpt lat="47.557910" lon="7.945625">
        <ele>301.359195</ele>
        <time>2021-11-21T13:20:59.292Z</time>
      </trkpt>
      <trkpt lat="47.557744" lon="7.945674">
        <ele>300.800426</ele>
        <time>2021-11-21T13:21:01.011Z</time>
      </trkpt>
      <trkpt lat="47.557613" lon="7.945697">
        <ele>300.364942</ele>
        <time>2021-11-21T13:21:02.396Z</time>
      </trkpt>
      <trkpt lat="47.557529" lon="7.945747">
        <ele>300.066104</ele>
        <time>2021-11-21T13:21:03.346Z</time>
      </trkpt>
      <trkpt lat="47.557446" lon="7.945795">
        <ele>299.771975</ele>
        <time>2021-11-21T13:21:04.294Z</time>
      </trkpt>
      <trkpt lat="47.557361" lon="7.945867">
        <ele>299.448761</ele>
        <time>2021-11-21T13:21:05.327Z</time>
      </trkpt>
      <trkpt lat="47.557315" lon="7.945902">
        <ele>299.278056</ele>
        <time>2021-11-21T13:21:05.859Z</time>
      </trkpt>
      <trkpt lat="47.557212" lon="7.946010">
        <ele>298.861512</ele>
        <time>2021-11-21T13:21:07.188Z</time>
      </trkpt>
      <trkpt lat="47.557111" lon="7.946129">
        <ele>298.435536</ele>
        <time>2021-11-21T13:21:08.576Z</time>
      </trkpt>
      <trkpt lat="47.557079" lon="7.946167">
        <ele>298.300161</ele>
        <time>2021-11-21T13:21:09.025Z</time>
      </trkpt>
      <trkpt lat="47.557026" lon="7.946287">
        <ele>297.980655</ele>
        <time>2021-11-21T13:21:10.033Z</time>
      </trkpt>
      <trkpt lat="47.556890" lon="7.946422">
        <ele>297.530434</ele>
        <time>2021-11-21T13:21:11.798Z</time>
      </trkpt>
      <trkpt lat="47.556716" lon="7.946585">
        <ele>297.067246</ele>
        <time>2021-11-21T13:21:13.972Z</time>
      </trkpt>
      <trkpt lat="47.556160" lon="7.947027">
        <ele>295.647542</ele>
        <time>2021-11-21T13:21:20.809Z</time>
      </trkpt>
      <trkpt lat="47.556050" lon="7.947125">
        <ele>295.358743</ele>
        <time>2021-11-21T13:21:22.136Z</time>
      </trkpt>
      <trkpt lat="47.556009" lon="7.947161">
        <ele>295.251510</ele>
        <time>2021-11-21T13:21:22.654Z</time>
      </trkpt>
      <trkpt lat="47.555912" lon="7.947254">
        <ele>294.991550</ele>
        <time>2021-11-21T13:21:23.957Z</time>
      </trkpt>
      <trkpt lat="47.555846" lon="7.947320">
        <ele>294.812392</ele>
        <time>2021-11-21T13:21:24.845Z</time>
      </trkpt>
      <trkpt lat="47.555751" lon="7.947427">
        <ele>294.543893</ele>
        <time>2021-11-21T13:21:26.072Z</time>
      </trkpt>
      <trkpt lat="47.555636" lon="7.947544">
        <ele>294.230014</ele>
        <time>2021-11-21T13:21:27.609Z</time>
      </trkpt>
      <trkpt lat="47.555582" lon="7.947589">
        <ele>294.090614</ele>
        <time>2021-11-21T13:21:28.299Z</time>
      </trkpt>
      <trkpt lat="47.555417" lon="7.947683">
        <ele>293.692858</ele>
        <time>2021-11-21T13:21:30.147Z</time>
      </trkpt>
      <trkpt lat="47.555379" lon="7.947702">
        <ele>293.633230</ele>
        <time>2021-11-21T13:21:30.599Z</time>
      </trkpt>
      <trkpt lat="47.555306" lon="7.947738">
        <ele>293.531946</ele>
        <time>2021-11-21T13:21:31.471Z</time>
      </trkpt>
      <trkpt lat="47.555286" lon="7.947750">
        <ele>293.503541</ele>
        <time>2021-11-21T13:21:31.711Z</time>
      </trkpt>
      <trkpt lat="47.554903" lon="7.947916">
        <ele>292.978211</ele>
        <time>2021-11-21T13:21:36.107Z</time>
      </trkpt>
      <trkpt lat="47.554810" lon="7.947963">
        <ele>292.848856</ele>
        <time>2021-11-21T13:21:37.183Z</time>
      </trkpt>
      <trkpt lat="47.554749" lon="7.947993">
        <ele>292.764245</ele>
        <time>2021-11-21T13:21:37.856Z</time>
      </trkpt>
      <trkpt lat="47.554731" lon="7.947945">
        <ele>292.715457</ele>
        <time>2021-11-21T13:21:38.261Z</time>
      </trkpt>
      <trkpt lat="47.554614" lon="7.947707">
        <ele>292.453855</ele>
        <time>2021-11-21T13:21:40.696Z</time>
      </trkpt>
      <trkpt lat="47.554563" lon="7.947632">
        <ele>292.359262</ele>
        <time>2021-11-21T13:21:41.542Z</time>
      </trkpt>
      <trkpt lat="47.554517" lon="7.947576">
        <ele>292.280887</ele>
        <time>2021-11-21T13:21:42.217Z</time>
      </trkpt>
      <trkpt lat="47.554475" lon="7.947529">
        <ele>292.211599</ele>
        <time>2021-11-21T13:21:42.828Z</time>
      </trkpt>
      <trkpt lat="47.554446" lon="7.947485">
        <ele>292.156958</ele>
        <time>2021-11-21T13:21:43.401Z</time>
      </trkpt>
      <trkpt lat="47.554411" lon="7.947434">
        <ele>292.092335</ele>
        <time>2021-11-21T13:21:44.035Z</time>
      </trkpt>
      <trkpt lat="47.554335" lon="7.947299">
        <ele>291.936142</ele>
        <time>2021-11-21T13:21:45.542Z</time>
      </trkpt>
      <trkpt lat="47.554307" lon="7.947234">
        <ele>291.867631</ele>
        <time>2021-11-21T13:21:46.163Z</time>
      </trkpt>
      <trkpt lat="47.554239" lon="7.947057">
        <ele>291.686678</ele>
        <time>2021-11-21T13:21:47.937Z</time>
      </trkpt>
      <trkpt lat="47.554191" lon="7.946913">
        <ele>291.543985</ele>
        <time>2021-11-21T13:21:49.423Z</time>
      </trkpt>
      <trkpt lat="47.554125" lon="7.946712">
        <ele>291.345389</ele>
        <time>2021-11-21T13:21:51.319Z</time>
      </trkpt>
      <trkpt lat="47.554096" lon="7.946611">
        <ele>291.313562</ele>
        <time>2021-11-21T13:21:52.272Z</time>
      </trkpt>
      <trkpt lat="47.554047" lon="7.946318">
        <ele>291.335656</ele>
        <time>2021-11-21T13:21:55.186Z</time>
      </trkpt>
      <trkpt lat="47.554024" lon="7.946113">
        <ele>291.350867</ele>
        <time>2021-11-21T13:21:56.989Z</time>
      </trkpt>
      <trkpt lat="47.554016" lon="7.946027">
        <ele>291.357221</ele>
        <time>2021-11-21T13:21:58.012Z</time>
      </trkpt>
      <trkpt lat="47.553951" lon="7.945209">
        <ele>291.417507</ele>
        <time>2021-11-21T13:22:06.248Z</time>
      </trkpt>
      <trkpt lat="47.553938" lon="7.945102">
        <ele>291.425465</ele>
        <time>2021-11-21T13:22:07.366Z</time>
      </trkpt>
      <trkpt lat="47.553910" lon="7.944904">
        <ele>291.440272</ele>
        <time>2021-11-21T13:22:09.752Z</time>
      </trkpt>
      <trkpt lat="47.553897" lon="7.944841">
        <ele>291.445094</ele>
        <time>2021-11-21T13:22:10.479Z</time>
      </trkpt>
      <trkpt lat="47.553823" lon="7.944597">
        <ele>291.464673</ele>
        <time>2021-11-21T13:22:13.264Z</time>
      </trkpt>
      <trkpt lat="47.553760" lon="7.944488">
        <ele>291.475177</ele>
        <time>2021-11-21T13:22:15.021Z</time>
      </trkpt>
      <trkpt lat="47.553682" lon="7.944376">
        <ele>291.486957</ele>
        <time>2021-11-21T13:22:16.903Z</time>
      </trkpt>
      <trkpt lat="47.553563" lon="7.944220">
        <ele>291.505801</ele>
        <time>2021-11-21T13:22:19.521Z</time>
      </trkpt>
      <trkpt lat="47.553453" lon="7.944106">
        <ele>291.562224</ele>
        <time>2021-11-21T13:22:22.051Z</time>
      </trkpt>
      <trkpt lat="47.552727" lon="7.943506">
        <ele>291.911637</ele>
        <time>2021-11-21T13:22:36.611Z</time>
      </trkpt>
      <trkpt lat="47.552150" lon="7.942963">
        <ele>292.198947</ele>
        <time>2021-11-21T13:22:47.935Z</time>
      </trkpt>
      <trkpt lat="47.551778" lon="7.942684">
        <ele>292.038615</ele>
        <time>2021-11-21T13:22:53.920Z</time>
      </trkpt>
      <trkpt lat="47.551689" lon="7.942595">
        <ele>291.951541</ele>
        <time>2021-11-21T13:22:55.407Z</time>
      </trkpt>
      <trkpt lat="47.551345" lon="7.942294">
        <ele>291.627560</ele>
        <time>2021-11-21T13:23:00.687Z</time>
      </trkpt>
      <trkpt lat="47.551021" lon="7.942011">
        <ele>291.322554</ele>
        <time>2021-11-21T13:23:05.436Z</time>
      </trkpt>
      <trkpt lat="47.550810" lon="7.941838">
        <ele>291.126992</ele>
        <time>2021-11-21T13:23:08.357Z</time>
      </trkpt>
      <trkpt lat="47.550734" lon="7.941776">
        <ele>291.056635</ele>
        <time>2021-11-21T13:23:09.328Z</time>
      </trkpt>
      <trkpt lat="47.550392" lon="7.941462">
        <ele>290.624182</ele>
        <time>2021-11-21T13:23:13.959Z</time>
      </trkpt>
      <trkpt lat="47.550283" lon="7.941362">
        <ele>290.364029</ele>
        <time>2021-11-21T13:23:15.392Z</time>
      </trkpt>
      <trkpt lat="47.550265" lon="7.941346">
        <ele>290.321434</ele>
        <time>2021-11-21T13:23:15.622Z</time>
      </trkpt>
      <trkpt lat="47.549622" lon="7.940782">
        <ele>288.805145</ele>
        <time>2021-11-21T13:23:23.619Z</time>
      </trkpt>
      <trkpt lat="47.549495" lon="7.940673">
        <ele>288.507319</ele>
        <time>2021-11-21T13:23:25.174Z</time>
      </trkpt>
      <trkpt lat="47.549121" lon="7.940344">
        <ele>287.624705</ele>
        <time>2021-11-21T13:23:29.905Z</time>
      </trkpt>
      <trkpt lat="47.549016" lon="7.940247">
        <ele>287.373613</ele>
        <time>2021-11-21T13:23:31.235Z</time>
      </trkpt>
      <trkpt lat="47.548784" lon="7.940080">
        <ele>287.022746</ele>
        <time>2021-11-21T13:23:34.098Z</time>
      </trkpt>
      <trkpt lat="47.548673" lon="7.939890">
        <ele>286.875845</ele>
        <time>2021-11-21T13:23:35.990Z</time>
      </trkpt>
      <trkpt lat="47.548643" lon="7.939810">
        <ele>286.822344</ele>
        <time>2021-11-21T13:23:36.695Z</time>
      </trkpt>
      <trkpt lat="47.548614" lon="7.939778">
        <ele>286.791026</ele>
        <time>2021-11-21T13:23:37.110Z</time>
      </trkpt>
      <trkpt lat="47.548563" lon="7.939753">
        <ele>286.744499</ele>
        <time>2021-11-21T13:23:37.732Z</time>
      </trkpt>
      <trkpt lat="47.548509" lon="7.939765">
        <ele>286.697205</ele>
        <time>2021-11-21T13:23:38.343Z</time>
      </trkpt>
      <trkpt lat="47.548479" lon="7.939789">
        <ele>286.667676</ele>
        <time>2021-11-21T13:23:38.726Z</time>
      </trkpt>
      <trkpt lat="47.548455" lon="7.939823">
        <ele>286.638916</ele>
        <time>2021-11-21T13:23:39.112Z</time>
      </trkpt>
      <trkpt lat="47.548437" lon="7.939866">
        <ele>286.609336</ele>
        <time>2021-11-21T13:23:39.509Z</time>
      </trkpt>
      <trkpt lat="47.548426" lon="7.939924">
        <ele>286.574116</ele>
        <time>2021-11-21T13:23:39.978Z</time>
      </trkpt>
      <trkpt lat="47.548427" lon="7.939957">
        <ele>286.554805</ele>
        <time>2021-11-21T13:23:40.250Z</time>
      </trkpt>
      <trkpt lat="47.548446" lon="7.940038">
        <ele>286.504674</ele>
        <time>2021-11-21T13:23:40.922Z</time>
      </trkpt>
      <trkpt lat="47.548468" lon="7.940081">
        <ele>286.473131</ele>
        <time>2021-11-21T13:23:41.361Z</time>
      </trkpt>
      <trkpt lat="47.548420" lon="7.940256">
        <ele>286.362702</ele>
        <time>2021-11-21T13:23:42.879Z</time>
      </trkpt>
      <trkpt lat="47.548303" lon="7.940599">
        <ele>286.138033</ele>
        <time>2021-11-21T13:23:46.309Z</time>
      </trkpt>
      <trkpt lat="47.548195" lon="7.940950">
        <ele>285.912522</ele>
        <time>2021-11-21T13:23:49.870Z</time>
      </trkpt>
      <trkpt lat="47.547852" lon="7.942144">
        <ele>285.874729</ele>
        <time>2021-11-21T13:24:03.969Z</time>
      </trkpt>
      <trkpt lat="47.547772" lon="7.942416">
        <ele>285.985767</ele>
        <time>2021-11-21T13:24:07.585Z</time>
      </trkpt>
      <trkpt lat="47.547436" lon="7.943731">
        <ele>286.511981</ele>
        <time>2021-11-21T13:24:24.581Z</time>
      </trkpt>
      <trkpt lat="47.547380" lon="7.943952">
        <ele>286.598499</ele>
        <time>2021-11-21T13:24:27.392Z</time>
      </trkpt>
      <trkpt lat="47.547280" lon="7.944357">
        <ele>286.729379</ele>
        <time>2021-11-21T13:24:32.301Z</time>
      </trkpt>
      <trkpt lat="47.547254" lon="7.944465">
        <ele>286.764179</ele>
        <time>2021-11-21T13:24:33.527Z</time>
      </trkpt>
      <trkpt lat="47.547245" lon="7.944501">
        <ele>286.775830</ele>
        <time>2021-11-21T13:24:33.922Z</time>
      </trkpt>
      <trkpt lat="47.547186" lon="7.944630">
        <ele>286.823122</ele>
        <time>2021-11-21T13:24:35.509Z</time>
      </trkpt>
      <trkpt lat="47.547164" lon="7.944724">
        <ele>286.853317</ele>
        <time>2021-11-21T13:24:36.568Z</time>
      </trkpt>
      <trkpt lat="47.547155" lon="7.944757">
        <ele>286.864119</ele>
        <time>2021-11-21T13:24:36.985Z</time>
      </trkpt>
      <trkpt lat="47.547020" lon="7.945146">
        <ele>286.996869</ele>
        <time>2021-11-21T13:24:41.316Z</time>
      </trkpt>
      <trkpt lat="47.546975" lon="7.945238">
        <ele>287.031351</ele>
        <time>2021-11-21T13:24:42.428Z</time>
      </trkpt>
      <trkpt lat="47.546915" lon="7.945468">
        <ele>287.106187</ele>
        <time>2021-11-21T13:24:44.658Z</time>
      </trkpt>
      <trkpt lat="47.546868" lon="7.945669">
        <ele>287.170746</ele>
        <time>2021-11-21T13:24:46.888Z</time>
      </trkpt>
      <trkpt lat="47.546859" lon="7.945706">
        <ele>287.182682</ele>
        <time>2021-11-21T13:24:47.349Z</time>
      </trkpt>
      <trkpt lat="47.546795" lon="7.946005">
        <ele>287.277881</ele>
        <time>2021-11-21T13:24:50.639Z</time>
      </trkpt>
      <trkpt lat="47.546735" lon="7.946282">
        <ele>287.366172</ele>
        <time>2021-11-21T13:24:54.318Z</time>
      </trkpt>
      <trkpt lat="47.546664" lon="7.946504">
        <ele>287.661240</ele>
        <time>2021-11-21T13:24:57.353Z</time>
      </trkpt>
      <trkpt lat="47.546655" lon="7.946544">
        <ele>287.742295</ele>
        <time>2021-11-21T13:24:57.917Z</time>
      </trkpt>
      <trkpt lat="47.546592" lon="7.946809">
        <ele>288.282402</ele>
        <time>2021-11-21T13:25:02.040Z</time>
      </trkpt>
      <trkpt lat="47.546633" lon="7.946946">
        <ele>288.570494</ele>
        <time>2021-11-21T13:25:04.221Z</time>
      </trkpt>
      <trkpt lat="47.546648" lon="7.947009">
        <ele>288.698918</ele>
        <time>2021-11-21T13:25:05.147Z</time>
      </trkpt>
      <trkpt lat="47.546651" lon="7.947115">
        <ele>288.902870</ele>
        <time>2021-11-21T13:25:06.870Z</time>
      </trkpt>
      <trkpt lat="47.546572" lon="7.947545">
        <ele>289.759569</ele>
        <time>2021-11-21T13:25:14.062Z</time>
      </trkpt>
      <trkpt lat="47.546159" lon="7.949303">
        <ele>293.436930</ele>
        <time>2021-11-21T13:25:52.270Z</time>
      </trkpt>
      <trkpt lat="47.545949" lon="7.950185">
        <ele>295.452905</ele>
        <time>2021-11-21T13:26:12.542Z</time>
      </trkpt>
      <trkpt lat="47.545884" lon="7.950363">
        <ele>295.889137</ele>
        <time>2021-11-21T13:26:16.474Z</time>
      </trkpt>
      <trkpt lat="47.545822" lon="7.950627">
        <ele>296.491655</ele>
        <time>2021-11-21T13:26:21.777Z</time>
      </trkpt>
      <trkpt lat="47.545810" lon="7.950694">
        <ele>296.641073</ele>
        <time>2021-11-21T13:26:23.008Z</time>
      </trkpt>
      <trkpt lat="47.545763" lon="7.950733">
        <ele>296.813101</ele>
        <time>2021-11-21T13:26:24.515Z</time>
      </trkpt>
      <trkpt lat="47.545659" lon="7.950771">
        <ele>297.155164</ele>
        <time>2021-11-21T13:26:26.937Z</time>
      </trkpt>
      <trkpt lat="47.545625" lon="7.950771">
        <ele>297.263738</ele>
        <time>2021-11-21T13:26:27.835Z</time>
      </trkpt>
      <trkpt lat="47.545567" lon="7.950765">
        <ele>297.449405</ele>
        <time>2021-11-21T13:26:29.247Z</time>
      </trkpt>
      <trkpt lat="47.545494" lon="7.950684">
        <ele>297.740658</ele>
        <time>2021-11-21T13:26:31.385Z</time>
      </trkpt>
      <trkpt lat="47.545434" lon="7.950668">
        <ele>297.935339</ele>
        <time>2021-11-21T13:26:32.864Z</time>
      </trkpt>
      <trkpt lat="47.545166" lon="7.950366">
        <ele>298.352719</ele>
        <time>2021-11-21T13:26:39.635Z</time>
      </trkpt>
      <trkpt lat="47.544901" lon="7.950044">
        <ele>298.480568</ele>
        <time>2021-11-21T13:26:45.271Z</time>
      </trkpt>
      <trkpt lat="47.544521" lon="7.949558">
        <ele>298.667834</ele>
        <time>2021-11-21T13:26:51.967Z</time>
      </trkpt>
      <trkpt lat="47.544239" lon="7.949202">
        <ele>298.806041</ele>
        <time>2021-11-21T13:26:56.930Z</time>
      </trkpt>
      <trkpt lat="47.543864" lon="7.948694">
        <ele>299.212266</ele>
        <time>2021-11-21T13:27:04.894Z</time>
      </trkpt>
      <trkpt lat="47.543760" lon="7.948548">
        <ele>299.462168</ele>
        <time>2021-11-21T13:27:07.136Z</time>
      </trkpt>
      <trkpt lat="47.543579" lon="7.948287">
        <ele>299.902725</ele>
        <time>2021-11-21T13:27:12.853Z</time>
      </trkpt>
      <trkpt lat="47.543532" lon="7.948214">
        <ele>300.021498</ele>
        <time>2021-11-21T13:27:13.979Z</time>
      </trkpt>
      <trkpt lat="47.543435" lon="7.948000">
        <ele>300.324986</ele>
        <time>2021-11-21T13:27:17.041Z</time>
      </trkpt>
      <trkpt lat="47.543407" lon="7.947938">
        <ele>300.412813</ele>
        <time>2021-11-21T13:27:18.899Z</time>
      </trkpt>
      <trkpt lat="47.543280" lon="7.947656">
        <ele>300.811939</ele>
        <time>2021-11-21T13:27:23.385Z</time>
      </trkpt>
      <trkpt lat="47.543142" lon="7.947250">
        <ele>301.347130</ele>
        <time>2021-11-21T13:27:30.849Z</time>
      </trkpt>
      <trkpt lat="47.543086" lon="7.947052">
        <ele>301.599885</ele>
        <time>2021-11-21T13:27:34.279Z</time>
      </trkpt>
      <trkpt lat="47.543056" lon="7.946935">
        <ele>301.747241</ele>
        <time>2021-11-21T13:27:37.120Z</time>
      </trkpt>
      <trkpt lat="47.543045" lon="7.946881">
        <ele>301.813651</ele>
        <time>2021-11-21T13:27:38.277Z</time>
      </trkpt>
      <trkpt lat="47.542982" lon="7.946547">
        <ele>302.276951</ele>
        <time>2021-11-21T13:27:43.677Z</time>
      </trkpt>
      <trkpt lat="47.542974" lon="7.946495">
        <ele>302.363049</ele>
        <time>2021-11-21T13:27:45.317Z</time>
      </trkpt>
      <trkpt lat="47.542960" lon="7.946400">
        <ele>302.520022</ele>
        <time>2021-11-21T13:27:47.383Z</time>
      </trkpt>
      <trkpt lat="47.542916" lon="7.945730">
        <ele>303.606729</ele>
        <time>2021-11-21T13:28:00.048Z</time>
      </trkpt>
      <trkpt lat="47.542913" lon="7.945267">
        <ele>304.354199</ele>
        <time>2021-11-21T13:28:08.544Z</time>
      </trkpt>
      <trkpt lat="47.543007" lon="7.943867">
        <ele>306.385187</ele>
        <time>2021-11-21T13:28:29.711Z</time>
      </trkpt>
      <trkpt lat="47.543161" lon="7.942213">
        <ele>306.493054</ele>
        <time>2021-11-21T13:28:48.117Z</time>
      </trkpt>
      <trkpt lat="47.543435" lon="7.940670">
        <ele>305.761405</ele>
        <time>2021-11-21T13:29:01.065Z</time>
      </trkpt>
      <trkpt lat="47.543826" lon="7.939433">
        <ele>304.340819</ele>
        <time>2021-11-21T13:29:11.466Z</time>
      </trkpt>
      <trkpt lat="47.544472" lon="7.937932">
        <ele>302.280897</ele>
        <time>2021-11-21T13:29:24.790Z</time>
      </trkpt>
      <trkpt lat="47.544705" lon="7.937395">
        <ele>301.509373</ele>
        <time>2021-11-21T13:29:29.630Z</time>
      </trkpt>
      <trkpt lat="47.544903" lon="7.936917">
        <ele>300.831571</ele>
        <time>2021-11-21T13:29:33.890Z</time>
      </trkpt>
      <trkpt lat="47.545074" lon="7.936484">
        <ele>300.316476</ele>
        <time>2021-11-21T13:29:37.721Z</time>
      </trkpt>
      <trkpt lat="47.545457" lon="7.935110">
        <ele>299.015754</ele>
        <time>2021-11-21T13:29:49.090Z</time>
      </trkpt>
      <trkpt lat="47.545674" lon="7.933625">
        <ele>298.488591</ele>
        <time>2021-11-21T13:30:02.170Z</time>
      </trkpt>
      <trkpt lat="47.545702" lon="7.933290">
        <ele>298.633793</ele>
        <time>2021-11-21T13:30:05.750Z</time>
      </trkpt>
      <trkpt lat="47.545724" lon="7.932758">
        <ele>298.863063</ele>
        <time>2021-11-21T13:30:12.016Z</time>
      </trkpt>
      <trkpt lat="47.545721" lon="7.931992">
        <ele>299.192566</ele>
        <time>2021-11-21T13:30:22.056Z</time>
      </trkpt>
      <trkpt lat="47.545696" lon="7.931497">
        <ele>299.474970</ele>
        <time>2021-11-21T13:30:29.262Z</time>
      </trkpt>
      <trkpt lat="47.545661" lon="7.930955">
        <ele>300.160919</ele>
        <time>2021-11-21T13:30:37.956Z</time>
      </trkpt>
      <trkpt lat="47.545563" lon="7.929641">
        <ele>301.826419</ele>
        <time>2021-11-21T13:31:00.296Z</time>
      </trkpt>
      <trkpt lat="47.545475" lon="7.928419">
        <ele>302.281543</ele>
        <time>2021-11-21T13:31:16.599Z</time>
      </trkpt>
      <trkpt lat="47.545421" lon="7.927686">
        <ele>301.641686</ele>
        <time>2021-11-21T13:31:22.702Z</time>
      </trkpt>
      <trkpt lat="47.545406" lon="7.927306">
        <ele>301.311367</ele>
        <time>2021-11-21T13:31:25.606Z</time>
      </trkpt>
      <trkpt lat="47.545407" lon="7.927001">
        <ele>301.046692</ele>
        <time>2021-11-21T13:31:27.893Z</time>
      </trkpt>
      <trkpt lat="47.545409" lon="7.926773">
        <ele>300.848822</ele>
        <time>2021-11-21T13:31:29.522Z</time>
      </trkpt>
      <trkpt lat="47.545417" lon="7.925848">
        <ele>299.334771</ele>
        <time>2021-11-21T13:31:35.857Z</time>
      </trkpt>
      <trkpt lat="47.545446" lon="7.925350">
        <ele>298.064942</ele>
        <time>2021-11-21T13:31:39.149Z</time>
      </trkpt>
      <trkpt lat="47.545466" lon="7.924880">
        <ele>296.868574</ele>
        <time>2021-11-21T13:31:42.202Z</time>
      </trkpt>
      <trkpt lat="47.545481" lon="7.924396">
        <ele>295.637715</ele>
        <time>2021-11-21T13:31:45.286Z</time>
      </trkpt>
      <trkpt lat="47.545521" lon="7.923709">
        <ele>293.885967</ele>
        <time>2021-11-21T13:31:49.811Z</time>
      </trkpt>
      <trkpt lat="47.545536" lon="7.923407">
        <ele>293.385845</ele>
        <time>2021-11-21T13:31:52.201Z</time>
      </trkpt>
      <trkpt lat="47.545553" lon="7.923142">
        <ele>293.053613</ele>
        <time>2021-11-21T13:31:53.921Z</time>
      </trkpt>
      <trkpt lat="47.545587" lon="7.922895">
        <ele>292.738992</ele>
        <time>2021-11-21T13:31:56.323Z</time>
      </trkpt>
      <trkpt lat="47.545641" lon="7.922610">
        <ele>292.369541</ele>
        <time>2021-11-21T13:31:58.322Z</time>
      </trkpt>
      <trkpt lat="47.545690" lon="7.922369">
        <ele>292.055404</ele>
        <time>2021-11-21T13:32:01.013Z</time>
      </trkpt>
      <trkpt lat="47.545699" lon="7.922325">
        <ele>291.998023</ele>
        <time>2021-11-21T13:32:01.274Z</time>
      </trkpt>
      <trkpt lat="47.545714" lon="7.922249">
        <ele>291.899197</ele>
        <time>2021-11-21T13:32:01.864Z</time>
      </trkpt>
      <trkpt lat="47.545778" lon="7.921947">
        <ele>291.504138</ele>
        <time>2021-11-21T13:32:05.019Z</time>
      </trkpt>
      <trkpt lat="47.545810" lon="7.921755">
        <ele>291.257310</ele>
        <time>2021-11-21T13:32:06.377Z</time>
      </trkpt>
      <trkpt lat="47.545881" lon="7.921096">
        <ele>290.424417</ele>
        <time>2021-11-21T13:32:11.725Z</time>
      </trkpt>
      <trkpt lat="47.545913" lon="7.920765">
        <ele>290.249919</ele>
        <time>2021-11-21T13:32:14.592Z</time>
      </trkpt>
      <trkpt lat="47.545973" lon="7.920313">
        <ele>290.121021</ele>
        <time>2021-11-21T13:32:19.740Z</time>
      </trkpt>
      <trkpt lat="47.546128" lon="7.919617">
        <ele>289.915946</ele>
        <time>2021-11-21T13:32:26.203Z</time>
      </trkpt>
      <trkpt lat="47.546262" lon="7.919081">
        <ele>289.756011</ele>
        <time>2021-11-21T13:32:32.202Z</time>
      </trkpt>
      <trkpt lat="47.546821" lon="7.916867">
        <ele>288.983320</ele>
        <time>2021-11-21T13:32:52.954Z</time>
      </trkpt>
      <trkpt lat="47.547032" lon="7.916218">
        <ele>288.735022</ele>
        <time>2021-11-21T13:32:59.445Z</time>
      </trkpt>
      <trkpt lat="47.547091" lon="7.916039">
        <ele>288.666360</ele>
        <time>2021-11-21T13:33:01.263Z</time>
      </trkpt>
      <trkpt lat="47.547113" lon="7.915971">
        <ele>288.658302</ele>
        <time>2021-11-21T13:33:01.861Z</time>
      </trkpt>
      <trkpt lat="47.547423" lon="7.915080">
        <ele>288.709204</ele>
        <time>2021-11-21T13:33:11.505Z</time>
      </trkpt>
      <trkpt lat="47.547994" lon="7.913433">
        <ele>288.942543</ele>
        <time>2021-11-21T13:33:31.225Z</time>
      </trkpt>
      <trkpt lat="47.548027" lon="7.913334">
        <ele>289.013730</ele>
        <time>2021-11-21T13:33:32.584Z</time>
      </trkpt>
      <trkpt lat="47.548412" lon="7.912168">
        <ele>289.850598</ele>
        <time>2021-11-21T13:33:48.987Z</time>
      </trkpt>
      <trkpt lat="47.549012" lon="7.910340">
        <ele>291.355226</ele>
        <time>2021-11-21T13:34:15.945Z</time>
      </trkpt>
      <trkpt lat="47.549102" lon="7.910058">
        <ele>291.616236</ele>
        <time>2021-11-21T13:34:20.073Z</time>
      </trkpt>
      <trkpt lat="47.549195" lon="7.909756">
        <ele>291.893991</ele>
        <time>2021-11-21T13:34:24.366Z</time>
      </trkpt>
      <trkpt lat="47.549281" lon="7.909470">
        <ele>292.155973</ele>
        <time>2021-11-21T13:34:28.435Z</time>
      </trkpt>
      <trkpt lat="47.549300" lon="7.909408">
        <ele>292.212948</ele>
        <time>2021-11-21T13:34:29.282Z</time>
      </trkpt>
      <trkpt lat="47.549329" lon="7.909312">
        <ele>292.300953</ele>
        <time>2021-11-21T13:34:30.645Z</time>
      </trkpt>
      <trkpt lat="47.549520" lon="7.908678">
        <ele>292.982368</ele>
        <time>2021-11-21T13:34:39.662Z</time>
      </trkpt>
      <trkpt lat="47.549539" lon="7.908625">
        <ele>293.067920</ele>
        <time>2021-11-21T13:34:40.405Z</time>
      </trkpt>
      <trkpt lat="47.550497" lon="7.905558">
        <ele>298.668603</ele>
        <time>2021-11-21T13:35:35.284Z</time>
      </trkpt>
      <trkpt lat="47.550283" lon="7.905413">
        <ele>299.454389</ele>
        <time>2021-11-21T13:35:43.451Z</time>
      </trkpt>
      <trkpt lat="47.550067" lon="7.905245">
        <ele>300.269018</ele>
        <time>2021-11-21T13:35:52.137Z</time>
      </trkpt>
      <trkpt lat="47.549867" lon="7.905155">
        <ele>300.966998</ele>
        <time>2021-11-21T13:35:59.765Z</time>
      </trkpt>
      <trkpt lat="47.549868" lon="7.905010">
        <ele>301.293822</ele>
        <time>2021-11-21T13:36:03.170Z</time>
      </trkpt>
      <trkpt lat="47.550025" lon="7.904774">
        <ele>302.040667</ele>
        <time>2021-11-21T13:36:11.322Z</time>
      </trkpt>
      <trkpt lat="47.550302" lon="7.904164">
        <ele>303.828455</ele>
        <time>2021-11-21T13:36:29.621Z</time>
      </trkpt>
      <trkpt lat="47.550498" lon="7.903445">
        <ele>305.774246</ele>
        <time>2021-11-21T13:36:49.193Z</time>
      </trkpt>
      <trkpt lat="47.550688" lon="7.902451">
        <ele>308.366586</ele>
        <time>2021-11-21T13:37:11.741Z</time>
      </trkpt>
      <trkpt lat="47.550757" lon="7.901591">
        <ele>310.689765</ele>
        <time>2021-11-21T13:37:31.537Z</time>
      </trkpt>
      <trkpt lat="47.550769" lon="7.901362">
        <ele>311.332189</ele>
        <time>2021-11-21T13:37:37.445Z</time>
      </trkpt>
      <trkpt lat="47.550801" lon="7.900244">
        <ele>314.461964</ele>
        <time>2021-11-21T13:38:01.842Z</time>
      </trkpt>
      <trkpt lat="47.550819" lon="7.898109">
        <ele>319.744748</ele>
        <time>2021-11-21T13:38:48.883Z</time>
      </trkpt>
      <trkpt lat="47.550648" lon="7.896481">
        <ele>323.044678</ele>
        <time>2021-11-21T13:39:16.538Z</time>
      </trkpt>
      <trkpt lat="47.550639" lon="7.896345">
        <ele>323.161558</ele>
        <time>2021-11-21T13:39:18.913Z</time>
      </trkpt>
      <trkpt lat="47.550660" lon="7.896255">
        <ele>323.243007</ele>
        <time>2021-11-21T13:39:19.714Z</time>
      </trkpt>
      <trkpt lat="47.550838" lon="7.895509">
        <ele>323.919769</ele>
        <time>2021-11-21T13:39:29.881Z</time>
      </trkpt>
      <trkpt lat="47.550878" lon="7.895158">
        <ele>324.224232</ele>
        <time>2021-11-21T13:39:33.944Z</time>
      </trkpt>
      <trkpt lat="47.550908" lon="7.894308">
        <ele>324.952240</ele>
        <time>2021-11-21T13:39:44.416Z</time>
      </trkpt>
      <trkpt lat="47.550892" lon="7.893176">
        <ele>327.168687</ele>
        <time>2021-11-21T13:39:59.134Z</time>
      </trkpt>
      <trkpt lat="47.550904" lon="7.891725">
        <ele>330.184124</ele>
        <time>2021-11-21T13:40:28.896Z</time>
      </trkpt>
      <trkpt lat="47.550915" lon="7.890600">
        <ele>334.392017</ele>
        <time>2021-11-21T13:40:57.736Z</time>
      </trkpt>
      <trkpt lat="47.550833" lon="7.889069">
        <ele>340.664730</ele>
        <time>2021-11-21T13:41:40.369Z</time>
      </trkpt>
      <trkpt lat="47.550831" lon="7.888611">
        <ele>342.514577</ele>
        <time>2021-11-21T13:41:52.939Z</time>
      </trkpt>
      <trkpt lat="47.550789" lon="7.887816">
        <ele>345.707953</ele>
        <time>2021-11-21T13:42:13.551Z</time>
      </trkpt>
      <trkpt lat="47.550758" lon="7.887295">
        <ele>347.802431</ele>
        <time>2021-11-21T13:42:27.373Z</time>
      </trkpt>
      <trkpt lat="47.550677" lon="7.886476">
        <ele>351.117210</ele>
        <time>2021-11-21T13:42:48.861Z</time>
      </trkpt>
      <trkpt lat="47.550548" lon="7.885799">
        <ele>353.579565</ele>
        <time>2021-11-21T13:43:06.065Z</time>
      </trkpt>
      <trkpt lat="47.550391" lon="7.885109">
        <ele>355.918569</ele>
        <time>2021-11-21T13:43:23.702Z</time>
      </trkpt>
      <trkpt lat="47.550332" lon="7.884727">
        <ele>357.177365</ele>
        <time>2021-11-21T13:43:32.392Z</time>
      </trkpt>
      <trkpt lat="47.550234" lon="7.883221">
        <ele>361.685749</ele>
        <time>2021-11-21T13:44:05.224Z</time>
      </trkpt>
      <trkpt lat="47.549927" lon="7.881490">
        <ele>365.921112</ele>
        <time>2021-11-21T13:44:37.488Z</time>
      </trkpt>
      <trkpt lat="47.549726" lon="7.880786">
        <ele>367.881854</ele>
        <time>2021-11-21T13:44:53.464Z</time>
      </trkpt>
      <trkpt lat="47.549327" lon="7.879547">
        <ele>371.813761</ele>
        <time>2021-11-21T13:45:23.248Z</time>
      </trkpt>
      <trkpt lat="47.549318" lon="7.879398">
        <ele>372.242226</ele>
        <time>2021-11-21T13:45:26.437Z</time>
      </trkpt>
      <trkpt lat="47.549140" lon="7.879391">
        <ele>372.997832</ele>
        <time>2021-11-21T13:45:33.307Z</time>
      </trkpt>
      <trkpt lat="47.548718" lon="7.879258">
        <ele>374.737565</ele>
        <time>2021-11-21T13:45:46.978Z</time>
      </trkpt>
      <trkpt lat="47.548422" lon="7.878959">
        <ele>375.521669</ele>
        <time>2021-11-21T13:45:57.624Z</time>
      </trkpt>
      <trkpt lat="47.548234" lon="7.878638">
        <ele>376.149513</ele>
        <time>2021-11-21T13:46:06.056Z</time>
      </trkpt>
      <trkpt lat="47.547992" lon="7.877974">
        <ele>377.264305</ele>
        <time>2021-11-21T13:46:19.154Z</time>
      </trkpt>
      <trkpt lat="47.547574" lon="7.876801">
        <ele>377.813451</ele>
        <time>2021-11-21T13:46:32.917Z</time>
      </trkpt>
      <trkpt lat="47.547126" lon="7.875801">
        <ele>375.719216</ele>
        <time>2021-11-21T13:46:41.700Z</time>
      </trkpt>
      <trkpt lat="47.546309" lon="7.874154">
        <ele>369.816578</ele>
        <time>2021-11-21T13:46:54.888Z</time>
      </trkpt>
      <trkpt lat="47.546135" lon="7.873859">
        <ele>368.233190</ele>
        <time>2021-11-21T13:46:57.270Z</time>
      </trkpt>
      <trkpt lat="47.546077" lon="7.873763">
        <ele>367.712458</ele>
        <time>2021-11-21T13:46:58.081Z</time>
      </trkpt>
      <trkpt lat="47.545934" lon="7.873549">
        <ele>366.495377</ele>
        <time>2021-11-21T13:46:59.886Z</time>
      </trkpt>
      <trkpt lat="47.545746" lon="7.873302">
        <ele>364.990767</ele>
        <time>2021-11-21T13:47:02.174Z</time>
      </trkpt>
      <trkpt lat="47.545515" lon="7.873015">
        <ele>363.185560</ele>
        <time>2021-11-21T13:47:04.851Z</time>
      </trkpt>
      <trkpt lat="47.545478" lon="7.872968">
        <ele>363.157671</ele>
        <time>2021-11-21T13:47:05.298Z</time>
      </trkpt>
      <trkpt lat="47.545375" lon="7.872836">
        <ele>363.157671</ele>
        <time>2021-11-21T13:47:06.494Z</time>
      </trkpt>
      <trkpt lat="47.545131" lon="7.872664">
        <ele>363.157671</ele>
        <time>2021-11-21T13:47:08.966Z</time>
      </trkpt>
      <trkpt lat="47.544883" lon="7.872555">
        <ele>363.157671</ele>
        <time>2021-11-21T13:47:11.305Z</time>
      </trkpt>
      <trkpt lat="47.544390" lon="7.872423">
        <ele>363.157671</ele>
        <time>2021-11-21T13:47:15.945Z</time>
      </trkpt>
      <trkpt lat="47.544189" lon="7.872387">
        <ele>363.157671</ele>
        <time>2021-11-21T13:47:17.844Z</time>
      </trkpt>
      <trkpt lat="47.543884" lon="7.872334">
        <ele>363.157671</ele>
        <time>2021-11-21T13:47:20.813Z</time>
      </trkpt>
    </trkseg>
  </trk>
</gpx>